[[{"header":{"parameterUnit":"m.s-1","parameterCategory":1,"la1":30.6,"la2":29.2853,"lo1":-89.7004,"lo2":-87.6739,"dy":0.0162,"dx":0.0183,"nx":112,"ny":82,"refTime":"2023-06-22T12:00:00:Z","depth":0,"parameterNumber":2,"parameterNumberName":"U-component_of_WINDS"},"data":[0.0,0.0,0.0,0.0,0.0,0.0,0.0,0.0,0.0,0.0,0.0,0.0,0.0,0.0,0.0,0.0,0.0,0.0,0.0,0.0,0.0,0.0,0.0,0.0,0.0,0.0,0.0,0.0,0.0,0.0,0.0,0.0,0.0,0.0,0.0,0.0,0.0,0.0,0.0,0.0,0.0,0.0,0.0,0.0,0.0,0.0,0.0,0.0,0.0,0.0,0.0,0.0,0.0,0.0,0.0,0.0,0.0,0.0,0.0,0.0,0.0,0.0,0.0,0.0,0.0,0.0,0.0,0.0,0.0,0.0,0.0,0.0,0.0,0.0,0.0,0.0,0.0,0.0,0.0,0.0,0.0,0.0,0.0,0.0,0.0,0.0,0.0,0.0,0.0,0.0,0.4968,0.6872,0.8852,0.9279,0.7324,0.6434,0.6201,0.6787,0.0,0.0,0.0,0.0,0.0,0.0,0.0,0.0,0.0,0.0,0.0,0.0,0.0,0.0,0.0,0.0,0.0,0.0,0.0,0.0,0.0,0.0,0.0,0.0,0.0,0.0,0.0,0.0,0.0,0.0,0.0,0.0,0.0,0.0,0.0,0.0,0.0,0.0,0.0,0.0,0.0,0.0,0.0,0.0,0.0,0.0,0.0,0.0,0.0,0.0,0.0,0.0,0.0,0.0,0.0,0.0,0.0,0.0,0.0,0.0,0.0,0.0,0.0,0.0,0.0,0.0,0.0,0.0,0.0,0.0,0.0,0.0,0.0,0.0,0.0,0.0,0.0,0.0,0.0,0.0,0.0,0.0,0.0,0.0,0.0,0.0,0.0,0.0,0.0,0.0,0.0,0.0,0.0,0.0,0.0,0.0,0.0,0.0,0.0,0.0,0.0,0.0,0.0,0.0,0.5809,0.8526,1.0525,1.0875,0.8913,0.7509,0.6652,0.6398,0.0,0.0,0.0,0.0,0.0,0.0,0.0,0.0,0.0,0.0,0.0,0.0,0.0,0.0,0.0,0.0,0.0,0.0,0.0,0.0,0.0,0.0,0.0,0.0,0.0,0.0,0.0,0.0,0.0,0.0,0.0,0.0,0.0,0.0,0.0,0.0,0.0,0.0,0.0,0.0,0.0,0.0,0.0,0.0,0.0,0.0,0.0,0.0,0.0,0.0,0.0,0.0,0.0,0.0,0.0,0.0,0.0,0.0,0.0,0.0,0.0,0.0,0.0,0.0,0.0,0.0,0.0,0.0,0.0,0.0,0.0,0.0,0.0,0.0,0.0,0.0,0.0,0.0,0.0,0.0,0.0,0.0,0.0,0.0,0.0,0.0,0.0,0.0,0.0,0.0,0.0,0.0,0.0,0.0,0.0,0.0,0.0,0.0,0.0,0.0,0.0,0.0,0.0,0.6484,0.7895,1.0048,1.168,1.1998,1.0475,0.9188,0.8239,0.7635,0.7176,0.0,0.0,0.0,0.0,0.0,0.0,0.0,0.0,0.0,0.0,0.0,0.0,0.0,0.0,0.0,0.0,0.0,0.0,0.0,0.0,0.0,0.0,0.0,0.0,0.0,0.0,0.0,0.0,0.0,0.0,0.0,0.0,0.0,0.0,0.0,0.0,0.0,0.0,0.0,0.0,0.0,0.0,0.0,0.0,0.0,0.0,0.0,0.0,0.0,0.0,0.0,0.0,0.0,0.0,0.0,0.0,0.0,0.0,0.0,0.0,0.0,0.0,0.0,0.0,0.0,0.0,0.0,0.0,0.0,0.0,0.0,0.0,0.0,0.0,0.0,0.0,0.0,0.0,0.0,0.0,0.0,0.0,0.0,0.0,0.0,0.0,0.0,0.0,0.0,0.0,0.0,0.0,0.0,0.0,0.0,0.0,0.0,0.0,0.0,0.0,0.0,0.0,0.8368,1.0137,1.1535,1.265,1.2845,1.1706,1.0778,0.984,0.8867,0.826,0.0,0.0,0.0,0.0,0.0,0.0,0.0,0.0,0.0,0.0,0.0,0.0,0.0,0.0,0.0,0.0,0.0,0.0,0.0,0.0,0.0,0.0,0.0,0.0,0.0,0.0,0.0,0.0,0.0,0.0,0.0,0.0,0.0,0.0,0.0,0.0,0.0,0.0,0.0,0.0,0.0,0.0,0.0,0.0,0.0,0.0,0.0,0.0,0.0,0.0,0.0,0.0,0.0,0.0,0.0,0.0,0.0,0.0,0.0,0.0,0.0,0.0,0.0,0.0,0.0,0.0,0.0,0.0,0.0,0.0,0.0,0.0,0.0,0.0,0.0,0.0,0.0,0.0,0.0,0.0,0.0,0.0,0.0,0.0,0.0,0.0,0.0,0.0,0.0,0.0,0.0,0.0,0.0,0.0,0.0,0.0,0.0,0.0,0.0,0.0,0.0,0.0,1.0287,1.2059,1.2942,1.3538,1.3411,1.2323,1.1792,1.0813,0.927,0.9338,0.0,0.0,0.0,0.0,0.0,0.0,0.0,0.0,0.0,0.0,0.0,0.0,0.0,0.0,0.0,0.0,0.0,0.0,0.0,0.0,0.0,0.0,0.0,0.0,0.0,0.0,0.0,0.0,0.0,0.0,0.0,0.0,0.0,0.0,0.0,0.0,0.0,0.0,0.0,0.0,0.0,0.0,0.0,0.0,0.0,0.0,0.0,0.0,0.0,0.0,0.0,0.0,0.0,0.0,0.0,0.0,0.0,0.0,0.0,0.0,0.0,0.0,0.0,0.0,0.0,0.0,0.0,0.0,0.0,0.0,0.0,0.0,0.0,0.0,0.0,0.0,0.0,0.0,0.0,0.0,0.0,0.0,0.0,0.0,0.0,0.0,0.0,0.0,0.0,0.0,0.0,0.0,0.0,0.0,0.0,0.0,0.0,0.0,0.0,0.0,0.0,0.0,1.1505,1.2911,1.4283,1.4114,1.3551,1.2752,1.1733,1.0917,1.0533,0.0,0.0,0.0,0.0,0.0,0.0,0.0,0.0,0.0,0.0,0.0,0.0,0.0,0.0,0.0,0.0,0.0,0.0,0.0,0.0,0.0,0.0,0.0,0.0,0.0,0.0,0.0,0.0,0.0,0.0,0.0,0.0,0.0,0.0,0.0,0.0,0.0,0.0,0.0,0.0,0.0,0.0,0.0,0.0,0.0,0.0,0.0,0.0,0.0,0.0,0.0,0.0,0.0,0.0,0.0,0.0,0.0,0.0,0.0,0.0,0.0,0.0,0.0,0.0,0.0,0.0,0.0,0.0,0.0,0.0,0.0,0.0,0.0,0.0,0.0,0.0,0.0,0.0,0.0,0.0,0.0,0.0,0.0,0.0,0.0,0.0,0.0,0.0,0.0,0.0,0.0,0.0,0.0,0.0,0.0,0.0,0.0,0.0,0.0,0.0,0.0,0.0,1.0939,1.2233,1.3479,1.4811,1.4381,1.3774,1.3076,1.2013,1.1349,1.1221,0.0,0.0,0.0,0.0,0.0,0.0,0.0,0.0,0.0,0.0,0.0,0.0,0.0,0.0,0.0,0.0,0.0,0.0,0.0,0.0,0.0,0.0,0.0,0.0,0.0,0.0,0.0,0.0,0.0,0.0,0.0,0.0,0.0,0.0,0.0,0.0,0.0,0.0,0.0,0.0,0.0,0.0,0.0,0.0,0.0,0.0,0.0,0.0,0.0,0.0,0.0,0.0,0.0,0.0,0.0,0.0,0.0,0.0,0.0,0.0,0.0,0.0,0.0,0.0,0.0,0.0,0.0,0.0,0.0,0.0,0.0,0.0,0.0,0.0,0.0,0.0,0.0,0.0,0.0,0.0,0.0,0.0,0.0,0.0,0.0,0.0,0.0,0.0,0.0,0.0,0.0,0.0,0.0,0.0,0.0,0.0,0.0,0.0,0.0,0.0,0.0,0.0,1.0798,1.2427,1.3743,1.4342,1.4335,1.402,1.3345,1.2848,1.2152,0.0,0.0,0.0,0.0,0.0,0.0,0.0,0.0,0.0,0.0,0.0,0.0,0.0,0.0,0.0,0.0,0.0,0.0,0.0,0.0,0.0,0.0,0.0,0.0,0.0,0.0,0.0,0.0,0.0,0.0,0.0,0.0,0.0,0.0,0.0,0.0,0.0,0.0,0.0,0.0,0.0,0.0,0.0,0.0,0.0,0.0,0.0,0.0,0.0,0.0,0.0,0.0,0.0,0.0,0.0,0.0,0.0,0.0,0.0,0.0,0.0,0.0,0.0,0.0,0.0,0.0,0.0,0.0,0.0,0.0,0.0,0.0,0.0,0.0,0.0,0.0,0.0,0.0,0.0,0.0,0.0,0.0,0.0,0.0,0.0,0.0,0.0,0.0,0.0,0.0,0.0,0.0,0.0,0.0,0.0,0.0,0.0,0.0,0.0,0.0,0.0,0.0,0.0,1.2485,1.3721,1.4749,1.5396,1.4659,1.3797,1.3095,1.1727,1.0846,1.0694,0.0,0.0,0.0,0.0,0.0,0.0,0.0,0.0,0.0,0.0,0.0,0.0,0.0,0.0,0.0,0.0,0.0,0.0,0.0,0.0,0.0,0.0,0.0,0.0,0.0,0.0,0.0,0.0,0.0,0.0,0.0,0.0,0.0,0.0,0.0,0.0,0.0,0.0,0.0,0.0,0.0,0.0,0.0,0.0,0.0,0.0,0.0,0.0,0.0,0.0,0.0,0.0,0.0,0.0,0.0,0.0,0.0,0.0,0.0,0.0,0.0,0.0,0.0,0.0,0.0,0.0,0.0,0.0,0.0,0.0,0.0,0.0,0.0,0.0,0.0,0.0,0.0,0.0,0.0,0.0,0.0,0.0,0.0,0.0,0.0,0.0,0.0,0.0,0.0,0.0,0.0,0.0,0.0,0.0,0.0,0.0,0.0,0.0,0.0,0.0,0.0,0.0,1.2491,1.402,1.502,1.5329,1.4526,1.3627,1.264,1.0951,0.981,0.9563,0.0,0.0,0.0,0.0,0.0,0.0,0.0,0.0,0.0,0.0,0.0,0.0,0.0,0.0,0.0,0.0,0.0,0.0,0.0,0.0,0.0,0.0,0.0,0.0,0.0,0.0,0.0,0.0,0.0,0.0,0.0,0.0,0.0,0.0,0.0,0.0,0.0,0.0,0.0,0.0,0.0,0.0,0.0,0.0,0.0,0.0,0.0,0.0,0.0,0.0,0.0,0.0,0.0,0.0,0.0,0.0,0.0,0.0,0.0,0.0,0.0,0.0,0.0,0.0,0.0,0.0,0.0,0.0,0.0,0.0,0.0,0.0,0.0,0.0,0.0,0.0,0.0,0.0,0.0,0.0,0.0,0.0,0.0,0.0,0.0,0.0,0.0,0.0,0.0,0.0,0.0,0.0,0.0,0.0,0.0,0.0,0.0,0.0,0.0,0.0,0.0,0.0,1.1527,1.3627,1.4841,1.4516,1.4154,1.3396,1.2141,1.0418,0.9027,0.8175,0.0,0.0,0.0,0.0,0.0,0.0,0.0,0.0,0.0,0.0,0.0,0.0,0.0,0.0,0.0,0.0,0.0,0.0,0.0,0.0,0.0,0.0,0.0,0.0,0.0,0.0,0.0,0.0,0.0,0.0,0.0,0.0,0.0,0.0,0.0,0.0,0.0,0.0,0.0,0.0,0.0,0.0,0.0,0.0,0.0,0.0,0.0,0.0,0.0,0.0,0.0,0.0,0.0,0.0,0.0,0.0,0.0,0.0,0.0,0.0,-2.0481,-2.0476,0.0,0.0,0.0,0.0,0.0,0.0,0.0,0.0,0.0,0.0,0.0,0.0,0.0,0.0,0.0,0.0,0.0,0.0,0.0,0.0,0.0,0.0,0.0,0.0,0.0,0.0,0.0,0.0,0.0,0.0,0.0,0.0,0.0,0.0,0.0,0.0,0.0,0.0,0.0,0.0,1.2182,1.3887,1.4753,1.4297,1.3692,1.2842,1.1637,0.9716,0.8439,0.8213,0.5998,0.0,0.0,0.0,0.0,0.0,0.0,0.0,0.0,0.0,0.0,0.0,0.0,0.0,0.0,0.0,0.0,0.0,0.0,0.0,0.0,0.0,0.0,0.0,0.0,0.0,0.0,0.0,0.0,0.0,0.0,0.0,0.0,0.0,0.0,0.0,0.0,0.0,0.0,0.0,0.0,0.0,0.0,0.0,0.0,0.0,0.0,0.0,0.0,0.0,0.0,0.0,0.0,0.0,0.0,0.0,0.0,0.0,0.0,0.0,-2.1257,-2.1079,0.0,0.0,0.0,0.0,0.0,0.0,0.0,0.0,0.0,0.0,0.0,0.0,0.0,0.0,0.0,0.0,0.0,0.0,0.0,0.0,0.0,0.0,0.0,0.0,0.0,0.0,0.0,0.0,0.0,0.0,0.0,0.0,0.0,0.0,0.0,0.0,0.0,0.0,0.0,0.0,1.1189,1.3279,1.4346,1.3906,1.3218,1.2198,1.077,0.8787,0.7372,0.6803,0.3966,0.0,0.0,0.0,0.0,0.0,0.0,0.0,0.0,0.0,0.0,0.0,0.0,0.0,0.0,0.0,0.0,0.0,0.0,0.0,0.0,0.0,0.0,0.0,0.0,0.0,0.0,0.0,0.0,0.0,0.0,0.0,0.0,0.0,0.0,0.0,0.0,0.0,0.0,0.0,0.0,0.0,0.0,0.0,0.0,0.0,0.0,0.0,0.0,0.0,0.0,0.0,0.0,0.0,-2.233,-2.2757,-2.2444,-2.3814,-2.3719,-2.239,-2.1759,-2.1494,-2.1519,-2.1719,0.0,0.0,0.0,0.0,0.0,0.0,0.0,0.0,0.0,0.0,0.0,0.0,0.0,0.0,0.0,0.0,0.0,0.0,0.0,0.0,0.0,0.0,-2.1243,-2.0308,-2.0116,-1.9698,-1.8178,0.0,0.0,0.0,0.0,0.0,0.0,0.0,0.0,0.0,0.0,0.0,0.988,1.2437,1.3827,1.3514,1.2801,1.1647,0.9823,0.7873,0.6303,0.5274,0.2224,-0.0463,0.0,0.0,0.0,0.0,0.0,0.0,0.0,0.0,0.0,0.0,0.0,0.0,0.0,0.0,0.0,0.0,0.0,0.0,0.0,0.0,0.0,0.0,0.0,0.0,0.0,0.0,0.0,0.0,0.0,0.0,0.0,0.0,-1.8741,-1.9889,0.0,0.0,0.0,0.0,0.0,0.0,0.0,0.0,0.0,0.0,0.0,0.0,0.0,-1.9402,-2.0261,-2.1054,-2.193,-2.2835,-2.3372,-2.3701,-2.3934,-2.4136,-2.421,-2.412,-2.3347,0.0,-2.1274,-2.1642,0.0,0.0,0.0,0.0,0.0,0.0,0.0,0.0,0.0,0.0,0.0,0.0,0.0,0.0,0.0,0.0,0.0,0.0,0.0,0.0,0.0,0.0,-2.1684,-1.9733,-1.9788,-1.9996,-1.9022,-2.0246,-2.1634,-2.2064,-2.1483,-2.0345,0.0,0.0,0.0,0.0,0.0,0.0,0.9592,1.2043,1.3411,1.3347,1.2454,1.1102,0.9169,0.7244,0.5837,0.5236,0.1978,-0.1416,-0.475,-0.4984,0.0,0.0,0.0,0.0,0.0,0.0,0.0,0.0,0.0,0.0,0.0,0.0,0.0,0.0,0.0,0.0,0.0,0.0,0.0,0.0,0.0,0.0,0.0,0.0,0.0,0.0,0.0,0.0,0.0,-1.7021,-1.8355,-2.0333,-1.9555,-1.9015,0.0,0.0,0.0,0.0,0.0,0.0,0.0,0.0,0.0,-1.9846,-2.0215,-2.0846,-2.1759,-2.2082,-2.2621,-2.35,-2.361,-2.3858,-2.419,-2.419,-2.4134,-2.4024,-2.3479,-2.2772,-2.2111,-2.277,-2.3061,-2.3105,0.0,0.0,0.0,0.0,-2.4032,-2.4165,-2.407,-2.3959,-2.382,-2.3692,0.0,0.0,0.0,0.0,0.0,0.0,0.0,-2.1715,-2.1258,-2.1376,-2.1255,-1.988,-1.9862,-2.0182,-2.0245,-2.0906,-2.1717,-2.2539,-2.2279,-2.162,-2.0519,-1.6763,0.0,0.0,0.0,0.2691,0.7206,1.0101,1.1773,1.1823,1.1321,1.0142,0.7951,0.6397,0.4849,0.3224,0.1052,-0.1816,-0.5495,-0.5376,-0.6068,0.0,0.0,0.0,0.0,0.0,0.0,0.0,0.0,0.0,0.0,0.0,0.0,0.0,0.0,0.0,0.0,0.0,0.0,0.0,0.0,0.0,0.0,0.0,0.0,0.0,0.0,0.0,0.0,-1.6895,-1.8246,-2.0223,-1.9987,-1.9745,0.0,0.0,0.0,0.0,0.0,0.0,-1.8717,-1.9307,-2.0058,-2.0959,-2.1275,-2.1845,-2.2695,-2.2695,-2.3045,-2.371,-2.3759,-2.3923,-2.4284,-2.4284,-2.4153,-2.3866,-2.3602,-2.3342,-2.3177,-2.3449,-2.3782,-2.4179,-2.4772,-2.5151,-2.5383,-2.5175,-2.5216,-2.536,-2.5232,-2.5159,-2.5084,-2.4666,-2.4481,-2.4251,-2.3255,0.0,0.0,0.0,0.0,-2.1497,-2.1363,-2.1168,-2.0828,-2.0055,-1.9936,-2.0161,-2.0715,-2.0974,-2.1411,-2.2505,-2.2434,-2.1957,-2.1242,-1.7785,0.0,-0.9292,-0.4244,0.0716,0.5347,0.8534,1.0416,1.0535,1.0264,0.9138,0.6761,0.5524,0.3879,0.1576,0.0339,-0.1973,-0.5595,-0.5461,-0.6313,-0.8439,0.0,0.0,0.0,0.0,0.0,0.0,0.0,0.0,0.0,0.0,0.0,0.0,0.0,0.0,0.0,0.0,0.0,0.0,0.0,0.0,0.0,0.0,0.0,0.0,0.0,0.0,0.0,0.0,0.0,-1.9427,-2.0226,0.0,0.0,0.0,0.0,-2.0422,-1.9953,-1.9875,-2.0542,-2.0019,-2.012,-2.0959,-2.1023,-2.1579,-2.2695,-2.2695,-2.3045,-2.3674,-2.387,-2.4174,-2.4459,-2.4459,-2.4497,-2.4442,-2.4229,-2.4266,-2.4307,-2.2969,-2.2985,-2.3907,-2.3957,-2.4568,-2.5383,-2.5303,-2.5303,-2.5293,-2.536,-2.4849,-2.429,-2.5162,-2.5279,-2.4918,-2.4079,-2.3309,0.0,0.0,-2.1674,-2.1242,-2.0914,-2.0811,-2.0658,-1.9974,-1.9832,-1.9832,-1.987,-1.9881,-2.0418,-2.2177,-2.1656,-2.0575,-1.9583,0.0,-1.265,-0.8734,-0.4024,0.074,0.5231,0.8282,1.0048,1.0133,0.9607,0.828,0.5872,0.4616,0.3207,0.1408,0.0227,-0.189,-0.5178,-0.5291,-0.6112,-0.7919,-0.8818,0.0,0.0,0.0,0.0,0.0,0.0,0.0,0.0,0.0,0.0,0.0,0.0,0.0,0.0,0.0,0.0,0.0,0.0,0.0,0.0,0.0,0.0,0.0,0.0,0.0,0.0,0.0,0.0,-1.9393,-1.919,0.0,-2.0535,-1.8864,-1.8226,-1.9438,-1.9323,-1.9315,-1.9534,-1.9664,-2.012,-2.0959,-2.0991,-2.1549,-2.2695,-2.2923,-2.3236,-2.3674,-2.3999,-2.4248,-2.4476,-2.4476,-2.4111,-2.3436,-2.386,-2.3455,-2.2447,-2.2409,-2.3251,-2.4487,-2.4474,-2.4714,-2.503,-2.4968,-2.5018,-2.5111,-2.5126,-2.5034,-2.4838,-2.4656,-2.4464,-2.4098,-2.3294,-2.2363,-2.1569,-2.1921,-2.1016,-2.0091,-2.051,-2.0225,-1.9775,-1.9536,-1.9439,-1.9411,-1.9316,-1.9213,-1.925,-1.9607,-1.9559,-1.9374,-1.9143,-1.6129,-1.2626,-0.9243,-0.4988,-0.0455,0.4122,0.7587,0.9693,0.988,0.9937,0.9024,0.6652,0.4735,0.3076,0.1715,0.034,-0.1425,-0.3645,-0.4994,-0.6349,-0.7818,-0.8831,-1.0233,0.0,0.0,0.0,0.0,0.0,0.0,0.0,0.0,0.0,0.0,0.0,0.0,0.0,0.0,0.0,0.0,0.0,0.0,0.0,0.0,0.0,0.0,0.0,0.0,0.0,-1.6126,-1.718,-1.8016,-1.8057,-1.8413,-1.9225,-1.8207,-1.7868,-1.8907,-1.8766,-1.8821,-1.9238,-1.9376,-1.9844,-2.0731,-2.0764,-2.1395,-2.266,-2.2888,-2.3305,-2.3858,-2.4211,-2.4497,-2.4591,-2.4632,-2.4098,-2.3172,-2.358,-2.2941,-2.1589,-2.2117,-2.2936,-2.3859,-2.4061,-2.4339,-2.4625,-2.4511,-2.4535,-2.4615,-2.479,-2.4885,-2.4812,-2.4283,-2.3774,-2.3198,-2.2353,-2.1469,-2.084,-2.1042,-2.0218,-1.9418,-1.9968,-1.9711,-1.9323,-1.9323,-1.9225,-1.9044,-1.8682,-1.8664,-1.8482,-1.771,-1.7576,-1.7671,-1.7727,-1.4675,-1.1402,-0.8898,-0.4769,-0.0484,0.3591,0.7151,0.9359,0.9595,0.9656,0.8882,0.6872,0.4759,0.2955,0.1597,0.0261,-0.1491,-0.3723,-0.5292,-0.6713,-0.8018,-0.9625,-1.1305,-1.3054,0.0,0.0,0.0,0.0,0.0,0.0,0.0,0.0,0.0,0.0,0.0,0.0,0.0,0.0,0.0,0.0,0.0,0.0,0.0,0.0,0.0,0.0,0.0,-1.4722,-1.5499,-1.5984,-1.5319,-1.6925,-1.7909,-1.7271,-1.7797,-1.8398,-1.9003,-1.8526,-1.8696,-1.9764,-1.9238,-1.931,-2.023,-2.0299,-2.1052,-2.2531,-2.2582,-2.3165,-2.419,-2.4575,-2.479,-2.4818,-2.4943,-2.451,-2.3736,-2.3431,-2.2784,-2.1919,-2.1919,-2.1971,-2.203,-2.2552,-2.3414,-2.4253,-2.3897,-2.3805,-2.3916,-2.4392,-2.4384,-2.4091,-2.4052,-2.3304,-2.2277,-2.1365,-2.0915,-2.0559,-1.9552,-1.9271,-1.9219,-1.9219,-1.9234,-1.9234,-1.9234,-1.915,-1.8789,-1.8004,-1.8237,-1.8183,-1.6767,-1.5914,-1.5391,-1.5287,-1.1955,-0.8825,-0.7499,-0.3269,0.0,0.385,0.7114,0.9189,0.9297,0.8787,0.7855,0.6495,0.4681,0.2843,0.1024,-0.0109,-0.2147,-0.5413,-0.6246,-0.7277,-0.8705,-1.1238,-1.3112,-1.4189,0.0,0.0,0.0,0.0,0.0,0.0,0.0,0.0,0.0,0.0,0.0,0.0,0.0,0.0,0.0,0.0,0.0,0.0,0.0,0.0,0.0,-1.633,-1.6332,-1.5898,-1.6037,-1.6137,-1.6074,-1.6574,-1.6987,-1.7257,-1.7099,-1.7204,-1.7834,-1.804,-1.8086,-1.8045,-1.8941,-1.9413,-1.9214,-2.0234,-2.1084,-2.1669,-2.2556,-2.3383,-2.4043,-2.4004,-2.4314,-2.4917,-2.4624,-2.3856,-2.2729,-2.3049,-2.1956,-2.0083,-2.0567,-2.0905,-2.122,-2.2025,-2.2936,-2.3708,-2.3611,-2.4024,-2.4596,-2.4157,-2.4055,-2.3907,-2.267,-2.1999,-2.1559,-2.0659,-2.0066,-1.9629,-1.9331,-1.8475,-1.7702,-1.7702,-1.7923,-1.814,-1.814,-1.8651,-1.9041,-1.861,-1.8233,-1.7614,-1.6485,-1.4747,-1.3734,-1.4443,-1.1742,-0.846,-0.5354,-0.1321,0.275,0.6658,0.9106,1.0907,1.1995,1.1312,1.0081,0.833,0.5766,0.339,0.1311,-0.1222,-0.3189,-0.4438,-0.7516,-0.99,-1.1415,-1.2917,-1.4386,0.0,0.0,0.0,0.0,0.0,0.0,0.0,0.0,0.0,0.0,0.0,0.0,0.0,0.0,0.0,0.0,0.0,0.0,0.0,0.0,0.0,0.0,-1.6729,-1.6372,-1.5946,-1.5394,-1.5084,-1.5185,-1.5463,-1.5846,-1.6149,-1.6584,-1.6991,-1.7324,-1.7827,-1.8052,-1.7973,-1.8855,-1.9192,-1.8873,-2.0062,-2.0831,-2.1045,-2.2314,-2.3257,-2.3886,-2.4062,-2.4435,-2.4917,-2.4341,-2.3472,-2.2424,-2.2215,-2.1116,-1.9479,-1.9893,-2.0433,-2.1042,0.0,0.0,0.0,0.0,-2.4151,-2.4765,-2.4296,-2.4154,-2.3906,-2.2553,-2.2078,-2.1773,-2.0443,-2.0133,-2.0079,-1.9571,-1.8623,-1.7723,-1.7705,-1.7599,-1.7618,-1.7963,-1.8102,-1.8213,-1.8429,-1.7654,-1.674,-1.6003,-1.4616,0.0,-1.2577,-0.9856,-0.6709,-0.358,0.0491,0.4449,0.7863,1.0383,1.2002,1.236,1.1644,1.0392,0.8541,0.5663,0.0,0.0,0.0,-0.4567,-0.672,-0.9421,0.0,0.0,0.0,-1.5237,-1.6151,-1.6414,0.0,0.0,-1.6837,-1.6964,0.0,0.0,0.0,0.0,0.0,0.0,0.0,0.0,0.0,0.0,0.0,0.0,0.0,0.0,0.0,0.0,-1.7314,-1.658,-1.5351,-1.4255,-1.3555,-1.3618,-1.4254,-1.4789,-1.5085,-1.6485,-1.7459,-1.7474,-1.8003,-1.8489,-1.8893,-1.9006,0.0,0.0,0.0,-2.0572,-2.0796,-2.2058,-2.3082,-2.3821,-2.4435,-2.4766,-2.4823,-2.4144,-2.3366,-2.2528,-2.1392,-2.0392,-1.9582,-1.9738,-2.0418,-2.1464,-2.195,-2.2577,-2.3221,-2.3759,-2.4254,-2.4688,-2.4585,0.0,0.0,-2.3106,-2.2859,-2.2536,-2.0696,-2.0683,-2.1114,-2.0064,-1.9088,-1.8317,-1.8289,-1.7692,-1.7288,-1.8025,-1.7459,-1.7005,-1.7766,-1.687,-1.5826,-1.5428,-1.4979,-1.3519,-0.9964,-0.6991,-0.4281,-0.1791,0.2395,0.6129,0.8589,1.1288,1.2656,1.1733,1.0873,0.0,0.7911,0.493,0.2198,-0.0114,-0.2784,-0.6193,-1.0447,-1.1439,-1.2625,-1.4141,-1.5175,-1.5718,-1.5793,-1.6271,-1.6522,-1.6522,-1.6522,-1.6522,0.0,0.0,0.0,0.0,0.0,0.0,0.0,0.0,0.0,0.0,0.0,0.0,0.0,0.0,0.0,-1.7345,-1.7089,-1.658,-1.5351,-1.4518,-1.4076,-1.4374,-1.4588,-1.5453,-1.7328,-1.7886,-1.8296,-1.8714,-1.9272,-1.9362,-1.8835,-1.9606,-1.9818,-1.9307,-2.0636,-2.145,-2.1591,-2.274,-2.3741,-2.4586,-2.4463,0.0,-2.5182,-2.4516,-2.3512,-2.2338,-2.1939,-2.0841,-1.9361,-1.9688,-2.0927,-2.2731,-2.3525,-2.3928,-2.4128,-2.4713,-2.5103,-2.5201,-2.4386,-2.4147,-2.4071,-2.3237,-2.2802,-2.247,-2.1432,-2.0999,0.0,-1.9814,-1.8216,-1.6753,-1.679,-1.6413,-1.6062,-1.6214,-1.6858,-1.7431,-1.7384,-1.6781,-1.6102,-1.5371,-1.4733,-1.251,-0.6896,-0.5181,-0.3028,0.1516,0.513,0.86,1.2134,1.2409,1.2647,1.3621,1.1554,0.9592,0.814,0.5286,0.2401,-0.0345,-0.4442,-0.7953,-1.0744,-1.1887,-1.3146,-1.463,-1.5356,-1.5919,-1.6371,-1.6471,-1.6522,-1.6522,-1.6522,-1.6522,0.0,0.0,0.0,0.0,0.0,0.0,0.0,0.0,0.0,0.0,0.0,-1.8922,-1.9347,0.0,-1.8839,-1.8721,-1.771,-1.6669,-1.5669,-1.5405,-1.5088,-1.4652,-1.5099,-1.6172,-1.8003,-1.8737,-1.9208,-1.947,-2.0167,-2.0288,-1.96,-2.0234,-2.0403,-1.9802,-2.0958,-2.1569,-2.154,-2.2835,-2.378,-2.4418,-2.455,-2.4828,-2.5122,-2.4266,-2.3512,-2.2841,-2.2182,-2.1147,-1.9926,-2.0226,-2.133,-2.2881,-2.3378,-2.4117,-2.4985,-2.5235,-2.5424,-2.5415,-2.4871,-2.4701,-2.4569,-2.3676,-2.3558,-2.3445,-2.1972,-2.1551,-2.1324,-2.0305,-1.8513,-1.6976,-1.7002,-1.6236,-1.5563,-1.5999,-1.6219,-1.6499,-1.7197,-1.6687,-1.5957,-1.5487,-1.487,-1.2902,-0.799,-0.4746,-0.0843,0.4949,0.8087,1.0655,1.3054,1.3267,1.306,1.2679,1.0838,0.8967,0.7243,0.3604,0.025,-0.2488,-0.5622,-0.8558,-1.1194,-1.1984,-1.3236,-1.5152,-1.5477,-1.5923,-1.6522,-1.6522,-1.6522,-1.6522,-1.6522,-1.6522,0.0,0.0,0.0,0.0,0.0,0.0,0.0,-1.888,-1.8283,-1.9511,-1.9275,-1.9238,-2.0734,-1.9799,-1.9136,-2.0027,-1.8649,-1.7238,-1.6537,-1.6727,-1.6632,-1.5712,-1.6059,-1.7069,-1.8734,-1.9647,-2.0189,-2.0425,-2.1205,-2.1481,-2.0871,-2.1149,-2.1215,-2.0925,-2.1491,-2.1802,-2.1826,-2.3021,-2.3819,-2.4207,-2.4788,-2.5065,-2.5027,-2.4195,-2.3701,-2.3485,-2.2343,-2.143,-2.082,-2.1039,-2.1717,-2.27,-2.2738,-2.3724,-2.5093,-2.5035,-2.5145,-2.5233,-2.5149,-2.5107,-2.4987,-2.4184,-2.4132,-2.4105,-2.237,-2.1921,-2.1834,-2.0776,-1.9148,-1.7732,-1.7626,-1.6512,-1.5582,-1.6289,-1.5781,-1.5546,-1.7069,-1.6598,-1.5777,-1.5579,-1.5038,-1.3233,-0.8999,-0.4572,0.0682,0.7433,1.0265,1.1963,1.2924,1.344,1.3011,1.116,0.9655,0.7885,0.5804,0.173,-0.1966,-0.4824,-0.6582,-0.8685,-1.1338,-1.2133,-1.3424,-1.5398,-1.5688,-1.5996,-1.6522,-1.6522,-1.6522,-1.6522,-1.6522,-1.6522,-1.8702,-1.8984,-1.9528,-2.1746,-2.0509,-1.9584,0.0,-2.1021,-1.8969,-1.9591,-1.9643,-1.9493,-1.9216,-1.9275,-1.9315,-1.9258,-1.9308,-1.9057,-1.8396,-1.8702,-1.9023,-1.9128,-1.7977,-1.8287,-2.105,-2.1001,-2.1207,-2.2319,-2.2867,-2.303,-2.2805,-2.2606,-2.2812,-2.3459,-2.2882,-2.2951,-2.368,-2.4026,-2.4436,-2.4905,-2.5133,-2.5283,-2.5244,-2.495,-2.4434,-2.3709,-2.2492,-2.1912,-2.1829,-2.1853,-2.2161,-2.262,-2.2607,-2.2937,-2.3384,-2.3358,-2.382,-2.4397,-2.4239,-2.4416,-2.4728,-2.4423,-2.3782,-2.2998,-2.2411,-2.1518,-2.0673,-2.0462,-1.9397,-1.8179,-1.7639,-1.6904,-1.6275,-1.6248,-1.5965,-1.594,-1.6771,-1.6481,-1.5913,-1.5333,-1.47,-1.2189,-0.5704,-0.3743,-0.0388,0.7481,1.0212,1.1722,1.2786,1.2176,1.1433,1.0893,0.8633,0.6283,0.409,0.1446,-0.1811,-0.579,-0.712,-0.8601,-1.0488,-1.2699,-1.4161,-1.4789,-1.5844,-1.6411,-1.6522,-1.6522,-1.6522,-1.6522,-1.6522,-1.6522,-1.8272,-1.9761,-2.0726,-2.1193,-2.0757,-2.0316,-2.0414,-1.8837,-1.7533,-1.8176,-1.8508,-1.8718,-1.9019,-1.9026,-1.9231,-2.0035,-1.9414,-1.9202,-2.0113,-2.0232,-2.0332,-2.0754,-2.0194,-2.0575,-2.2633,-2.1789,-2.1815,-2.3568,-2.3772,-2.3538,-2.2899,-2.3636,-2.3836,-2.3223,-2.3527,-2.3802,-2.4006,-2.4188,-2.455,-2.4991,-2.5203,-2.5303,-2.5303,-2.5088,-2.4689,-2.4143,-2.3191,-2.2402,-2.1885,-2.1885,-2.1821,-2.1727,-2.1741,-2.1944,-2.2341,-2.2851,-2.3273,-2.3639,-2.3863,-2.3879,-2.3774,-2.3759,-2.3099,-2.2074,-2.1148,-2.0263,-1.9563,-1.9212,-1.8501,-1.7779,-1.7608,-1.7117,-1.6583,-1.6212,-1.6053,-1.5866,-1.5727,-1.589,-1.579,-1.4708,-1.4364,-1.2889,-0.8592,-0.5694,-0.1965,0.4068,0.8853,1.161,1.1226,1.1082,1.027,0.8286,0.7211,0.5913,0.4015,0.1371,-0.1942,-0.6193,-0.7169,-0.856,-1.0806,-1.2457,-1.3952,-1.5174,-1.5732,-1.6151,-1.6522,-1.6522,-1.6522,-1.6522,-1.6522,-1.6522,-1.7289,-1.9159,-2.0227,-1.978,-1.9837,-1.9586,-1.7938,-1.6452,-1.5512,-1.6057,-1.6462,-1.698,-1.7927,-1.8112,-1.868,-2.0381,-1.9761,-1.9696,-2.1483,-2.1616,-2.1629,-2.2079,-2.185,-2.2427,-2.4188,-2.2705,-2.2512,-2.4533,-2.4608,-2.433,-2.3783,-2.4918,-2.4979,-2.3753,-2.4314,-2.4526,-2.4276,-2.4404,-2.4681,-2.5088,-2.5224,-2.5303,-2.5303,-2.5133,-2.493,-2.4579,-2.397,-2.33,-2.2634,-2.2567,-2.2279,-2.1836,-2.1613,-2.1736,-2.2113,-2.2422,-2.2596,-2.2703,-2.2919,-2.2765,-2.2461,-2.226,-2.1521,-2.0536,-1.9529,-1.8839,-1.8361,-1.8318,-1.8008,-1.7692,-1.7542,-1.7295,-1.692,-1.6192,-1.5906,-1.5688,-1.5213,-1.5463,-1.5415,-1.4142,-1.3823,-1.2975,-1.046,-0.734,-0.3681,0.0761,0.6213,0.9677,0.9334,0.977,0.9082,0.6363,0.6387,0.5701,0.355,0.1162,-0.2053,-0.6319,-0.7318,-0.8849,-1.1327,-1.2626,-1.4054,-1.5576,-1.5776,-1.6126,-1.671,-1.671,-1.671,-1.671,-1.671,-1.6625,-1.5332,-1.6032,-1.6637,-1.7682,-1.7036,-1.6256,-1.6733,-1.5024,-1.3332,-1.3347,-1.3535,-1.4047,-1.5056,-1.6211,-1.7636,-1.9434,-2.0487,-2.1423,-2.2242,-2.2909,-2.3351,-2.3351,-2.2591,-2.3198,-2.6031,-2.4034,-2.3321,-2.5241,-2.5593,-2.5942,-2.6353,-2.662,-2.6591,-2.6191,-2.5523,-2.5094,-2.4967,-2.4967,-2.5088,-2.5303,-2.5303,-2.5303,-2.5303,-2.5303,-2.5192,-2.4967,-2.4836,-2.4752,-2.47,-2.4484,-2.419,-2.3726,-2.2891,-2.2721,-2.281,-2.1737,-2.1424,-2.148,-2.0891,-2.0825,-2.0783,-1.9759,-1.8721,-1.788,-1.7811,-1.7284,-1.6992,-1.8219,-1.8598,-1.8359,-1.7519,-1.7432,-1.7279,-1.599,-1.5508,-1.5422,-1.5791,-1.5439,-1.4738,-1.3789,-1.2981,-1.162,-0.8998,-0.7632,-0.5513,-0.1433,0.1928,0.4888,0.7515,0.8145,0.7774,0.6165,0.6489,0.5483,0.2167,0.0707,-0.187,-0.6308,-0.7911,-0.957,-1.1576,-1.3611,-1.4971,-1.5576,-1.6194,-1.6752,-1.7271,-1.7271,-1.7271,-1.7271,-1.7271,-1.698,-1.5036,-1.5629,-1.5984,-1.6951,-1.6233,-1.4965,-1.3726,-1.2149,-1.0795,-1.0171,-1.0547,-1.1465,-1.2846,-1.4772,-1.6758,-1.8614,-1.9715,-2.0983,-2.2936,-2.3356,-2.3978,-2.5299,-2.5112,-2.5727,-2.7987,-2.5059,-2.4365,-2.7676,-2.7519,-2.7183,-2.7051,-2.8074,-2.7983,-2.6486,-2.6371,-2.6163,-2.5857,-2.5297,-2.5099,-2.5303,-2.5348,-2.5382,-2.539,-2.542,-2.5321,-2.5146,-2.5062,-2.4668,-2.4023,-2.4495,-2.3959,-2.2791,-2.2536,-2.2461,-2.24,-2.1213,-2.0929,-2.1152,-2.1495,-2.0842,-1.9827,-1.9311,-1.772,-1.5944,-1.5758,-1.5472,-1.5345,-1.606,-1.6913,-1.7517,-1.73,-1.7436,-1.7396,-1.6548,-1.6276,-1.5993,-1.521,-1.4679,-1.402,-1.2998,-1.1786,-1.0558,-0.9301,-0.804,-0.542,-0.0236,0.3094,0.5657,0.7445,0.7654,0.723,0.6131,0.6411,0.5329,0.2075,-0.0219,-0.2938,-0.6391,-0.8306,-1.0248,-1.2291,-1.4586,-1.6077,-1.6701,-1.7286,-1.7653,-1.7814,-1.7814,-1.7653,-1.7312,-1.7312,-1.698,-1.4355,-1.4822,-1.4907,-1.5485,-1.4532,-1.2954,-1.1078,-0.9379,-0.7992,-0.7381,-0.824,-0.9598,-1.1227,-1.3971,-1.6449,-1.771,-1.9086,-2.0648,-2.2401,-2.2946,-2.394,-2.5908,-2.6356,-2.7235,-2.9243,-2.706,-2.666,-2.946,-2.8437,-2.7844,-2.8216,-2.9094,-2.8736,-2.6915,-2.7339,-2.704,-2.5941,-2.5729,-2.5515,-2.536,-2.5427,-2.5454,-2.5454,-2.5468,-2.5401,-2.5263,-2.5195,-2.4773,-2.4138,-2.4611,-2.4171,-2.3147,-2.2725,-2.2675,-2.2642,-2.139,-2.0933,-2.0943,-2.104,-1.9982,-1.8437,-1.7562,-1.6105,-1.4518,-1.3871,-1.4089,-1.465,-1.5116,-1.617,-1.7114,-1.7147,-1.7301,-1.7248,-1.6445,-1.6277,-1.5928,-1.4649,-1.4171,-1.366,-1.2589,-1.161,-1.0624,-0.9683,-0.765,-0.4819,-0.0701,0.2565,0.5259,0.7097,0.7074,0.6646,0.6025,0.6318,0.5563,0.2988,-0.0275,-0.3445,-0.6391,-0.8502,-1.0598,-1.2882,-1.5168,-1.676,-1.7598,-1.7894,-1.8171,-1.8366,-1.8171,-1.7894,-1.7598,-1.7394,-1.698,-1.3348,-1.3598,-1.3418,-1.334,-1.2025,-1.0333,-0.8845,-0.6784,-0.5185,-0.5234,-0.6578,-0.832,-1.0158,-1.378,-1.6578,-1.684,-1.881,-2.0474,-2.0918,-2.196,-2.3405,-2.5404,-2.649,-2.7922,-2.9918,-2.9921,-3.0071,-3.0628,-2.8578,-2.8116,-2.9917,-2.9672,-2.8913,-2.766,-2.836,-2.7689,-2.5505,-2.6288,-2.6307,-2.5493,-2.5493,-2.5498,-2.5503,-2.5503,-2.5457,-2.5375,-2.5184,-2.5069,-2.4966,-2.4837,-2.4752,-2.4609,-2.3515,-2.3297,-2.3486,-2.2159,-2.134,-2.0763,-1.9611,-1.8253,-1.672,-1.4679,-1.3895,-1.3496,-1.2332,-1.3232,-1.4767,-1.5421,-1.6417,-1.7221,-1.7095,-1.7047,-1.6759,-1.577,-1.5488,-1.5184,-1.4229,-1.3964,-1.3615,-1.251,-1.2234,-1.1591,-0.9893,-0.6658,-0.3959,-0.2871,0.0209,0.3412,0.6297,0.6391,0.6148,0.5946,0.6275,0.5899,0.4392,0.0223,-0.3555,-0.65,-0.8605,-1.0861,-1.3453,-1.5409,-1.697,-1.8052,-1.8092,-1.8366,-1.8893,-1.8366,-1.8092,-1.8092,-1.7558,-1.698,-1.2289,-1.2516,-1.2539,-1.2461,-1.0991,-0.8851,-0.6229,-0.468,-0.3854,-0.4088,-0.5427,-0.75,-1.074,-1.3588,-1.5957,-1.7291,-1.9272,-2.0983,-2.2051,-2.3161,-2.4663,-2.6671,-2.7783,-2.9278,-3.1637,-3.1319,-3.1627,-3.313,-3.1426,-3.0306,-3.0306,-3.042,-3.0165,-2.9389,-2.836,-2.7941,-2.8199,-2.7252,-2.6334,-2.5493,-2.5535,-2.5562,-2.5502,-2.5547,-2.5451,-2.526,-2.5195,-2.4923,-2.4553,-2.4509,-2.4244,-2.3747,-2.2847,-2.2656,-2.2717,-2.1537,-2.0737,-2.0127,-1.9216,-1.7777,-1.6166,-1.4844,-1.3491,-1.2434,-1.3084,-1.3596,-1.4196,-1.5321,-1.6157,-1.6685,-1.6658,-1.633,-1.5899,-1.5648,-1.5215,-1.4716,-1.4003,-1.3585,-1.3128,-1.2348,-1.1221,-0.9852,-0.8176,-0.6923,-0.5672,-0.4234,-0.1961,0.0871,0.4599,0.5892,0.649,0.6449,0.5567,0.3984,0.1393,-0.194,-0.5101,-0.7979,-1.0027,-1.2043,-1.4135,-1.6065,-1.7409,-1.8092,-1.8092,-1.8366,-1.8893,-1.8366,-1.8092,-1.8092,-1.7558,-1.698,-1.1396,-1.1666,-1.1681,-1.1998,-1.0819,-0.9185,-0.7833,-0.703,-0.6659,-0.6871,-0.8227,-0.9926,-1.1921,-1.4393,-1.6394,-1.7323,-1.9159,-2.0986,-2.246,-2.3641,-2.5194,-2.7572,-2.9046,-3.0626,-3.2327,-3.246,-3.2855,-3.3882,-3.2334,-3.1367,-3.1316,-3.1186,-3.0655,-2.969,-2.9087,-2.8965,-2.9329,-2.8037,-2.6935,-2.6122,-2.6133,-2.5929,-2.5488,-2.5449,-2.5323,-2.5142,-2.5051,-2.4712,-2.4228,-2.4228,-2.3879,-2.3276,-2.2517,-2.2175,-2.1989,-2.1022,-2.0,-1.906,-1.8369,-1.7127,-1.5738,-1.4879,-1.3731,-1.2841,-1.3558,-1.3914,-1.4332,-1.5309,-1.6039,-1.6522,-1.6522,-1.6039,-1.5576,-1.5576,-1.5152,-1.4514,-1.3909,-1.3605,-1.316,-1.2177,-1.0785,-0.946,-0.8548,-0.7725,-0.6881,-0.5892,-0.4416,-0.2477,0.022,0.2375,0.3721,0.3721,0.3007,0.156,-0.0779,-0.35,-0.61,-0.8538,-1.0497,-1.2492,-1.4406,-1.6303,-1.7558,-1.8092,-1.8092,-1.8249,-1.8521,-1.8013,-1.7733,-1.7733,-1.6912,-1.6386,-1.0373,-1.0686,-1.0927,-1.1779,-1.1241,-1.0612,-1.1176,-1.1211,-1.1146,-1.1332,-1.2467,-1.3412,-1.3525,-1.5496,-1.7098,-1.723,-1.889,-2.0828,-2.2674,-2.3938,-2.5676,-2.8329,-3.0238,-3.1682,-3.2734,-3.3437,-3.3828,-3.3808,-3.2585,-3.204,-3.2559,-3.1943,-3.0867,-2.9404,-3.0118,-3.0119,-2.932,-2.8594,-2.7839,-2.6991,-2.6856,-2.6351,-2.5556,-2.529,-2.5108,-2.5001,-2.4827,-2.446,-2.3968,-2.3929,-2.3566,-2.3069,-2.2371,-2.184,-2.1332,-2.0635,-1.9426,-1.8013,-1.7477,-1.6608,-1.5576,-1.4835,-1.431,-1.3909,-1.3961,-1.4378,-1.4926,-1.5443,-1.5952,-1.6367,-1.6281,-1.582,-1.5353,-1.5353,-1.4926,-1.4329,-1.3768,-1.3579,-1.313,-1.1814,-1.061,-0.9769,-0.9666,-0.8567,-0.761,-0.7461,-0.6622,-0.5684,-0.4882,-0.232,-0.0607,-0.0609,-0.0775,-0.1386,-0.2563,-0.4897,-0.6998,-0.8725,-1.0597,-1.2511,-1.4541,-1.62,-1.7368,-1.7973,-1.7894,-1.7894,-1.7973,-1.7556,-1.7293,-1.7251,-1.623,-1.5745,-0.7958,-0.9136,-1.0441,-1.1387,-1.1944,-1.2082,-1.1453,-1.2032,-1.2809,-1.3178,-1.2974,-1.341,-1.5578,-1.5581,-1.5951,-1.7991,-1.9432,-2.1225,-2.3741,-2.5206,-2.7041,-2.969,-3.0441,-3.1721,-3.4149,-3.4249,-3.4352,-3.4885,-3.4665,-3.4098,-3.3217,-3.2916,-3.2011,-3.0345,-3.0452,-2.9843,-2.8298,-2.8805,-2.8585,-2.7551,-2.69,-2.6369,-2.5979,-2.5214,-2.4791,-2.4617,-2.457,-2.4246,-2.3738,-2.3464,-2.3106,-2.2746,-2.2392,-2.1794,-2.1086,-2.0926,-1.9682,-1.8092,-1.7973,-1.7244,-1.6151,-1.5039,-1.4606,-1.4652,-1.5129,-1.5353,-1.5443,-1.5576,-1.5688,-1.5644,-1.5152,-1.456,-1.4097,-1.4097,-1.3647,-1.321,-1.3065,-1.2589,-1.1765,-1.0407,-0.9961,-0.9614,-0.9054,-0.8262,-0.7664,-0.7676,-0.6966,-0.6416,-0.6253,-0.4758,-0.3721,-0.3694,-0.4754,-0.5415,-0.5289,-0.7128,-0.8632,-0.9452,-1.0881,-1.2752,-1.5215,-1.5684,-1.6403,-1.7435,-1.698,-1.698,-1.7435,-1.7411,-1.7333,-1.7124,-1.6952,-1.6497,-0.6216,-0.7683,-0.9305,-1.1064,-1.266,-1.396,-1.4588,-1.6026,-1.7262,-1.7385,-1.7127,-1.7048,-1.7718,-1.7105,-1.6999,-1.8419,-1.9916,-2.1941,-2.5032,-2.6736,-2.8735,-3.1533,-3.2406,-3.3508,-3.5312,-3.567,-3.5778,-3.5753,-3.5831,-3.5263,-3.3877,-3.3322,-3.265,-3.1834,-3.175,-3.1331,-3.0503,-3.0269,-2.9709,-2.8783,-2.7917,-2.7178,-2.6654,-2.6148,-2.5855,-2.5725,-2.5634,-2.5006,-2.4098,-2.4289,-2.371,-2.2618,-2.2294,-2.1762,-2.1067,-2.0543,-1.9555,-1.8535,-1.8573,-1.8061,-1.731,-1.6735,-1.5914,-1.5287,-1.5864,-1.5644,-1.5197,-1.5487,-1.5377,-1.5062,-1.4789,-1.4236,-1.3815,-1.3815,-1.3054,-1.2246,-1.19,-1.1283,-1.0559,-0.9909,-0.951,-0.9159,-0.8857,-0.8487,-0.8262,-0.8262,-0.7996,-0.761,-0.7235,-0.6578,-0.6036,-0.5626,-0.6192,-0.6519,-0.6282,-0.7495,-0.85,-0.9127,-1.0797,-1.2425,-1.4036,-1.4744,-1.5531,-1.6403,-1.617,-1.617,-1.6403,-1.6692,-1.6594,-1.6174,-1.5615,-1.5173,-0.443,-0.608,-0.7889,-1.0784,-1.3403,-1.5827,-1.7913,-1.998,-2.1477,-2.1406,-2.0992,-2.0401,-1.9709,-1.8927,-1.858,-1.9114,-2.0653,-2.2951,-2.6381,-2.8302,-3.0483,-3.3613,-3.463,-3.5531,-3.6633,-3.711,-3.7178,-3.6781,-3.6582,-3.5925,-3.4642,-3.3727,-3.3229,-3.3173,-3.2842,-3.2656,-3.2671,-3.1546,-3.0636,-2.9959,-2.8848,-2.7992,-2.7304,-2.6878,-2.6706,-2.6686,-2.6454,-2.5708,-2.4676,-2.5059,-2.4339,-2.2897,-2.2441,-2.1963,-2.1393,-2.0421,-1.9652,-1.9083,-1.903,-1.8647,-1.8204,-1.8204,-1.7254,-1.6248,-1.6741,-1.6092,-1.5291,-1.5613,-1.52,-1.4644,-1.4566,-1.4143,-1.3676,-1.3532,-1.2704,-1.1722,-1.0779,-1.0167,-0.9769,-0.9614,-0.9159,-0.8804,-0.8804,-0.8804,-0.8804,-0.8804,-0.8804,-0.8593,-0.7996,-0.7943,-0.7729,-0.7128,-0.6912,-0.6858,-0.6858,-0.7503,-0.8237,-0.8894,-1.041,-1.176,-1.2773,-1.3773,-1.463,-1.5398,-1.5471,-1.5517,-1.5517,-1.6127,-1.5947,-1.5135,-1.442,-1.3917,-0.1998,-0.3964,-0.6261,-1.0469,-1.4227,-1.7431,-1.9419,-2.1563,-2.3129,-2.331,-2.1596,-2.0341,-2.1195,-2.0223,-1.9593,-2.0599,-2.2221,-2.4428,-2.7659,-2.9672,-3.2142,-3.5672,-3.6024,-3.6708,-3.8546,-3.8016,-3.7716,-3.8083,-3.7117,-3.6193,-3.5516,-3.4496,-3.3886,-3.3839,-3.2804,-3.2243,-3.2165,-3.1335,-3.0791,-3.0499,-2.8894,-2.8012,-2.7705,-2.659,-2.6103,-2.6044,-2.574,-2.5499,-2.5323,-2.4619,-2.4194,-2.4005,-2.3218,-2.2645,-2.2132,-2.1494,-2.0621,-1.9745,-1.9189,-1.8647,-1.8204,-1.8204,-1.8081,-1.7959,-1.8053,-1.7483,-1.676,-1.6291,-1.5312,-1.4383,-1.42,-1.3834,-1.3387,-1.2753,-1.2547,-1.1973,-1.0229,-0.9873,-0.9614,-0.9001,-0.8857,-0.8804,-0.8804,-0.8804,-0.8804,-0.8804,-0.8804,-0.8752,-0.8699,-0.8699,-0.8699,-0.8593,-0.7996,-0.761,-0.761,-0.8262,-0.9001,-0.9651,-0.9858,-1.0797,-1.2725,-1.2918,-1.3538,-1.4744,-1.5124,-1.5348,-1.5348,-1.6311,-1.5999,-1.457,-1.498,-1.4384,0.0353,-0.2376,-0.5707,-0.9796,-1.4027,-1.7599,-1.9302,-2.146,-2.2994,-2.2458,-2.1846,-2.1566,-2.1889,-2.193,-2.1941,-2.1986,-2.3679,-2.5921,-2.8619,-3.0352,-3.289,-3.721,-3.7807,-3.8738,-4.1059,-4.1188,-4.0625,-3.9518,-3.7832,-3.6552,-3.5811,-3.491,-3.4399,-3.4369,-3.3752,-3.3398,-3.3387,-3.2181,-3.1506,-3.1415,-2.9533,-2.8845,-2.9151,-2.8227,-2.7816,-2.7816,-2.8116,-2.7379,-2.5924,-2.6175,-2.5413,-2.4067,-2.3414,-2.2677,-2.1863,-2.117,-2.0669,-2.0226,-1.9675,-1.9585,-1.9685,-1.9685,-1.9459,-1.9032,-1.8405,-1.7436,-1.6528,-1.6277,-1.5233,-1.42,-1.4135,-1.3951,-1.3552,-1.2412,-1.2124,-1.1709,-1.0118,-0.9771,-0.966,-0.9395,-0.9339,-0.9339,-0.9339,-0.9339,-0.9272,-0.9098,-0.9072,-0.9005,-0.8831,-0.8804,-0.8804,-0.8804,-0.854,-0.8368,-0.8368,-0.8646,-0.8977,-0.9423,-0.9853,-1.0619,-1.185,-1.2513,-1.3387,-1.4526,-1.495,-1.5185,-1.5207,-1.5796,-1.5389,-1.3941,-1.392,-1.3339,0.1153,-0.2213,-0.6167,-1.0063,-1.4559,-1.8297,-1.9325,-2.1265,-2.2623,-2.1955,-2.2468,-2.3018,-2.3201,-2.4193,-2.4757,-2.4148,-2.5765,-2.7819,-2.9982,-3.1456,-3.3808,-3.7853,-3.8498,-3.9567,-4.1958,-4.2575,-4.2213,-4.0652,-3.8567,-3.6986,-3.6182,-3.5161,-3.46,-3.4551,-3.4128,-3.3906,-3.3906,-3.248,-3.1769,-3.1769,-2.9894,-2.9253,-2.9753,-2.9097,-2.882,-2.8825,-2.9308,-2.8456,-2.6788,-2.7111,-2.6069,-2.4146,-2.3623,-2.2817,-2.1897,-2.1149,-2.1013,-2.1042,-2.0321,-2.0439,-2.0865,-2.0514,-2.0263,-1.9886,-1.8957,-1.7695,-1.6602,-1.6602,-1.5605,-1.4492,-1.4355,-1.4414,-1.4088,-1.2479,-1.2124,-1.1639,-1.0034,-0.9686,-0.9686,-0.9686,-0.9686,-0.9686,-0.9686,-0.9686,-0.9619,-0.9406,-0.9243,-0.911,-0.8965,-0.8858,-0.8804,-0.8804,-0.8804,-0.8804,-0.8804,-0.8804,-0.8925,-0.9163,-0.9673,-1.029,-1.109,-1.21,-1.304,-1.3941,-1.4663,-1.5014,-1.5014,-1.5169,-1.4659,-1.3508,-1.2981,-1.2351,-0.0105,-0.3858,-0.7893,-1.1641,-1.6319,-1.9961,-1.9976,-2.1248,-2.2452,-2.2582,-2.3542,-2.4647,-2.5511,-2.703,-2.7951,-2.7343,-2.8669,-3.0321,-3.1955,-3.3347,-3.5058,-3.7417,-3.771,-3.8539,-4.0625,-4.1247,-4.1464,-4.1303,-3.9185,-3.7541,-3.6721,-3.5235,-3.4345,-3.4213,-3.3561,-3.3196,-3.3196,-3.1912,-3.1299,-3.1299,-2.9743,-2.9001,-2.8971,-2.8606,-2.8414,-2.8384,-2.8223,-2.8096,-2.7984,-2.6871,-2.5649,-2.4448,-2.3944,-2.3235,-2.2523,-2.1845,-2.1904,-2.2217,-2.111,-2.1016,-2.1292,-2.0188,-2.0188,-2.0592,-1.9962,-1.8744,-1.7556,-1.7556,-1.6497,-1.5293,-1.4883,-1.5078,-1.4926,-1.3014,-1.258,-1.2075,-1.0147,-0.9686,-0.9686,-0.9686,-0.9686,-0.9686,-0.9686,-0.9686,-0.9686,-0.9686,-0.9432,-0.919,-0.9176,-0.8978,-0.8804,-0.8804,-0.8804,-0.8804,-0.8804,-0.8804,-0.8925,-0.9163,-0.919,-0.9632,-1.0664,-1.1511,-1.2236,-1.2913,-1.4164,-1.4785,-1.4785,-1.4424,-1.3909,-1.3394,-1.2565,-1.1911,-0.688,-0.9298,-1.2163,-1.5178,-1.8032,-2.0326,-2.123,-2.2656,-2.3739,-2.3647,-2.4928,-2.6188,-2.663,-2.8366,-2.9413,-2.8617,-2.9831,-3.1427,-3.3019,-3.4274,-3.6404,-4.015,-4.2179,-4.3534,-4.4159,-4.2838,-4.1895,-4.1844,-3.973,-3.7713,-3.6017,-3.5483,-3.4691,-3.3542,-3.3009,-3.2731,-3.2731,-3.1984,-3.1638,-3.1603,-2.9868,-2.9248,-2.9728,-2.8645,-2.7958,-2.759,-2.8543,-2.8146,-2.6784,-2.6553,-2.5693,-2.4388,-2.335,-2.2519,-2.1952,-2.1641,-2.2219,-2.3041,-2.1706,-2.1959,-2.2678,-2.1787,-2.1117,-2.0769,-2.0891,-1.9745,-1.8124,-1.7135,-1.6366,-1.582,-1.5684,-1.5977,-1.5761,-1.3785,-1.3269,-1.2739,-1.0759,-1.0349,-1.0349,-1.0349,-1.0349,-1.0349,-1.0349,-1.0349,-1.0207,-1.0007,-0.99,-0.9766,-0.9566,-0.8934,-0.8683,-0.9015,-0.8538,-0.8354,-0.8765,-0.8804,-0.9018,-0.9512,-0.9539,-1.0236,-1.1821,-1.2354,-1.313,-1.4183,-1.4296,-1.4384,-1.4384,-1.3865,-1.3427,-1.2882,-1.2083,-1.1533,0.0,-1.3414,-1.594,-1.7992,-2.009,-2.1866,-2.248,-2.3687,-2.4662,-2.4635,-2.6116,-2.7474,-2.775,-2.9494,-3.0697,-3.0135,-3.1718,-3.3438,-3.4761,-3.6132,-3.8081,-4.1094,-4.35,-4.4793,-4.4585,-4.3073,-4.207,-4.1919,-3.9629,-3.7473,-3.5684,-3.5163,-3.4178,-3.2699,-3.24,-3.223,-3.223,-3.1806,-3.1582,-3.1548,-3.0088,-2.9424,-2.937,-2.8522,-2.7662,-2.6879,-2.7892,-2.7569,0.0,-2.6192,-2.5348,-2.4047,-2.3028,-2.2192,-2.1584,-2.1291,-2.2031,-2.2989,-2.1655,-2.2146,-2.3218,-2.2046,-2.1368,-2.0936,-2.0785,-1.9569,-1.7984,-1.6691,-1.6198,-1.6094,-1.6269,-1.6523,-1.6198,-1.4251,-1.3799,-1.3268,-1.1168,-1.0728,-1.0688,-1.0645,-1.0618,-1.0658,-1.0701,-1.0698,-1.0528,-1.0461,-0.994,-0.9551,-0.9373,-0.848,-0.8013,-0.8384,-0.7892,-0.7779,-0.8134,-0.8639,-0.9218,-0.9806,-0.9846,-1.0384,-1.1646,-1.2226,-1.2893,-1.366,-1.3731,-1.3734,-1.3734,-1.3314,-1.2897,-1.2427,-1.1914,-1.1757,0.0,-1.6682,-1.9394,-2.0234,-2.2492,-2.4355,-2.3853,0.0,0.0,0.0,-2.721,-2.8624,-2.8935,-3.0535,-3.1823,-3.1884,-3.3913,-3.5876,-3.6951,-3.8747,-4.0153,-4.0726,-4.2241,-4.2988,-4.241,-4.2109,-4.1832,-4.1446,-3.8995,-3.6924,-3.5544,-3.4329,-3.3072,-3.1806,-3.177,-3.177,-3.177,-3.1321,-3.1157,-3.119,-3.0408,-2.9437,-2.8279,-2.8135,-2.7394,-2.623,-2.6385,-2.6404,-2.6329,-2.5757,-2.4733,-2.3478,-2.2893,-2.2138,-2.1373,-2.0894,-2.1452,-2.2298,-2.1135,-2.1863,-2.2978,-2.1313,-2.1091,-2.1194,-1.9793,-1.8585,-1.7456,-1.6517,-1.6174,-1.6211,-1.666,-1.6733,-1.6287,-1.4527,-1.4115,-1.3505,-1.1473,-1.1009,-1.0915,-1.0712,-1.0658,-1.0739,-1.0942,-1.0782,-1.0701,-1.0955,-0.9806,-0.8904,-0.883,-0.7836,-0.716,-0.7151,-0.7081,-0.7081,-0.7151,-0.8396,-0.9398,-0.9953,-1.0053,-1.0247,-1.0667,-1.1406,-1.1841,-1.1934,-1.2645,-1.2969,-1.294,-1.2725,-1.2401,-1.1944,-1.2225,-1.2371,-2.2021,0.0,-2.4053,-2.4011,-2.5111,-2.6129,0.0,0.0,0.0,0.0,0.0,0.0,0.0,-3.1904,-3.2632,-3.2725,-3.377,-3.5399,-3.7663,-4.1182,-4.3039,-4.1862,-4.296,-4.2992,-4.0883,-4.0726,-4.052,-3.9832,-3.8366,-3.651,-3.4294,-3.3841,-3.2967,-3.1385,-3.1351,-3.1351,-3.1351,-3.0692,-3.0649,-3.119,-2.9989,-2.9244,-2.8926,-2.7508,-2.6365,-2.5601,-2.5742,-2.5515,-2.5017,-2.4882,-2.4065,-2.2865,-2.218,-2.1556,-2.0939,-2.0752,-2.1485,-2.2495,-2.1604,-2.1941,-2.2587,-2.1644,-2.1247,-2.0842,-1.9562,-1.877,-1.8134,-1.757,-1.6979,-1.668,-1.7109,-1.6911,-1.6283,-1.49,-1.4018,-1.3119,-1.1655,-1.1142,-1.0969,-1.0902,-1.0889,-1.0915,-1.0982,-1.1116,-1.1169,-1.1009,-1.0666,-1.0174,-0.9261,-0.8355,-0.7681,-0.7449,-0.6812,-0.6688,-0.7368,-0.8125,-0.8764,-0.9089,-0.9736,-1.054,-1.1454,-1.1717,-1.2196,-1.3027,-1.2863,-1.2595,-1.2164,-1.2345,-1.2471,-1.262,-1.2852,-1.2999,-2.3645,-2.4259,-2.4902,-2.4813,-2.5614,-2.6326,0.0,0.0,0.0,0.0,0.0,0.0,0.0,0.0,-3.3955,-3.3616,-3.5615,-3.7732,-3.9199,-4.0974,-4.1865,-4.12,-4.166,-4.1721,-4.0858,-4.0551,-4.0021,-3.9036,-3.7514,-3.5752,-3.3771,-3.3142,-3.2331,-3.123,-3.0852,-3.0683,-3.0683,-3.0311,-3.0311,-3.0683,-2.9703,-2.8903,-2.8339,-2.7028,-2.5777,-2.4585,-2.4641,-2.4477,-2.4148,-2.4148,-2.3572,-2.2594,-2.1959,-2.1323,-2.0708,-2.0395,-2.0965,-2.1699,-2.0962,-2.1135,-2.1663,-2.1255,-2.1052,-2.0734,-1.9426,-1.8791,-1.8412,-1.7801,-1.7332,-1.6999,-1.7054,-1.6843,-1.6227,-1.4628,-1.3823,-1.3067,-1.1723,-1.1303,-1.1156,-1.1022,-1.0995,-1.1076,-1.1343,-1.141,-1.1369,-1.1223,-1.0397,-0.955,-0.8776,-0.7577,-0.688,-0.7095,-0.6693,-0.6857,-0.7862,-0.8587,-0.9068,-0.9209,-1.0123,-1.0975,-1.1581,-1.1646,-1.1862,-1.2482,-1.2208,-1.2054,-1.1864,-1.2158,-1.2452,-1.2835,-1.3066,-1.3213,-2.3117,-2.3552,-2.4134,-2.4521,-2.5533,-2.629,-2.5869,0.0,0.0,0.0,0.0,0.0,0.0,-3.3853,0.0,-3.4661,-3.7964,-4.0707,-4.1003,-4.0419,-3.9967,-4.0063,-4.0046,-4.0215,-4.0775,-4.0393,-3.9666,-3.8609,-3.6703,-3.5058,-3.3771,-3.2511,-3.1623,-3.123,-3.0581,-3.0209,-3.0108,-3.0108,-3.004,-2.9939,-2.945,-2.8567,-2.7345,-2.6698,-2.5404,-2.3759,-2.364,-2.361,-2.361,-2.361,-2.3165,-2.2407,-2.1904,-2.1209,-2.0464,-1.9987,-2.0092,-2.0416,-1.9687,-1.9833,-2.0307,-2.0275,-2.033,-2.0224,-1.9171,-1.8509,-1.8039,-1.7422,-1.7224,-1.7064,-1.6674,-1.6349,-1.572,-1.4099,-1.3608,-1.3158,-1.1749,-1.1463,-1.1356,-1.1102,-1.1062,-1.1236,-1.177,-1.1703,-1.1543,-1.1503,-1.0027,-0.8783,-0.8351,-0.7012,-0.6356,-0.6937,-0.7003,-0.7398,-0.8388,-0.9333,-0.9841,-0.9841,-1.0827,-1.1423,-1.1423,-1.1476,-1.149,-1.149,-1.1583,-1.1757,-1.2011,-1.2345,-1.2639,-1.297,-1.32,-1.3347,-2.266,-2.3435,-2.4437,-2.5805,-2.7165,-2.836,-2.9046,0.0,0.0,0.0,0.0,0.0,0.0,-3.4122,-3.4814,-3.6122,-3.8427,-4.0746,-4.2486,-4.3326,-4.2838,-4.0405,-4.0839,-4.028,-3.7623,-3.8301,-3.8603,-3.7764,-3.6375,-3.5058,-3.3771,-3.2511,-3.1623,-3.123,-3.1089,-3.0717,-3.0108,-3.0108,-2.9803,-2.9161,-2.9303,-2.8629,-2.7294,-2.6243,-2.5288,-2.4403,-2.3849,-2.361,-2.361,-2.361,-2.2904,-2.1848,-2.1738,-2.0993,-1.9936,-1.9836,-1.9585,-1.9107,-1.8019,-1.8015,-1.8494,-1.8286,-1.8126,-1.8024,-1.853,-1.7551,-1.637,-1.667,-1.6437,-1.6206,-1.6537,-1.5367,-1.4099,-1.3738,-1.3098,-1.243,-1.1948,-1.1597,-1.141,-1.1369,-1.1356,-1.1463,-1.181,-1.2037,-1.2078,-1.1837,-1.1545,-1.0981,-0.9949,-0.957,-0.9146,-0.8513,-0.8443,-0.8523,-0.8703,-0.982,-1.0444,-1.0444,-1.1045,-1.1423,-1.1423,-1.1663,-1.1797,-1.1797,-1.2291,-1.2647,-1.2688,-1.3173,-1.3467,-1.352,-1.3814,-1.3948,-2.2074,-2.2764,-2.3965,-2.5984,-2.801,-2.9494,-2.9632,0.0,0.0,0.0,0.0,0.0,0.0,-3.5699,-3.7815,-4.0392,-3.9945,-3.9967,-4.1876,-4.1079,-3.9965,-3.8959,-3.8809,-3.8469,-3.7792,-3.8052,-3.7854,-3.6927,-3.56,-3.4305,-3.3101,-3.2015,-3.1389,-3.119,-3.119,-3.0852,-3.0108,-3.0174,-3.0007,-2.96,-2.8706,-2.7977,-2.7304,-2.5785,-2.4717,-2.4059,-2.3729,-2.361,-2.361,-2.361,-2.2846,-2.171,-2.171,-2.0939,-1.9761,-1.9484,-1.8834,-1.802,-1.746,-1.7237,-1.7171,-1.7042,-1.6687,-1.6351,-1.6698,-1.6064,-1.5325,-1.5497,-1.5428,-1.524,-1.5056,-1.4175,-1.3249,-1.3013,-1.2339,-1.1797,-1.1663,-1.1516,-1.1423,-1.1423,-1.1557,-1.1757,-1.2051,-1.2211,-1.2211,-1.1917,-1.1508,-1.0895,-1.0206,-0.9672,-0.9394,-0.9463,-0.9533,-0.9799,-1.0431,-1.0991,-1.1357,-1.1497,-1.1755,-1.1904,-1.1904,-1.2024,-1.2171,-1.2419,-1.2688,-1.2903,-1.2999,-1.2768,-1.2713,-1.263,-1.2397,-1.2516,-2.1552,-2.2317,-2.3611,-2.5912,-2.8082,-2.9717,-2.9919,0.0,0.0,0.0,0.0,0.0,0.0,-3.6565,-3.9544,-4.2448,-4.0635,-3.9523,-4.1216,-3.9314,-3.7904,-3.8366,-3.7645,-3.7551,-3.8615,-3.8234,-3.7558,-3.6711,-3.5155,-3.3833,-3.2932,-3.1826,-3.119,-3.119,-3.119,-3.092,-3.0378,-3.0335,-3.0087,-2.9648,-2.8239,-2.7349,-2.6882,-2.5452,-2.4388,-2.361,-2.361,-2.361,-2.361,-2.348,-2.2711,-2.171,-2.1568,-2.0739,-1.9509,-1.8859,-1.7971,-1.7027,-1.6596,-1.6184,-1.5764,-1.5574,-1.5137,-1.4716,-1.452,-1.4397,-1.4239,-1.4098,-1.4061,-1.4002,-1.3701,-1.312,-1.2593,-1.2155,-1.1757,-1.141,-1.1343,-1.1383,-1.1423,-1.1423,-1.1663,-1.1957,-1.2251,-1.2305,-1.2225,-1.1997,-1.1454,-1.0947,-1.0667,-1.0055,-0.9842,-1.056,-1.0643,-1.1012,-1.1957,-1.1971,-1.2064,-1.2291,-1.2305,-1.2305,-1.2305,-1.2371,-1.243,-1.235,-1.2479,-1.2582,-1.2493,-1.1922,-1.1611,-1.1623,-1.0867,-1.1037,-2.1399,-2.2513,-2.3956,-2.6005,-2.7242,0.0,-3.1164,-3.1928,0.0,-3.2787,0.0,0.0,0.0,-3.5343,-3.7107,-3.858,-3.915,-4.0071,-4.1803,-4.1324,-4.064,-4.0244,-3.9882,-3.9386,-3.8762,-3.8234,-3.7857,-3.7783,-3.5576,-3.4133,-3.4067,-3.2256,-3.119,-3.119,-3.119,-3.1157,-3.1123,-3.0567,-2.9617,-2.8234,-2.836,-2.741,-2.5536,-2.5531,-2.4837,-2.361,-2.361,-2.361,-2.3566,-2.3009,-2.2346,-2.1663,-2.1064,-2.0135,-1.8908,-1.7849,-1.7027,-1.6221,-1.4617,-1.4015,-1.3841,-1.3023,-1.293,-1.2943,-1.2354,-1.247,-1.2735,-1.2347,-1.2177,-1.2289,-1.3149,-1.2643,-1.1925,-1.1543,-1.145,-1.1356,-1.1089,-1.1236,-1.1423,-1.1423,-1.1663,-1.1957,-1.2251,-1.2305,-1.2291,-1.2278,-1.2191,-1.2191,-1.2164,-1.2091,-1.2091,-1.2164,-1.2164,-1.2178,-1.2265,-1.2265,-1.2278,-1.2305,-1.2305,-1.2305,-1.2305,-1.2572,-1.2247,-1.1182,-1.1652,-1.1487,-1.0429,-1.057,-1.0671,-1.0671,-1.0605,-1.0605,-2.1055,-2.2315,-2.3763,-2.5149,0.0,0.0,0.0,-3.3629,-3.4203,-3.3336,-3.5029,0.0,-3.6922,-3.7357,-3.8209,-3.9962,-4.0123,-4.0476,-4.1895,-4.108,-4.0294,-4.0111,-3.9516,-3.9019,-3.8726,-3.7964,-3.7363,-3.7174,-3.5028,-3.3602,-3.3471,-3.2047,-3.119,-3.119,-3.0838,-3.0642,-3.0642,-2.9673,-2.8926,-2.8342,-2.8029,-2.7503,-2.6683,-2.5924,-2.5106,-2.4238,-2.4238,-2.3778,-2.3009,-2.2785,-2.2067,-2.1064,-2.0446,-1.9458,-1.8384,-1.7606,-1.648,-1.5222,-1.4435,-1.3448,-1.2567,-1.2695,-1.2189,-1.1526,-1.1662,-1.1776,-1.1888,-1.1898,-1.2056,-1.2163,-1.2402,-1.1874,-1.1343,-1.141,-1.1156,-1.0902,-1.0982,-1.1223,-1.1423,-1.1423,-1.1957,-1.2526,-1.2559,-1.2746,-1.2799,-1.2612,-1.2585,-1.2518,-1.2318,-1.2305,-1.2305,-1.2305,-1.2465,-1.2585,-1.2585,-1.2759,-1.2866,-1.2866,-1.2692,-1.2585,-1.2585,-1.2234,-1.1897,-1.1572,-1.1101,-1.069,-1.0484,-0.9798,-0.9551,-0.9669,-0.8966,-0.9033,-2.0829,-2.2115,-2.3606,0.0,0.0,0.0,-3.2384,-3.4275,-3.5265,-3.4535,-3.5792,-3.7279,-3.8079,-3.7813,-3.8079,-3.9876,-4.0014,-4.0151,-4.091,-4.0155,-3.9533,-3.9533,-3.9056,-3.8689,-3.8689,-3.7791,-3.7003,-3.6538,-3.4545,-3.3216,-3.2788,-3.1759,-3.119,-3.119,-3.0601,-3.0309,-3.0309,-2.9088,-2.8511,-2.8511,-2.7827,-2.7394,-2.7179,-2.6072,-2.5255,-2.4582,-2.4163,-2.3493,-2.2649,-2.2282,-2.1452,-2.0446,-1.9991,-1.9258,-1.8359,-1.7529,-1.6328,-1.5071,-1.4516,-1.3508,-1.2558,-1.286,-1.217,-1.1221,-1.1232,-1.1335,-1.1421,-1.1501,-1.186,-1.2238,-1.1944,-1.1503,-1.1129,-1.1142,-1.0848,-1.0672,-1.0808,-1.1156,-1.1423,-1.1423,-1.2064,-1.2714,-1.2808,-1.2919,-1.3026,-1.2906,-1.2893,-1.2812,-1.2612,-1.2585,-1.2585,-1.2585,-1.2772,-1.2893,-1.2893,-1.3093,-1.3213,-1.3213,-1.2765,-1.2505,-1.2415,-1.1547,-1.1035,-1.0773,-1.01,-0.9723,-0.9578,-0.8802,-0.8535,-0.8611,-0.7802,-0.7959,-2.0764,-2.2035,-2.3571,0.0,0.0,0.0,-3.1873,-3.3445,-3.494,-3.657,-3.5691,-3.5103,-3.6423,-3.6025,-3.5913,-3.7272,-3.8377,-3.898,-3.8713,-3.8689,-3.8689,-3.8689,-3.8689,-3.8689,-3.8689,-3.7791,-3.6856,-3.6041,-3.4387,-3.3085,-3.2347,-3.1596,-3.119,-3.119,-3.0601,-3.0309,-3.0309,-2.9088,-2.8511,-2.8463,-2.791,-2.723,-2.6572,-2.5914,-2.5255,-2.4552,-2.3256,-2.2694,-2.2558,-2.1334,-2.0396,-1.9811,-1.9811,-1.9484,-1.8809,-1.7491,-1.6676,-1.5997,-1.4619,-1.4087,-1.398,-1.3332,-1.2807,-1.2193,-1.0905,-1.0929,-1.1352,-1.0777,-1.1484,-1.2238,-1.2016,-1.165,-1.1289,-1.0701,-1.0631,-1.0618,-1.0631,-1.1022,-1.1423,-1.1423,-1.1904,-1.2398,-1.2782,-1.2835,-1.2866,-1.3173,-1.3213,-1.3213,-1.3213,-1.3213,-1.3213,-1.3213,-1.3213,-1.3213,-1.3213,-1.3213,-1.3213,-1.3213,-1.24,-1.1758,-1.1502,-1.0667,-0.962,-0.8446,-0.8715,-0.8367,-0.7373,-0.7373,-0.7455,-0.7604,-0.7604,-0.7604,-2.089,-2.1886,0.0,-2.5232,0.0,0.0,0.0,-3.2923,0.0,0.0,-3.4791,-3.3994,-3.5589,-3.5477,-3.5346,-3.5985,-3.6656,-3.7377,-3.8035,-3.7948,-3.8065,-3.8615,-3.8689,-3.8376,-3.7435,-3.6755,-3.5894,-3.4818,-3.3431,-3.251,-3.2307,-3.1199,-3.0559,-3.0559,-2.9585,-2.9042,-2.9042,-2.8271,-2.786,-2.786,-2.766,-2.723,-2.6572,-2.6393,-2.5438,-2.3926,-2.3583,-2.263,-2.1334,-2.0446,-1.9991,-1.9811,-1.9811,-1.9484,-1.8859,-1.7832,-1.7064,-1.6519,-1.579,-1.4984,-1.4369,-1.4684,-1.4145,-1.3401,-1.3475,-1.3608,-1.3707,-1.3838,-1.4078,-1.4094,-1.3138,-1.2837,-1.2412,-1.1193,-1.0715,-1.0685,-1.0822,-1.1156,-1.149,-1.169,-1.2385,-1.2973,-1.3053,-1.3414,-1.3654,-1.3534,-1.3507,-1.344,-1.324,-1.3213,-1.3213,-1.3213,-1.34,-1.3507,-1.3507,-1.3707,-1.3483,-1.2612,-1.166,-1.1348,-1.177,-1.0287,-0.9192,-0.8723,-0.823,-0.7795,-0.7373,-0.7482,-0.7604,-0.7746,-0.7746,-0.7807,-2.1095,-2.2115,0.0,-2.5126,-2.7273,-2.9282,-3.0467,0.0,0.0,0.0,-3.398,-3.3191,-3.4423,-3.4586,-3.4696,-3.5229,-3.5883,-3.6536,-3.7165,-3.7137,-3.7184,-3.7698,-3.7734,-3.7363,-3.6439,-3.5827,-3.5009,-3.3862,-3.2872,-3.2056,-3.1549,-3.075,-3.0225,-2.9935,-2.8996,-2.8511,-2.8511,-2.791,-2.761,-2.761,-2.7306,-2.6701,-2.5845,-2.5845,-2.5062,-2.3663,-2.2884,-2.173,-2.0346,-1.9965,-1.9811,-1.9811,-1.9811,-1.9405,-1.8824,-1.813,-1.7467,-1.689,-1.6497,-1.5908,-1.5407,-1.5832,-1.5305,-1.4559,-1.5033,-1.4951,-1.4761,-1.5126,-1.5226,-1.5035,-1.4277,-1.37,-1.2917,-1.1478,-1.1035,-1.0955,-1.1129,-1.1396,-1.165,-1.1837,-1.2492,-1.3066,-1.3186,-1.3601,-1.3895,-1.3828,-1.3814,-1.3761,-1.3587,-1.3561,-1.3561,-1.3561,-1.3721,-1.3814,-1.3814,-1.3659,-1.32,-1.2486,-1.1038,-1.0423,-1.086,-0.9328,-0.8504,-0.8403,-0.7873,-0.7584,-0.7543,-0.7638,-0.776,-0.7902,-0.7909,-0.7963,-2.1277,0.0,0.0,-2.5208,-2.7365,0.0,-2.9166,-3.1435,-3.3636,-3.3793,-3.2995,-3.2444,-3.2922,-3.3304,-3.3789,-3.454,-3.5402,-3.6009,-3.6127,-3.6164,-3.6193,-3.6303,-3.6274,-3.6017,-3.5471,-3.4938,-3.4163,-3.2988,-3.2417,-3.1582,-3.0384,-3.0225,-2.9892,-2.9316,-2.8748,-2.8415,-2.8415,-2.786,-2.753,-2.7419,-2.6724,-2.5747,-2.4509,-2.4566,-2.4143,-2.3312,-2.1502,-2.0346,-1.9811,-1.9811,-1.9811,-1.9811,-1.9811,-1.9396,-1.8857,-1.8487,-1.7962,-1.7381,-1.6931,-1.6855,-1.6855,-1.6855,-1.6305,-1.5761,-1.6042,-1.5545,-1.5069,-1.5354,-1.5455,-1.5455,-1.5384,-1.4503,-1.3299,-1.204,-1.16,-1.1436,-1.1463,-1.1677,-1.1877,-1.1904,-1.2385,-1.2879,-1.316,-1.348,-1.3774,-1.4041,-1.4108,-1.4122,-1.4095,-1.4108,-1.4122,-1.4122,-1.4122,-1.4135,-1.3992,-1.3163,-1.258,-1.2314,-1.0452,-0.9274,-0.9181,-0.8175,-0.7611,-0.7597,-0.7624,-0.7699,-0.7814,-0.7828,-0.7902,-0.8038,-0.7959,-0.7972,-2.1274,-2.1642,0.0,0.0,-2.8227,-2.9951,-2.9575,-2.9624,-2.9798,-3.016,-3.0498,-3.0814,-3.0903,-3.124,-3.1671,-3.2097,-3.2863,-3.3735,-3.4685,-3.5075,-3.5532,-3.6229,-3.5994,-3.5327,-3.4225,-3.3706,-3.2954,-3.1696,-3.1039,-3.06,-3.0309,-2.9406,-2.8842,-2.8701,-2.8076,-2.781,-2.781,-2.766,-2.7089,-2.6054,-2.5901,-2.4855,-2.3168,-2.3621,-2.2931,-2.135,-2.0448,-1.994,-1.9811,-1.9811,-1.9811,-1.9811,-1.9811,-1.9957,-2.0138,-1.916,-1.8939,-1.9029,-1.8087,-1.7734,-1.7734,-1.7734,-1.76,-1.7466,-1.7562,-1.7445,-1.7328,-1.7404,-1.7373,-1.7217,-1.6507,-1.6087,-1.5652,-1.459,-1.2862,-1.149,-1.173,-1.1824,-1.1944,-1.2171,-1.2692,-1.3133,-1.32,-1.3641,-1.4015,-1.4082,-1.4282,-1.4349,-1.4122,-1.4282,-1.4429,-1.4429,-1.4429,-1.4073,-1.329,-1.3081,-1.2111,-1.0104,-0.9648,-0.9092,-0.8144,-0.7856,-0.7712,-0.7604,-0.7828,-0.7902,-0.7814,-0.7929,-0.8011,-0.8038,-0.8045,-0.8045,-2.1422,0.0,0.0,-2.4783,0.0,-2.8184,-2.7947,-2.7742,-2.77,-2.7924,-2.8456,-2.886,-2.886,-2.9509,-3.0212,-3.0756,-3.1518,-3.2437,-3.3665,-3.3996,-3.4324,-3.4761,-3.4582,-3.3992,-3.2897,-3.2613,-3.1998,-3.0838,-3.0477,-3.0021,-2.9451,-2.8842,-2.8367,-2.8107,-2.776,-2.7408,-2.71,-2.71,-2.6387,-2.5076,-2.471,-2.3548,-2.1769,-2.2103,-2.1579,-2.0295,-1.994,-1.9811,-1.9811,-1.9811,-1.9811,-1.9811,-1.9811,-1.9927,-2.0037,-1.9204,-1.9039,-1.904,-1.8235,-1.8008,-1.8008,-1.8008,-1.8008,-1.8008,-1.8008,-1.8008,-1.8008,-1.8008,-1.8008,-1.7872,-1.7423,-1.6922,-1.6489,-1.6,-1.4175,-1.2516,-1.2756,-1.2439,-1.2158,-1.2452,-1.2893,-1.3253,-1.34,-1.3788,-1.4188,-1.4469,-1.4509,-1.4469,-1.4309,-1.4429,-1.4469,-1.4322,-1.4442,-1.4313,-1.3735,-1.2871,-1.1703,-1.0398,-0.9364,-0.8503,-0.7923,-0.7923,-0.7889,-0.7814,-0.7963,-0.7997,-0.7923,-0.7997,-0.8038,-0.8038,-0.7952,-0.7959,0.0,0.0,-2.2149,-2.3546,-2.4823,0.0,-2.5709,-2.6071,-2.6419,-2.6419,-2.6856,-2.721,-2.721,-2.8172,-2.9188,-2.9906,-3.0773,-3.1742,-3.2813,-3.3045,-3.3075,-3.3075,-3.3014,-3.2663,-3.188,-3.1733,-3.1321,-3.0393,-3.0192,-2.9673,-2.8559,-2.8415,-2.8155,-2.761,-2.761,-2.7255,-2.6496,-2.6496,-2.5753,-2.4173,-2.3231,-2.1973,-2.0542,-2.0578,-2.0295,-1.9811,-1.9811,-1.9811,-1.9811,-1.9911,-1.9962,-1.9962,-2.0062,-2.0118,-1.9969,-1.9326,-1.8986,-1.8828,-1.8208,-1.8008,-1.8027,-1.8086,-1.8066,-1.8027,-1.8086,-1.8066,-1.8008,-1.8008,-1.8008,-1.8008,-1.8008,-1.7423,-1.6784,-1.6627,-1.5275,-1.3958,-1.3753,-1.2994,-1.2452,-1.2768,-1.308,-1.344,-1.3681,-1.4015,-1.4389,-1.4816,-1.4763,-1.4629,-1.4536,-1.4563,-1.4509,-1.4269,-1.4456,-1.4542,-1.4369,-1.2847,-1.1847,-1.1562,-0.9714,-0.8627,-0.8627,-0.8428,-0.8329,-0.8329,-0.8137,-0.8038,-0.8038,-0.8038,-0.8038,-0.8038,-0.7959,-0.7965,0.0,0.0,-2.3022,0.0,-2.3583,-2.4436,0.0,0.0,-2.5411,-2.5411,-2.6142,-2.6791,-2.6791,-2.7702,-2.8624,-2.9073,-3.0384,-3.1485,-3.1917,-3.2332,-3.2565,-3.2565,-3.223,-3.1951,-3.1808,-3.147,-3.0998,-3.0351,-2.9805,-2.9225,-2.8559,-2.8008,-2.766,-2.761,-2.761,-2.7255,-2.6496,-2.6496,-2.5261,-2.2831,-2.1094,-2.0166,-1.9911,-1.9939,-1.9888,-1.9811,-1.9811,-1.9811,-1.9836,-2.0338,-2.0618,-2.0643,-2.1066,-2.1537,-2.1749,-2.0228,-1.995,-2.0116,-1.8509,-1.8008,-1.8066,-1.8437,-1.8301,-1.8086,-1.8437,-1.8301,-1.8008,-1.8008,-1.8008,-1.8008,-1.8008,-1.794,-1.7579,-1.6784,-1.5959,-1.5024,-1.3943,-1.3163,-1.2768,-1.2808,-1.3414,-1.3975,-1.4015,-1.4482,-1.479,-1.4603,-1.4977,-1.5097,-1.4589,-1.475,-1.4897,-1.4856,-1.4883,-1.4644,-1.4063,-1.3683,-1.3058,-1.19,-1.1541,-1.1365,-1.1365,-1.0288,-0.9706,-0.9706,-0.8627,-0.8038,-0.8038,-0.8038,-0.8038,-0.8038,-0.8045,-0.8045,-2.2537,-2.2616,-2.2756,0.0,-2.3065,-2.3777,-2.4187,-2.474,-2.521,-2.5208,-2.5848,-2.6418,-2.6345,-2.7266,-2.8254,-2.8892,-3.011,-3.1184,-3.1704,-3.2196,-3.24,-3.2127,-3.1915,-3.1588,-3.1016,-3.0804,-3.0309,-2.9361,-2.9042,-2.8654,-2.8057,-2.776,-2.761,-2.761,-2.7203,-2.6602,-2.5906,-2.5467,-2.4175,-2.1995,-2.0496,-1.9811,-1.9811,-2.0137,-2.0112,-1.9811,-1.9811,-1.9987,-2.0313,-2.0618,-2.0894,-2.1142,-2.1393,-2.182,-2.2172,-2.1303,-2.0974,-2.0841,-1.9912,-1.9204,-1.875,-1.8945,-1.8711,-1.8437,-1.8867,-1.8711,-1.8359,-1.8359,-1.8359,-1.822,-1.7572,-1.7432,-1.7257,-1.6448,-1.5658,-1.4911,-1.4321,-1.3586,-1.3053,-1.3213,-1.3828,-1.4389,-1.4549,-1.479,-1.503,-1.5217,-1.519,-1.5124,-1.503,-1.4977,-1.4963,-1.4963,-1.511,-1.5114,-1.479,-1.4183,-1.368,-1.3102,-1.2339,-1.195,-1.195,-1.1365,-1.1072,-1.1072,-0.9015,-0.8038,-0.8038,-0.8038,-0.8038,-0.8038,-0.8038,-0.8038,0.0,0.0,-2.2522,-2.2237,-2.2744,-2.3371,0.0,-2.4292,-2.4758,-2.4772,-2.529,-2.5693,-2.5616,-2.6866,-2.8138,-2.889,-3.0106,-3.1148,-3.1591,-3.2056,-3.2127,-3.1696,-3.1376,-3.093,-3.036,-2.9985,-2.9436,-2.8606,-2.8511,-2.8222,-2.761,-2.761,-2.761,-2.761,-2.6864,-2.6176,-2.5412,-2.4216,-2.2871,-2.1468,-2.0338,-1.9886,-2.0037,-2.0464,-2.0514,-2.0238,-2.0238,-2.0313,-2.0489,-2.0916,-2.1242,-2.1518,-2.1794,-2.2146,-2.2455,-2.2187,-2.1859,-2.1508,-2.0995,-2.0339,-1.966,-1.9487,-1.916,-1.8887,-1.9316,-1.9141,-1.8809,-1.8809,-1.8809,-1.8576,-1.7768,-1.7406,-1.6967,-1.6237,-1.5389,-1.4702,-1.4388,-1.3784,-1.34,-1.3694,-1.4229,-1.4683,-1.483,-1.503,-1.5311,-1.5671,-1.5351,-1.5124,-1.5271,-1.5097,-1.4963,-1.4963,-1.5217,-1.5431,-1.5498,-1.4823,-1.4364,-1.4364,-1.3392,-1.292,-1.292,-1.2619,-1.2425,-1.2425,-1.019,-0.9023,-0.9023,-0.9023,-0.9023,-0.9023,-0.9023,-0.8825,0.0,-2.2648,0.0,-2.1801,-2.2463,-2.3171,-2.259,-2.304,-2.3515,-2.3607,-2.4024,-2.4401,-2.4441,-2.6502,-2.8372,-2.8921,-3.0553,-3.1625,-3.1274,-3.1582,-3.1696,-3.1308,-3.0162,-2.9674,-3.0243,-2.9231,-2.8494,-2.8497,-2.8511,-2.8222,-2.761,-2.761,-2.761,-2.761,-2.6864,-2.6176,-2.5412,-2.2919,-2.1599,-2.1468,-2.0338,-2.0087,-2.0668,-2.0693,-2.0941,-2.1393,-2.1393,-2.0815,-1.9962,-2.1568,-2.192,-2.1594,-2.2648,-2.3015,-2.303,-2.2742,-2.2638,-2.2474,-2.1203,-2.0765,-2.0615,-2.0044,-1.959,-1.9336,-1.9746,-1.959,-1.9258,-1.9258,-1.9258,-1.9258,-1.9185,-1.8433,-1.745,-1.6455,-1.5654,-1.4801,-1.3858,-1.3614,-1.3707,-1.4001,-1.4536,-1.4856,-1.4589,-1.5231,-1.5698,-1.5458,-1.5391,-1.5284,-1.5017,-1.4977,-1.4963,-1.4963,-1.5217,-1.5511,-1.5778,-1.5724,-1.5737,-1.5737,-1.5642,-1.5629,-1.5629,-1.4459,-1.3776,-1.3776,-1.2425,-1.1658,-1.1658,-1.1658,-1.1658,-1.1658,-1.1658,-1.1072,0.0,0.0,0.0,-2.3627,-2.3406,-2.3244,-2.3446,-2.3148,-2.3144,-2.3985,-2.4047,-2.404,-2.4398,-2.6118,-2.7722,-2.8377,-3.0177,-3.1463,-3.1206,-3.1806,-3.1844,-3.0764,-2.9847,-2.9237,-2.9162,-2.8365,-2.7829,-2.7898,-2.791,-2.781,-2.761,-2.761,-2.761,-2.761,-2.6443,-2.5161,-2.393,-2.2661,-2.1845,-2.1468,-2.0715,-2.0263,-2.0137,-2.0865,-2.1117,-2.1016,-2.2071,-2.2121,-2.1468,-2.2071,-2.2397,-2.2598,-2.2975,-2.3065,-2.314,-2.3443,-2.3329,-2.2944,-2.2291,-2.1811,-2.1428,-2.0655,-2.0039,-1.9766,-2.0195,-2.0039,-1.9687,-1.9687,-1.9687,-1.937,-1.7975,-1.7363,-1.6718,-1.5227,-1.4653,-1.4379,-1.4247,-1.4055,-1.4015,-1.4309,-1.4536,-1.4763,-1.503,-1.5351,-1.5578,-1.5658,-1.5511,-1.5431,-1.5511,-1.5351,-1.5311,-1.5498,-1.5618,-1.5712,-1.5818,-1.5832,-1.5832,-1.5832,-1.5832,-1.5832,-1.5832,-1.5343,-1.514,-1.514,-1.4663,-1.3596,-1.195,-1.195,-1.195,-1.195,-1.195,-1.1727,-2.4259,0.0,0.0,0.0,-2.4255,-2.3927,-2.3765,-2.343,-2.3303,-2.3948,-2.3621,-2.3364,-2.3775,-2.4805,-2.5975,-2.7271,-2.9413,-3.0907,-3.0866,-3.1487,-3.1591,-3.0444,-2.8971,-2.8144,-2.8466,-2.7316,-2.6831,-2.755,-2.761,-2.761,-2.761,-2.761,-2.7357,-2.6864,-2.5659,-2.4394,-2.3125,-2.2598,-2.202,-2.1468,-2.0995,-2.0564,-2.0388,-2.1142,-2.1493,-2.1568,-2.2648,-2.2723,-2.2071,-2.2447,-2.2698,-2.2874,-2.299,-2.3065,-2.314,-2.3778,-2.3924,-2.3718,-2.2958,-2.2593,-2.2264,-2.1011,-2.0371,-2.0195,-2.0469,-2.0371,-2.0137,-2.0137,-2.0137,-1.9812,-1.8386,-1.7429,-1.6412,-1.4656,-1.4162,-1.4135,-1.4335,-1.4229,-1.4202,-1.4589,-1.4669,-1.483,-1.5311,-1.5471,-1.5605,-1.5805,-1.5578,-1.5471,-1.5658,-1.5511,-1.5471,-1.5658,-1.5765,-1.5832,-1.5832,-1.5832,-1.5832,-1.5832,-1.5832,-1.5832,-1.5832,-1.5832,-1.5832,-1.5832,-1.5832,-1.4949,-1.321,-1.321,-1.3255,-1.3333,-1.3244,-1.3138,0.0,0.0,0.0,-2.418,-2.4833,-2.5184,-2.3516,-2.3627,-2.3862,-2.3446,-2.285,-2.2485,-2.2615,-2.2574,-2.3304,-2.5638,-2.8229,-2.9946,-3.0074,-3.0615,-3.079,-3.0318,-2.7494,-2.6334,-2.8182,-2.6158,-2.5491,-2.739,-2.756,-2.761,-2.758,-2.753,-2.6857,-2.5412,-2.4627,-2.3846,-2.3075,-2.2548,-2.202,-2.1468,-2.097,-2.0941,-2.1443,-2.1468,-2.2046,-2.3015,-2.304,-2.2498,-2.1619,-2.2698,-2.2824,-2.2397,-2.2924,-2.3065,-2.314,-2.3778,-2.433,-2.4623,-2.3167,-2.3028,-2.3158,-2.1221,-2.0566,-2.0566,-2.0566,-2.0566,-2.0566,-2.0566,-2.0586,-2.0586,-2.0528,-1.8895,-1.6794,-1.496,-1.4309,-1.4095,-1.4108,-1.4108,-1.4269,-1.4856,-1.4963,-1.5057,-1.5351,-1.5631,-1.5818,-1.5832,-1.5578,-1.5404,-1.5404,-1.5404,-1.5404,-1.5404,-1.5658,-1.5832,-1.5832,-1.5832,-1.5832,-1.5832,-1.5832,-1.5832,-1.5832,-1.5832,-1.5832,-1.5832,-1.5832,-1.5832,-1.5832,-1.5832,-1.5992,-1.6259,-1.5992,-1.5332,-2.4872,0.0,0.0,0.0,0.0,0.0,-2.5008,-2.4431,-2.4151,-2.4491,-2.38,-2.3091,-2.3151,-2.3166,-2.3357,-2.3903,-2.6535,-2.8715,-2.9403,-2.9955,-2.9922,-2.8958,-2.6842,-2.5527,-2.5581,-2.5379,-2.5503,-2.6134,-2.706,-2.74,-2.6871,-2.5973,-2.5063,-2.4166,-2.3447,-2.2682,-2.1945,-2.1794,-2.1443,-2.0945,-2.0794,-2.0514,-2.0288,-2.0715,-2.1267,-2.197,-2.2372,-2.2598,-2.2698,-2.294,-2.299,-2.2865,-2.3015,-2.3065,-2.309,-2.3326,-2.3979,-2.4573,-2.2754,-2.2737,-2.3158,-2.1221,-2.0566,-2.0566,-2.0566,-2.0566,-2.0566,-2.0566,-2.0801,-2.0694,-1.9401,-1.717,-1.5233,-1.494,-1.4456,-1.4202,-1.4629,-1.4549,-1.4509,-1.4897,-1.4963,-1.5124,-1.5618,-1.5605,-1.5591,-1.5792,-1.5578,-1.5471,-1.5685,-1.5524,-1.5471,-1.5685,-1.5778,-1.5832,-1.5832,-1.5832,-1.5832,-1.5832,-1.5832,-1.5832,-1.5832,-1.5832,-1.5832,-1.5832,-1.5832,-1.5832,-1.5832,-1.6046,-1.6192,-1.6286,-1.662,-1.6619,-2.4831,-2.4696,-2.4883,-2.5209,0.0,0.0,-2.5084,-2.4632,-2.4331,-2.4253,-2.3548,-2.2902,-2.2959,-2.2769,-2.2645,-2.2855,-2.4857,-2.6886,-2.8244,-2.8705,-2.8538,-2.7516,-2.5416,-2.4107,-2.4313,-2.3986,-2.4382,-2.5891,-2.6264,-2.6199,-2.5845,-2.5027,-2.4259,-2.3526,-2.3063,-2.2501,-2.1845,-2.182,-2.1443,-2.0718,-2.0395,-2.0196,-2.0188,-2.0221,-2.0667,-2.1518,-2.182,-2.2146,-2.2447,-2.2447,-2.2723,-2.3065,-2.3065,-2.3065,-2.3065,-2.3065,-2.343,-2.375,-2.2389,-2.2209,-2.2379,-2.1028,-2.0566,-2.0605,-2.0781,-2.084,-2.0879,-2.1074,-2.1309,-2.1009,-1.9058,-1.7336,-1.598,-1.5341,-1.479,-1.4549,-1.4897,-1.4923,-1.4937,-1.511,-1.515,-1.5297,-1.5752,-1.5685,-1.5631,-1.5805,-1.5685,-1.5631,-1.5805,-1.5685,-1.5645,-1.5805,-1.5832,-1.5832,-1.5832,-1.5832,-1.5832,-1.5832,-1.5832,-1.5832,-1.5832,-1.5832,-1.5832,-1.5832,-1.5832,-1.5652,-1.5291,-1.5953,-1.6339,-1.6473,-1.7061,-1.7261,-2.451,-2.4469,-2.4833,-2.4833,-2.5611,0.0,-2.4582,-2.4607,-2.4607,-2.3552,-2.2924,-2.2548,-2.2422,-2.1995,-2.1893,-2.2499,-2.3582,-2.4911,-2.6731,-2.7116,-2.6828,-2.5936,-2.3655,-2.2495,-2.3502,-2.2305,-2.2685,-2.5703,-2.5092,-2.4606,-2.4664,-2.4367,-2.3906,-2.3276,-2.3083,-2.2723,-2.2221,-2.2106,-2.1581,-2.0557,-1.9824,-1.9775,-2.0349,-1.9672,-2.0072,-2.1281,-2.1281,-2.1362,-2.1493,-2.1493,-2.2071,-2.289,-2.2965,-2.299,-2.299,-2.298,-2.2836,-2.258,-2.1891,-2.1566,-2.1282,-2.0735,-2.0527,-2.0644,-2.1094,-2.123,-2.1328,-2.1816,-2.187,-2.1343,-1.9536,-1.8649,-1.7874,-1.6085,-1.5295,-1.4977,-1.5003,-1.5217,-1.5391,-1.5391,-1.5418,-1.5524,-1.5792,-1.5832,-1.5832,-1.5832,-1.5805,-1.5792,-1.5832,-1.5805,-1.5792,-1.5832,-1.5832,-1.5832,-1.5832,-1.5832,-1.5845,-1.5872,-1.5872,-1.5872,-1.5872,-1.5872,-1.5858,-1.5832,-1.5668,-1.5155,-1.4343,-1.5357,-1.6004,-1.6302,-1.6912,-1.7016,-2.497,-2.4822,-2.4833,-2.4833,-2.5285,0.0,-2.5937,-2.5711,-2.5259,-2.4632,-2.4406,-2.4054,-2.315,-2.2899,-2.2975,-2.3609,-2.4041,-2.4641,-2.5503,-2.5712,-2.5351,-2.4419,-2.2974,-2.1638,-2.074,-2.1872,-2.2546,-2.2337,-2.3275,-2.4096,-2.4488,-2.3553,-2.2821,-2.2615,-2.2056,-2.1769,-2.1644,-2.0994,-2.037,-1.9799,-1.894,-1.8453,-1.8208,-1.8043,-1.8728,-1.9968,-1.9968,-2.0545,-2.1493,-2.1493,-2.1619,-2.1845,-2.2297,-2.2472,-2.2405,-2.2226,-2.2399,-2.2468,-2.0815,-2.0794,-2.1219,-2.0301,-2.0273,-2.0644,-2.1094,-2.123,-2.1406,-2.2168,-2.1684,-2.0966,-2.0802,-1.91,-1.7417,-1.7228,-1.6071,-1.503,-1.5257,-1.5351,-1.5391,-1.5391,-1.5578,-1.5765,-1.5818,-1.5832,-1.5832,-1.5832,-1.5631,-1.5565,-1.5805,-1.5618,-1.5565,-1.5805,-1.5832,-1.5832,-1.5832,-1.5832,-1.5939,-1.6166,-1.6192,-1.6192,-1.6192,-1.6192,-1.6072,-1.5832,-1.4874,-1.3945,-1.3007,-1.336,-1.3656,-1.3997,-1.4083,-1.4105,-2.5123,-2.5103,-2.5209,-2.5209,-2.5611,0.0,0.0,-2.5812,-2.536,-2.4582,-2.4406,-2.4155,-2.324,-2.3065,-2.3326,-2.3904,-2.3806,-2.4008,-2.4918,-2.4523,-2.3838,-2.2892,-2.1534,-2.0353,-1.9661,-2.029,-2.0771,-2.0827,-2.2579,-2.3469,-2.3091,-2.2685,-2.2459,-2.2352,-2.2318,-2.2046,-2.1493,-2.0919,-2.0084,-1.9119,-1.8203,-1.7728,-1.7578,-1.7191,-1.7601,-1.8626,-1.8626,-1.8931,-1.9579,-1.9579,-1.9579,-1.965,-2.0864,-2.1354,-2.1311,-2.104,-2.0808,-2.0593,-2.0084,-1.9947,-1.997,-1.9915,-2.0059,-2.041,-2.1289,-2.1855,-2.2266,-2.2695,-2.2361,-2.1683,-2.0622,-1.9348,-1.8086,-1.6987,-1.6071,-1.5431,-1.5578,-1.5618,-1.5618,-1.5618,-1.5725,-1.5832,-1.5832,-1.5832,-1.5832,-1.5832,-1.5712,-1.5658,-1.5805,-1.5698,-1.5671,-1.5818,-1.5832,-1.5832,-1.5832,-1.5965,-1.6112,-1.6259,-1.6406,-1.642,-1.6286,-1.6273,-1.5835,-1.4854,-1.3766,-1.2689,-1.1465,-1.113,-1.18,-1.3436,-1.3436,-1.3436,-2.5279,-2.5285,-2.5586,-2.5586,-2.5963,-2.6189,0.0,0.0,0.0,-2.4481,-2.4305,-2.4104,-2.3427,-2.3401,-2.3602,-2.4079,-2.3778,-2.3803,-2.4833,-2.3691,-2.2566,-2.1855,-2.0335,-1.9372,-1.9561,-1.9207,-1.9448,-2.0533,-2.2246,-2.2857,-2.1957,-2.2325,-2.2519,-2.2447,-2.2799,-2.2548,-2.1644,-2.1136,-2.0121,-1.8666,-1.7679,-1.7169,-1.706,-1.6469,-1.656,-1.7258,-1.7258,-1.7379,-1.7578,-1.7578,-1.7578,-1.7778,-1.9389,-2.005,-1.9982,-1.9636,-1.9098,-1.8596,-1.9235,-1.9032,-1.8769,-1.9531,-2.0019,-2.0508,-2.166,-2.2539,-2.3144,-2.3144,-2.3144,-2.2599,-2.0404,-1.9679,-1.8948,-1.6655,-1.6008,-1.5832,-1.5832,-1.5832,-1.5832,-1.5832,-1.5832,-1.5832,-1.5832,-1.5832,-1.5832,-1.5832,-1.5832,-1.5832,-1.5832,-1.5832,-1.5832,-1.5832,-1.5832,-1.5832,-1.5832,-1.6099,-1.6299,-1.6353,-1.6633,-1.6687,-1.6446,-1.6183,-1.5218,-1.3568,-1.2537,-1.1426,-1.008,-0.9493,-1.0378,-1.272,-1.2646,-1.2665,-2.5511,-2.5561,-2.5586,-2.5586,-2.5636,-2.5812,-2.6264,0.0,-2.5561,-2.5435,0.0,-2.5109,-2.4079,0.0,0.0,-2.4707,-2.4682,-2.4833,-2.5435,-2.3522,-2.2071,-2.2004,-2.0376,-1.9624,-2.0512,-2.0769,-2.1152,-2.1782,-2.1931,-2.2356,-2.3086,-2.3139,-2.3114,-2.3025,-2.2623,-2.2347,-2.2221,-2.0943,-1.9703,-1.8533,-1.7621,-1.6444,-1.5123,-1.5012,-1.5381,-1.6072,-1.6072,-1.6689,-1.7578,-1.7578,-1.7578,-1.7678,-1.8431,-1.8714,-1.8644,-1.8304,-1.8131,-1.803,-1.78,-1.8076,-1.864,-1.9199,-2.041,-2.1758,-2.2285,-2.2773,-2.3144,-2.3144,-2.3144,-2.2775,-2.148,-2.0296,-1.9131,-1.7777,-1.6669,-1.5832,-1.5832,-1.5832,-1.5832,-1.5832,-1.5832,-1.5832,-1.5832,-1.5832,-1.5832,-1.5832,-1.5832,-1.5832,-1.5832,-1.5832,-1.5832,-1.5832,-1.5832,-1.5832,-1.5832,-1.6099,-1.638,-1.6647,-1.6941,-1.7088,-1.7048,-1.5657,-1.4082,-1.2432,-1.1435,-1.0273,-0.8897,-0.9113,-0.9377,-0.9716,-0.986,-0.9809,-2.6088,-2.6339,-2.649,-2.6189,-2.6339,-2.6565,-2.6533,-2.6264,-2.6013,-2.5661,0.0,0.0,0.0,0.0,0.0,0.0,-2.5008,-2.5134,-2.5988,-2.4218,-2.2661,-2.2047,-2.0939,-2.0323,-2.0794,-2.1319,-2.1307,-2.0362,-2.1228,-2.1837,-2.1956,-2.2419,-2.284,-2.3125,-2.284,-2.2498,-2.1845,-2.1064,-1.9993,-1.8611,-1.7778,-1.6701,-1.541,-1.5111,-1.4935,-1.4881,-1.5144,-1.5532,-1.5995,-1.6244,-1.6291,-1.6368,-1.6576,-1.6948,-1.732,-1.7246,-1.7264,-1.7322,-1.7632,-1.8144,-1.8789,-1.9727,-2.0879,-2.1973,-2.2383,-2.2812,-2.3144,-2.3144,-2.3144,-2.2687,-2.0764,-1.9861,-1.9039,-1.703,-1.6197,-1.5832,-1.5832,-1.5832,-1.5832,-1.5832,-1.5832,-1.5832,-1.5832,-1.5832,-1.5832,-1.5832,-1.5832,-1.5832,-1.5832,-1.5832,-1.5832,-1.5832,-1.5832,-1.5832,-1.5832,-1.6259,-1.658,-1.67,-1.682,-1.6583,-1.5846,-1.4867,-1.3268,-1.107,-1.0845,-1.0031,-0.8845,-0.9144,-0.9334,-0.9422,-0.9483,-0.951,-2.6866,-2.7092,-2.7218,-2.6967,-2.6992,-2.6992,-2.6741,-2.6634,-2.6408,-2.5912,-2.5837,0.0,0.0,0.0,-2.5335,-2.5561,0.0,-2.5536,-2.6339,-2.4993,-2.3647,-2.2937,-2.2028,-2.1375,-2.0857,-2.1523,-2.122,-1.9427,-2.0839,-2.1619,-2.127,-2.2051,-2.2723,-2.3065,-2.3,-2.2447,-2.1493,-2.1125,-2.0169,-1.8715,-1.8124,-1.7081,-1.5669,-1.53,-1.4756,-1.4107,-1.4473,-1.4746,-1.498,-1.5293,-1.541,-1.543,-1.5547,-1.5938,-1.6427,-1.6493,-1.6432,-1.6434,-1.7159,-1.7688,-1.8117,-1.9444,-2.0342,-2.1118,-2.1902,-2.2351,-2.2687,-2.3038,-2.3144,-2.2492,-2.0133,-1.9497,-1.8856,-1.6386,-1.5832,-1.5832,-1.5832,-1.5832,-1.5832,-1.5832,-1.5832,-1.5832,-1.5832,-1.5832,-1.5832,-1.5832,-1.5832,-1.5832,-1.5832,-1.5832,-1.5832,-1.5832,-1.5832,-1.5832,-1.5832,-1.6366,-1.674,-1.682,-1.6439,-1.5771,-1.4749,-1.3724,-1.2344,-1.0416,-1.0216,-0.9798,-0.894,-0.9191,-0.9395,-0.9551,-0.9632,-0.9666,-2.7921,-2.767,-2.7394,-2.7921,-2.7268,-2.6684,-2.7143,-2.6841,-2.6508,-2.6508,-2.6508,-2.6332,-2.5686,-2.6038,-2.6239,-2.5686,-2.6063,0.0,0.0,-2.5627,-2.4969,-2.4874,-2.399,-2.2739,-2.0991,-2.1544,-2.1429,-1.9996,-2.112,-2.1867,-2.1839,-2.2616,-2.3065,-2.3065,-2.2623,-2.2071,-2.1493,-2.0966,-2.0015,-1.8715,-1.8661,-1.7436,-1.5205,-1.5184,-1.4788,-1.4087,-1.4107,-1.4629,-1.5391,-1.541,-1.541,-1.5449,-1.5879,-1.6096,-1.6096,-1.6135,-1.577,-1.5375,-1.5836,-1.6104,-1.647,-1.7663,-1.8279,-1.8885,-2.0766,-2.1373,-2.1569,-2.2775,-2.3144,-2.2492,-2.0133,-1.9497,-1.8856,-1.6386,-1.5832,-1.5832,-1.5832,-1.5832,-1.5832,-1.5832,-1.5832,-1.5832,-1.5832,-1.5832,-1.5832,-1.5832,-1.5832,-1.5832,-1.5832,-1.5832,-1.5832,-1.5832,-1.5832,-1.5832,-1.5832,-1.6366,-1.6834,-1.7114,-1.5719,-1.4749,-1.4546,-1.2278,-1.0911,-1.0707,-0.9501,-0.8933,-0.894,-0.9089,-0.9239,-0.9395,-0.968,-0.9815,-2.8047,-2.8247,-2.8323,-2.8147,-2.8097,-2.7946,-2.7394,-2.7143,-2.6892,-2.6609,-2.6533,-2.6458,-2.6189,-2.6339,-2.6389,-2.6189,-2.6408,-2.6533,0.0,-2.5652,-2.5016,-2.5016,-2.4108,-2.3025,-2.1745,-2.1576,-2.1063,-1.9605,-2.0689,-2.1351,-2.1083,-2.2372,-2.3065,-2.3065,-2.289,-2.2598,-2.2046,-2.1493,-2.0807,-2.0019,-1.9251,-1.8049,-1.6387,-1.6005,-1.5205,-1.4107,-1.4727,-1.498,-1.5039,-1.5605,-1.584,-1.5859,-1.6056,-1.6488,-1.687,-1.6233,-1.5853,-1.5721,-1.5826,-1.601,-1.636,-1.7315,-1.8012,-1.8593,-1.9516,-1.9928,-2.0387,-2.1569,-2.1943,-2.1747,-2.0926,-2.0212,-1.9329,-1.7448,-1.669,-1.6299,-1.5912,-1.5979,-1.6072,-1.5872,-1.5832,-1.5832,-1.5832,-1.5832,-1.5832,-1.5832,-1.5832,-1.5832,-1.5832,-1.5832,-1.5832,-1.5832,-1.5832,-1.5439,-1.4651,-1.4103,-1.3971,-1.4376,-1.3751,-1.2905,-1.1981,-1.1247,-1.0297,-0.9348,-0.9078,-0.8988,-0.9083,-0.9232,-0.9781,-1.0755,-1.1217,-1.1374,-2.8649,-2.8825,-2.89,-2.875,-2.8674,-2.8499,-2.7971,-2.757,-2.7243,-2.7067,-2.6892,-2.6816,-2.7017,-2.6892,-2.6741,-2.6741,-2.659,-2.6533,0.0,-2.5652,-2.4874,-2.4492,-2.3599,-2.2691,-2.2038,-2.1487,-2.0629,-1.9409,-2.0331,-2.0751,-2.0183,-2.1479,-2.2372,-2.2641,-2.2702,-2.2551,-2.2322,-2.197,-2.1518,-2.0941,-1.9896,-1.8768,-1.7486,-1.685,-1.5888,-1.4844,-1.541,-1.5586,-1.5527,-1.6074,-1.6309,-1.6309,-1.6465,-1.6664,-1.6817,-1.6115,-1.558,-1.5083,-1.4688,-1.477,-1.5096,-1.587,-1.6474,-1.7048,-1.8153,-1.8579,-1.8953,-2.0262,-2.0762,-2.065,-2.0167,-1.9674,-1.9003,-1.756,-1.6926,-1.6607,-1.6219,-1.6206,-1.6219,-1.6019,-1.5899,-1.5832,-1.5832,-1.5832,-1.5832,-1.5832,-1.5832,-1.5832,-1.5832,-1.5832,-1.5832,-1.5832,-1.5832,-1.5325,-1.424,-1.3513,-1.3057,-1.29,-1.22,-1.1502,-1.0749,-1.0241,-0.9645,-0.8947,-0.894,-0.9259,-1.0016,-1.0067,-1.0882,-1.2239,-1.2759,-1.3296]},{"header":{"parameterUnit":"m.s-1","parameterCategory":1,"la1":30.6,"la2":29.2853,"lo1":-89.7004,"lo2":-87.6739,"dy":0.0162,"dx":0.0183,"nx":112,"ny":82,"refTime":"2023-06-22T12:00:00:Z","depth":0,"parameterNumber":3,"parameterNumberName":"V-component_of_WINDS"},"data":[0.0,0.0,0.0,0.0,0.0,0.0,0.0,0.0,0.0,0.0,0.0,0.0,0.0,0.0,0.0,0.0,0.0,0.0,0.0,0.0,0.0,0.0,0.0,0.0,0.0,0.0,0.0,0.0,0.0,0.0,0.0,0.0,0.0,0.0,0.0,0.0,0.0,0.0,0.0,0.0,0.0,0.0,0.0,0.0,0.0,0.0,0.0,0.0,0.0,0.0,0.0,0.0,0.0,0.0,0.0,0.0,0.0,0.0,0.0,0.0,0.0,0.0,0.0,0.0,0.0,0.0,0.0,0.0,0.0,0.0,0.0,0.0,0.0,0.0,0.0,0.0,0.0,0.0,0.0,0.0,0.0,0.0,0.0,0.0,0.0,0.0,0.0,0.0,0.0,0.0,1.625,1.3859,0.5136,-0.34,-1.0608,-1.1975,-1.3529,-1.6088,0.0,0.0,0.0,0.0,0.0,0.0,0.0,0.0,0.0,0.0,0.0,0.0,0.0,0.0,0.0,0.0,0.0,0.0,0.0,0.0,0.0,0.0,0.0,0.0,0.0,0.0,0.0,0.0,0.0,0.0,0.0,0.0,0.0,0.0,0.0,0.0,0.0,0.0,0.0,0.0,0.0,0.0,0.0,0.0,0.0,0.0,0.0,0.0,0.0,0.0,0.0,0.0,0.0,0.0,0.0,0.0,0.0,0.0,0.0,0.0,0.0,0.0,0.0,0.0,0.0,0.0,0.0,0.0,0.0,0.0,0.0,0.0,0.0,0.0,0.0,0.0,0.0,0.0,0.0,0.0,0.0,0.0,0.0,0.0,0.0,0.0,0.0,0.0,0.0,0.0,0.0,0.0,0.0,0.0,0.0,0.0,0.0,0.0,0.0,0.0,0.0,0.0,0.0,0.0,1.4379,0.7577,0.1129,-0.4672,-0.9474,-1.1844,-1.3792,-1.5446,0.0,0.0,0.0,0.0,0.0,0.0,0.0,0.0,0.0,0.0,0.0,0.0,0.0,0.0,0.0,0.0,0.0,0.0,0.0,0.0,0.0,0.0,0.0,0.0,0.0,0.0,0.0,0.0,0.0,0.0,0.0,0.0,0.0,0.0,0.0,0.0,0.0,0.0,0.0,0.0,0.0,0.0,0.0,0.0,0.0,0.0,0.0,0.0,0.0,0.0,0.0,0.0,0.0,0.0,0.0,0.0,0.0,0.0,0.0,0.0,0.0,0.0,0.0,0.0,0.0,0.0,0.0,0.0,0.0,0.0,0.0,0.0,0.0,0.0,0.0,0.0,0.0,0.0,0.0,0.0,0.0,0.0,0.0,0.0,0.0,0.0,0.0,0.0,0.0,0.0,0.0,0.0,0.0,0.0,0.0,0.0,0.0,0.0,0.0,0.0,0.0,0.0,0.0,1.5368,1.1872,0.4793,-0.0051,-0.4606,-0.9146,-1.1708,-1.378,-1.5398,-1.6602,0.0,0.0,0.0,0.0,0.0,0.0,0.0,0.0,0.0,0.0,0.0,0.0,0.0,0.0,0.0,0.0,0.0,0.0,0.0,0.0,0.0,0.0,0.0,0.0,0.0,0.0,0.0,0.0,0.0,0.0,0.0,0.0,0.0,0.0,0.0,0.0,0.0,0.0,0.0,0.0,0.0,0.0,0.0,0.0,0.0,0.0,0.0,0.0,0.0,0.0,0.0,0.0,0.0,0.0,0.0,0.0,0.0,0.0,0.0,0.0,0.0,0.0,0.0,0.0,0.0,0.0,0.0,0.0,0.0,0.0,0.0,0.0,0.0,0.0,0.0,0.0,0.0,0.0,0.0,0.0,0.0,0.0,0.0,0.0,0.0,0.0,0.0,0.0,0.0,0.0,0.0,0.0,0.0,0.0,0.0,0.0,0.0,0.0,0.0,0.0,0.0,0.0,1.3656,0.9747,0.3554,-0.0387,-0.4329,-0.8741,-1.1259,-1.342,-1.5358,-1.6658,0.0,0.0,0.0,0.0,0.0,0.0,0.0,0.0,0.0,0.0,0.0,0.0,0.0,0.0,0.0,0.0,0.0,0.0,0.0,0.0,0.0,0.0,0.0,0.0,0.0,0.0,0.0,0.0,0.0,0.0,0.0,0.0,0.0,0.0,0.0,0.0,0.0,0.0,0.0,0.0,0.0,0.0,0.0,0.0,0.0,0.0,0.0,0.0,0.0,0.0,0.0,0.0,0.0,0.0,0.0,0.0,0.0,0.0,0.0,0.0,0.0,0.0,0.0,0.0,0.0,0.0,0.0,0.0,0.0,0.0,0.0,0.0,0.0,0.0,0.0,0.0,0.0,0.0,0.0,0.0,0.0,0.0,0.0,0.0,0.0,0.0,0.0,0.0,0.0,0.0,0.0,0.0,0.0,0.0,0.0,0.0,0.0,0.0,0.0,0.0,0.0,0.0,1.2479,0.8722,0.3468,-0.068,-0.4358,-0.7626,-1.0071,-1.2494,-1.4981,-1.5853,0.0,0.0,0.0,0.0,0.0,0.0,0.0,0.0,0.0,0.0,0.0,0.0,0.0,0.0,0.0,0.0,0.0,0.0,0.0,0.0,0.0,0.0,0.0,0.0,0.0,0.0,0.0,0.0,0.0,0.0,0.0,0.0,0.0,0.0,0.0,0.0,0.0,0.0,0.0,0.0,0.0,0.0,0.0,0.0,0.0,0.0,0.0,0.0,0.0,0.0,0.0,0.0,0.0,0.0,0.0,0.0,0.0,0.0,0.0,0.0,0.0,0.0,0.0,0.0,0.0,0.0,0.0,0.0,0.0,0.0,0.0,0.0,0.0,0.0,0.0,0.0,0.0,0.0,0.0,0.0,0.0,0.0,0.0,0.0,0.0,0.0,0.0,0.0,0.0,0.0,0.0,0.0,0.0,0.0,0.0,0.0,0.0,0.0,0.0,0.0,0.0,0.0,1.1914,0.8305,0.3069,-0.0863,-0.4305,-0.7288,-1.02,-1.2559,-1.417,0.0,0.0,0.0,0.0,0.0,0.0,0.0,0.0,0.0,0.0,0.0,0.0,0.0,0.0,0.0,0.0,0.0,0.0,0.0,0.0,0.0,0.0,0.0,0.0,0.0,0.0,0.0,0.0,0.0,0.0,0.0,0.0,0.0,0.0,0.0,0.0,0.0,0.0,0.0,0.0,0.0,0.0,0.0,0.0,0.0,0.0,0.0,0.0,0.0,0.0,0.0,0.0,0.0,0.0,0.0,0.0,0.0,0.0,0.0,0.0,0.0,0.0,0.0,0.0,0.0,0.0,0.0,0.0,0.0,0.0,0.0,0.0,0.0,0.0,0.0,0.0,0.0,0.0,0.0,0.0,0.0,0.0,0.0,0.0,0.0,0.0,0.0,0.0,0.0,0.0,0.0,0.0,0.0,0.0,0.0,0.0,0.0,0.0,0.0,0.0,0.0,0.0,1.4256,1.2074,0.8504,0.2611,-0.0974,-0.4113,-0.7026,-0.9991,-1.2277,-1.3733,0.0,0.0,0.0,0.0,0.0,0.0,0.0,0.0,0.0,0.0,0.0,0.0,0.0,0.0,0.0,0.0,0.0,0.0,0.0,0.0,0.0,0.0,0.0,0.0,0.0,0.0,0.0,0.0,0.0,0.0,0.0,0.0,0.0,0.0,0.0,0.0,0.0,0.0,0.0,0.0,0.0,0.0,0.0,0.0,0.0,0.0,0.0,0.0,0.0,0.0,0.0,0.0,0.0,0.0,0.0,0.0,0.0,0.0,0.0,0.0,0.0,0.0,0.0,0.0,0.0,0.0,0.0,0.0,0.0,0.0,0.0,0.0,0.0,0.0,0.0,0.0,0.0,0.0,0.0,0.0,0.0,0.0,0.0,0.0,0.0,0.0,0.0,0.0,0.0,0.0,0.0,0.0,0.0,0.0,0.0,0.0,0.0,0.0,0.0,0.0,0.0,0.0,1.446,1.2925,0.9313,0.208,-0.1065,-0.3822,-0.6763,-0.9164,-1.1482,0.0,0.0,0.0,0.0,0.0,0.0,0.0,0.0,0.0,0.0,0.0,0.0,0.0,0.0,0.0,0.0,0.0,0.0,0.0,0.0,0.0,0.0,0.0,0.0,0.0,0.0,0.0,0.0,0.0,0.0,0.0,0.0,0.0,0.0,0.0,0.0,0.0,0.0,0.0,0.0,0.0,0.0,0.0,0.0,0.0,0.0,0.0,0.0,0.0,0.0,0.0,0.0,0.0,0.0,0.0,0.0,0.0,0.0,0.0,0.0,0.0,0.0,0.0,0.0,0.0,0.0,0.0,0.0,0.0,0.0,0.0,0.0,0.0,0.0,0.0,0.0,0.0,0.0,0.0,0.0,0.0,0.0,0.0,0.0,0.0,0.0,0.0,0.0,0.0,0.0,0.0,0.0,0.0,0.0,0.0,0.0,0.0,0.0,0.0,0.0,0.0,0.0,0.0,1.3989,1.2139,0.8516,0.1856,-0.1767,-0.4683,-0.7073,-0.9539,-1.1837,-1.4,0.0,0.0,0.0,0.0,0.0,0.0,0.0,0.0,0.0,0.0,0.0,0.0,0.0,0.0,0.0,0.0,0.0,0.0,0.0,0.0,0.0,0.0,0.0,0.0,0.0,0.0,0.0,0.0,0.0,0.0,0.0,0.0,0.0,0.0,0.0,0.0,0.0,0.0,0.0,0.0,0.0,0.0,0.0,0.0,0.0,0.0,0.0,0.0,0.0,0.0,0.0,0.0,0.0,0.0,0.0,0.0,0.0,0.0,0.0,0.0,0.0,0.0,0.0,0.0,0.0,0.0,0.0,0.0,0.0,0.0,0.0,0.0,0.0,0.0,0.0,0.0,0.0,0.0,0.0,0.0,0.0,0.0,0.0,0.0,0.0,0.0,0.0,0.0,0.0,0.0,0.0,0.0,0.0,0.0,0.0,0.0,0.0,0.0,0.0,0.0,0.0,0.0,1.4244,1.1974,0.8028,0.1375,-0.3054,-0.6174,-0.7708,-0.9904,-1.2061,-1.4046,0.0,0.0,0.0,0.0,0.0,0.0,0.0,0.0,0.0,0.0,0.0,0.0,0.0,0.0,0.0,0.0,0.0,0.0,0.0,0.0,0.0,0.0,0.0,0.0,0.0,0.0,0.0,0.0,0.0,0.0,0.0,0.0,0.0,0.0,0.0,0.0,0.0,0.0,0.0,0.0,0.0,0.0,0.0,0.0,0.0,0.0,0.0,0.0,0.0,0.0,0.0,0.0,0.0,0.0,0.0,0.0,0.0,0.0,0.0,0.0,0.0,0.0,0.0,0.0,0.0,0.0,0.0,0.0,0.0,0.0,0.0,0.0,0.0,0.0,0.0,0.0,0.0,0.0,0.0,0.0,0.0,0.0,0.0,0.0,0.0,0.0,0.0,0.0,0.0,0.0,0.0,0.0,0.0,0.0,0.0,0.0,0.0,0.0,0.0,0.0,0.0,0.0,1.4887,1.1951,0.744,0.0666,-0.4599,-0.7891,-0.8541,-1.0464,-1.2368,-1.4089,0.0,0.0,0.0,0.0,0.0,0.0,0.0,0.0,0.0,0.0,0.0,0.0,0.0,0.0,0.0,0.0,0.0,0.0,0.0,0.0,0.0,0.0,0.0,0.0,0.0,0.0,0.0,0.0,0.0,0.0,0.0,0.0,0.0,0.0,0.0,0.0,0.0,0.0,0.0,0.0,0.0,0.0,0.0,0.0,0.0,0.0,0.0,0.0,0.0,0.0,0.0,0.0,0.0,0.0,0.0,0.0,0.0,0.0,0.0,0.0,0.3519,0.1701,0.0,0.0,0.0,0.0,0.0,0.0,0.0,0.0,0.0,0.0,0.0,0.0,0.0,0.0,0.0,0.0,0.0,0.0,0.0,0.0,0.0,0.0,0.0,0.0,0.0,0.0,0.0,0.0,0.0,0.0,0.0,0.0,0.0,0.0,0.0,0.0,0.0,0.0,0.0,0.0,1.4713,0.9724,0.4652,0.0031,-0.4983,-0.834,-0.9215,-1.1734,-1.3704,-1.4741,-1.6149,0.0,0.0,0.0,0.0,0.0,0.0,0.0,0.0,0.0,0.0,0.0,0.0,0.0,0.0,0.0,0.0,0.0,0.0,0.0,0.0,0.0,0.0,0.0,0.0,0.0,0.0,0.0,0.0,0.0,0.0,0.0,0.0,0.0,0.0,0.0,0.0,0.0,0.0,0.0,0.0,0.0,0.0,0.0,0.0,0.0,0.0,0.0,0.0,0.0,0.0,0.0,0.0,0.0,0.0,0.0,0.0,0.0,0.0,0.0,0.3844,0.1983,0.0,0.0,0.0,0.0,0.0,0.0,0.0,0.0,0.0,0.0,0.0,0.0,0.0,0.0,0.0,0.0,0.0,0.0,0.0,0.0,0.0,0.0,0.0,0.0,0.0,0.0,0.0,0.0,0.0,0.0,0.0,0.0,0.0,0.0,0.0,0.0,0.0,0.0,0.0,0.0,1.5191,0.9298,0.3811,-0.0121,-0.524,-0.8863,-1.0043,-1.2205,-1.3865,-1.4757,-1.6362,0.0,0.0,0.0,0.0,0.0,0.0,0.0,0.0,0.0,0.0,0.0,0.0,0.0,0.0,0.0,0.0,0.0,0.0,0.0,0.0,0.0,0.0,0.0,0.0,0.0,0.0,0.0,0.0,0.0,0.0,0.0,0.0,0.0,0.0,0.0,0.0,0.0,0.0,0.0,0.0,0.0,0.0,0.0,0.0,0.0,0.0,0.0,0.0,0.0,0.0,0.0,0.0,0.0,0.8965,0.8171,0.7401,0.7737,0.765,0.706,0.4724,0.283,0.1363,0.0,0.0,0.0,0.0,0.0,0.0,0.0,0.0,0.0,0.0,0.0,0.0,0.0,0.0,0.0,0.0,0.0,0.0,0.0,0.0,0.0,0.0,0.0,0.2938,0.1331,-0.0219,-0.1637,-0.2838,0.0,0.0,0.0,0.0,0.0,0.0,0.0,0.0,0.0,0.0,0.0,1.5659,0.9587,0.3932,-0.0177,-0.5434,-0.9265,-1.0814,-1.2538,-1.3912,-1.4791,-1.661,-1.7689,0.0,0.0,0.0,0.0,0.0,0.0,0.0,0.0,0.0,0.0,0.0,0.0,0.0,0.0,0.0,0.0,0.0,0.0,0.0,0.0,0.0,0.0,0.0,0.0,0.0,0.0,0.0,0.0,0.0,0.0,0.0,0.0,1.2522,1.052,0.0,0.0,0.0,0.0,0.0,0.0,0.0,0.0,0.0,0.0,0.0,0.0,0.0,1.3148,1.2908,1.1731,1.0994,1.0648,0.9921,0.9217,0.8593,0.8606,0.8277,0.7547,0.6585,0.0,0.2706,0.1276,0.0,0.0,0.0,0.0,0.0,0.0,0.0,0.0,0.0,0.0,0.0,0.0,0.0,0.0,0.0,0.0,0.0,0.0,0.0,0.0,0.0,0.0,0.4313,0.1683,0.0821,0.0393,-0.0208,-0.1638,-0.2322,-0.053,0.1314,0.4604,0.0,0.0,0.0,0.0,0.0,0.0,1.5056,0.9709,0.4358,-0.0583,-0.5448,-0.9193,-1.1323,-1.3624,-1.5207,-1.5878,-1.7034,-1.7991,-1.8703,-1.8602,0.0,0.0,0.0,0.0,0.0,0.0,0.0,0.0,0.0,0.0,0.0,0.0,0.0,0.0,0.0,0.0,0.0,0.0,0.0,0.0,0.0,0.0,0.0,0.0,0.0,0.0,0.0,0.0,0.0,1.5597,1.3214,1.1097,1.1519,1.1882,0.0,0.0,0.0,0.0,0.0,0.0,0.0,0.0,0.0,1.4419,1.3828,1.3153,1.2311,1.1803,1.1094,1.0218,0.9961,0.9458,0.8804,0.8804,0.8844,0.8803,0.7629,0.6745,0.5925,0.3301,0.1714,0.0958,0.0,0.0,0.0,0.0,0.4726,0.399,0.4082,0.3261,0.2032,0.1657,0.0,0.0,0.0,0.0,0.0,0.0,0.0,0.8609,0.7372,0.6231,0.5005,0.3327,0.2659,0.2299,0.2083,0.1141,0.0284,0.0049,0.107,0.3812,0.9514,1.2804,0.0,0.0,0.0,1.9148,1.5904,0.984,0.4083,-0.0542,-0.5831,-0.9966,-1.2303,-1.3955,-1.5264,-1.6206,-1.7194,-1.8034,-1.8701,-1.9061,-1.9098,0.0,0.0,0.0,0.0,0.0,0.0,0.0,0.0,0.0,0.0,0.0,0.0,0.0,0.0,0.0,0.0,0.0,0.0,0.0,0.0,0.0,0.0,0.0,0.0,0.0,0.0,0.0,0.0,1.6969,1.471,1.2453,1.2611,1.27,0.0,0.0,0.0,0.0,0.0,0.0,1.6632,1.649,1.5884,1.4744,1.4283,1.3321,1.1814,1.1814,1.1116,0.9821,0.9599,0.9183,0.854,0.854,0.8791,0.9221,0.8242,0.8037,0.8037,0.5038,0.3395,0.2755,0.3371,0.3479,0.3511,0.478,0.456,0.3677,0.3996,0.3424,0.236,0.1725,0.2088,0.2817,0.3217,0.0,0.0,0.0,0.0,0.8091,0.7776,0.6776,0.5581,0.4815,0.4283,0.3965,0.398,0.3651,0.2866,0.1229,0.1716,0.3921,0.8529,1.2053,0.0,1.9371,2.0184,1.9284,1.6335,0.9817,0.3817,-0.0506,-0.6352,-1.0842,-1.3127,-1.4114,-1.5136,-1.637,-1.7262,-1.8017,-1.859,-1.9362,-1.943,-1.8734,0.0,0.0,0.0,0.0,0.0,0.0,0.0,0.0,0.0,0.0,0.0,0.0,0.0,0.0,0.0,0.0,0.0,0.0,0.0,0.0,0.0,0.0,0.0,0.0,0.0,0.0,0.0,0.0,0.0,1.5042,1.4628,0.0,0.0,0.0,0.0,1.7289,1.7887,1.7974,1.739,1.6798,1.5932,1.4744,1.4652,1.3747,1.1814,1.1814,1.1116,0.9806,0.9103,0.8383,0.7771,0.7771,0.7783,0.7824,0.8461,0.8355,0.7606,0.5887,0.4781,0.4108,0.4278,0.3946,0.3511,0.4291,0.4519,0.4346,0.3677,0.3382,0.3144,0.2367,0.3104,0.4226,0.4029,0.5974,0.0,0.0,0.7835,0.8529,0.7049,0.6612,0.6316,0.5446,0.5221,0.5221,0.5231,0.5188,0.4808,0.3562,0.4258,0.6046,0.9393,0.0,1.6191,1.8209,2.0229,1.9947,1.5632,0.957,0.3908,-0.0686,-0.698,-1.1607,-1.3505,-1.4313,-1.5252,-1.6503,-1.7303,-1.7987,-1.867,-1.9409,-1.9535,-1.9002,-1.9463,0.0,0.0,0.0,0.0,0.0,0.0,0.0,0.0,0.0,0.0,0.0,0.0,0.0,0.0,0.0,0.0,0.0,0.0,0.0,0.0,0.0,0.0,0.0,0.0,0.0,0.0,0.0,0.0,1.8323,1.7508,0.0,1.7155,1.7286,1.7678,1.8446,1.794,1.7545,1.7359,1.6794,1.5932,1.4744,1.4698,1.3794,1.1814,1.1366,1.0712,0.9806,0.9093,0.8408,0.7717,0.7717,0.7834,0.8127,0.8567,0.8653,0.8448,0.8101,0.7053,0.5766,0.5819,0.5649,0.5492,0.5764,0.5546,0.5109,0.4827,0.447,0.3989,0.363,0.4094,0.4793,0.4633,0.5731,0.706,0.6859,0.7236,0.7612,0.7263,0.7013,0.6761,0.6489,0.641,0.6495,0.6888,0.6945,0.6959,0.7233,0.7022,0.773,1.0666,1.3594,1.616,1.8044,1.9287,1.894,1.6082,1.1091,0.571,0.0216,-0.7056,-1.203,-1.327,-1.4151,-1.512,-1.6316,-1.7301,-1.8108,-1.8751,-1.9487,-1.9541,-1.8875,-1.8725,-1.8846,0.0,0.0,0.0,0.0,0.0,0.0,0.0,0.0,0.0,0.0,0.0,0.0,0.0,0.0,0.0,0.0,0.0,0.0,0.0,0.0,0.0,0.0,0.0,0.0,0.0,2.1694,2.1122,2.0725,1.9534,1.8819,1.9058,1.8528,1.8422,1.899,1.8522,1.8017,1.7629,1.7067,1.6213,1.5062,1.5017,1.3961,1.1796,1.1349,1.0559,0.9458,0.8514,0.7783,0.7343,0.7063,0.7081,0.7306,0.7947,0.8237,0.8287,0.8545,0.7898,0.6785,0.707,0.7094,0.6945,0.7202,0.6977,0.6538,0.6009,0.5233,0.4375,0.4227,0.4621,0.509,0.5109,0.5753,0.6521,0.6786,0.6912,0.7068,0.7268,0.7174,0.6985,0.6985,0.714,0.7502,0.8171,0.8212,0.852,0.9867,0.9543,0.9695,1.1789,1.4548,1.6905,1.8043,1.8779,1.847,1.6368,1.0959,0.5431,0.0524,-0.7112,-1.2281,-1.3201,-1.4431,-1.5383,-1.5857,-1.7107,-1.7946,-1.8297,-1.8922,-1.9088,-1.8663,-1.8197,-1.8269,-1.8993,0.0,0.0,0.0,0.0,0.0,0.0,0.0,0.0,0.0,0.0,0.0,0.0,0.0,0.0,0.0,0.0,0.0,0.0,0.0,0.0,0.0,0.0,0.0,2.267,2.2763,2.2617,2.2082,2.0624,1.9458,1.893,1.9508,1.9644,1.9003,1.9523,1.936,1.8269,1.7629,1.6786,1.5664,1.5576,1.4334,1.1791,1.1693,1.0679,0.8804,0.7396,0.6642,0.6534,0.5873,0.549,0.5371,0.6719,0.7238,0.7122,0.7122,0.7086,0.7158,0.7931,0.7948,0.7647,0.8345,0.8605,0.841,0.7052,0.5517,0.4194,0.4187,0.4583,0.5092,0.5376,0.5997,0.663,0.6924,0.7014,0.7043,0.7043,0.7001,0.7001,0.7001,0.7447,0.8121,0.8976,0.8944,0.9315,1.1256,1.1722,1.2025,1.2714,1.5936,1.8295,1.7992,1.878,0.0,1.635,0.9065,0.2941,0.002,-0.7211,-1.2271,-1.3391,-1.5194,-1.592,-1.5122,-1.6679,-1.7486,-1.7298,-1.7762,-1.8125,-1.8353,-1.7897,-1.7801,-1.8161,0.0,0.0,0.0,0.0,0.0,0.0,0.0,0.0,0.0,0.0,0.0,0.0,0.0,0.0,0.0,0.0,0.0,0.0,0.0,0.0,0.0,2.2272,2.2897,2.2916,2.301,2.2939,2.2745,2.16,2.0977,2.1311,2.0378,1.9878,2.0157,1.9177,1.8647,1.8686,1.7432,1.6727,1.6777,1.5596,1.4356,1.3084,1.1742,1.0289,0.8751,0.8856,0.7841,0.581,0.6656,0.6504,0.572,0.6773,0.7134,0.7063,0.7334,0.7198,0.6742,0.6786,0.674,0.6742,0.6938,0.6775,0.6304,0.58,0.5004,0.4108,0.3439,0.3681,0.4142,0.4062,0.5096,0.6331,0.6846,0.7558,0.8161,0.8161,0.7562,0.6918,0.6918,0.7113,0.7404,0.8043,0.9041,1.0272,1.1868,1.3278,1.416,1.3947,1.5165,1.6426,1.7112,1.6784,1.6214,1.5591,0.9722,0.3596,-0.1659,-0.8485,-1.2845,-1.3266,-1.4732,-1.5453,-1.4982,-1.6439,-1.7207,-1.7009,-1.7815,-1.8138,-1.7831,-1.7943,-1.8005,0.0,0.0,0.0,0.0,0.0,0.0,0.0,0.0,0.0,0.0,0.0,0.0,0.0,0.0,0.0,0.0,0.0,0.0,0.0,0.0,0.0,0.0,2.3238,2.349,2.331,2.3258,2.3227,2.3161,2.1981,2.1318,2.1725,2.0298,1.9546,1.9929,1.8786,1.8131,1.821,1.7353,1.698,1.7218,1.5816,1.4722,1.3995,1.2115,1.0477,0.9169,0.8698,0.7587,0.5982,0.6352,0.6125,0.5487,0.6423,0.681,0.666,0.6656,0.6247,0.5687,0.0,0.0,0.0,0.0,0.6755,0.5946,0.5889,0.4914,0.3626,0.2869,0.2564,0.2481,0.242,0.3234,0.436,0.529,0.6141,0.6803,0.7064,0.658,0.6066,0.6142,0.6455,0.6946,0.787,0.8802,0.991,1.1468,1.2539,0.0,1.3907,1.5397,1.6501,1.6491,1.6086,1.5019,1.2957,0.7372,0.1607,-0.3661,-0.9641,-1.3543,-1.4145,-1.5772,0.0,0.0,0.0,-1.75,-1.7169,-1.7907,0.0,0.0,0.0,-1.832,-1.8256,-1.9218,0.0,0.0,-1.9369,-1.9258,0.0,0.0,0.0,0.0,0.0,0.0,0.0,0.0,0.0,0.0,0.0,0.0,0.0,0.0,0.0,0.0,2.4499,2.4012,2.3752,2.3608,2.3477,2.3351,2.195,2.1023,2.1051,1.9822,1.897,1.8903,1.84,1.7855,1.7312,1.7188,0.0,0.0,0.0,1.5015,1.4293,1.2416,1.0764,0.9444,0.7587,0.6578,0.6362,0.5685,0.5234,0.5046,0.6033,0.6381,0.6221,0.5567,0.4808,0.4221,0.5118,0.5997,0.6878,0.7777,0.7242,0.6098,0.6187,0.0,0.0,0.2123,0.1198,0.0393,0.0542,0.0903,0.1569,0.2909,0.3753,0.4355,0.4943,0.4906,0.4754,0.4872,0.5421,0.6273,0.7633,0.8002,0.8593,1.0308,1.0343,1.0802,1.2985,1.5702,1.717,1.6033,1.5559,1.3605,0.8702,0.2998,-0.2232,-0.647,-1.1113,0.0,-1.561,-1.7482,-1.8227,-1.7382,-1.7831,-1.7987,-1.7647,-1.7955,-1.8198,-1.8346,-1.8573,-1.8732,-1.8822,-1.939,-1.969,-1.969,-1.969,-1.969,0.0,0.0,0.0,0.0,0.0,0.0,0.0,0.0,0.0,0.0,0.0,0.0,0.0,0.0,0.0,2.4094,2.418,2.4012,2.3752,2.4043,2.3897,2.2892,2.1729,2.1075,2.1303,2.0216,1.9364,1.8961,1.8449,1.7898,1.7259,1.6378,1.612,1.649,1.4993,1.3731,1.2909,1.103,0.9113,0.7224,0.7362,0.0,0.4952,0.6455,0.6576,0.5673,0.6395,0.6772,0.6761,0.5739,0.4115,0.2339,0.2628,0.2885,0.3176,0.4025,0.3808,0.3094,0.359,0.2698,0.1209,0.0507,-0.0697,-0.1768,-0.1499,-0.0825,0.0,0.1646,0.3089,0.4333,0.4934,0.4398,0.3708,0.3743,0.3545,0.3665,0.4699,0.5615,0.6752,0.8608,0.8852,0.9427,1.1533,1.2905,1.4092,1.5394,1.1868,0.7313,0.2469,-0.1799,-0.6584,-1.2426,-1.4268,-1.5425,-1.6326,-1.7704,-1.8241,-1.7575,-1.7653,-1.7967,-1.8515,-1.813,-1.826,-1.9153,-1.8879,-1.8972,-1.951,-1.963,-1.969,-1.969,-1.969,-1.969,0.0,0.0,0.0,0.0,0.0,0.0,0.0,0.0,0.0,0.0,0.0,2.3682,2.3891,0.0,2.3897,2.507,2.4601,2.414,2.4244,2.395,2.3457,2.267,2.228,2.1855,2.1455,2.0448,1.9461,1.8638,1.7764,1.7024,1.6446,1.5596,1.5374,1.5893,1.4539,1.3543,1.3071,1.0831,0.9009,0.7641,0.6924,0.6018,0.5054,0.6332,0.6576,0.6067,0.6941,0.7333,0.7154,0.5848,0.4291,0.2759,0.2148,0.1739,0.1638,0.243,0.2504,0.2168,0.2121,0.1132,-0.0268,-0.1293,-0.2684,-0.4029,-0.447,-0.3752,-0.2618,-0.1866,-0.0283,0.1373,0.2238,0.2066,0.1773,0.2071,0.1884,0.1843,0.2532,0.3206,0.3978,0.492,0.5048,0.5082,0.5339,0.5656,0.6744,0.9358,0.6462,0.2289,-0.2449,-0.7166,-1.1353,-1.465,-1.5918,-1.6954,-1.7928,-1.8758,-1.9061,-1.8584,-1.8827,-1.9109,-1.9292,-1.9365,-1.9531,-1.9836,-1.9633,-1.9576,-1.969,-1.969,-1.969,-1.969,-1.969,-1.969,0.0,0.0,0.0,0.0,0.0,0.0,0.0,2.3314,2.3191,2.431,2.4894,2.5415,2.5834,2.5229,2.5051,2.6336,2.5318,2.4505,2.4984,2.4337,2.3642,2.3185,2.3042,2.2549,2.155,2.0613,1.9581,1.8472,1.7325,1.6409,1.5727,1.5016,1.4717,1.4926,1.3956,1.3165,1.2665,1.0431,0.8906,0.8041,0.618,0.5328,0.532,0.5809,0.6019,0.6074,0.7206,0.7589,0.7322,0.6132,0.4914,0.3748,0.2641,0.1763,0.1096,0.1476,0.1593,0.1433,0.0604,-0.0712,-0.2131,-0.3345,-0.5019,-0.6628,-0.7376,-0.6859,-0.5901,-0.547,-0.3852,-0.206,-0.1039,-0.0613,-0.034,0.0036,-0.0069,-0.017,0.0223,0.0362,0.0379,0.0476,0.0164,-0.0491,-0.1811,-0.2706,-0.1996,0.1665,0.0403,-0.2707,-0.7537,-1.2102,-1.5034,-1.5502,-1.6978,-1.8465,-1.9751,-2.0278,-2.0413,-2.0093,-2.041,-2.046,-2.0245,-2.0598,-2.0672,-2.0434,-2.0261,-2.0019,-1.969,-1.969,-1.969,-1.969,-1.969,-1.969,1.7288,1.8015,1.9528,2.1841,2.248,2.3443,0.0,2.7149,2.6965,2.7721,2.7924,2.7838,2.7316,2.6167,2.5748,2.6999,2.6094,2.5404,2.5791,2.6341,2.6303,2.5155,2.3429,2.2184,2.1703,2.1093,2.0213,1.8978,1.8189,1.7275,1.6192,1.5034,1.3911,1.287,1.2295,1.1132,0.9268,0.8332,0.718,0.5864,0.4999,0.4629,0.4622,0.5303,0.5473,0.5311,0.6449,0.7014,0.7145,0.6943,0.5731,0.3988,0.3834,0.2613,0.0817,-0.0204,-0.0624,-0.0905,-0.2174,-0.3649,-0.5031,-0.5863,-0.7957,-1.0,-0.9283,-0.9189,-0.8882,-0.7045,-0.5334,-0.3906,-0.2991,-0.2376,-0.207,-0.2537,-0.3031,-0.3352,-0.3184,-0.3805,-0.4301,-0.3894,-0.5062,-0.6278,-0.6738,-0.9441,-0.9875,-0.4905,-0.5748,-0.8914,-1.4452,-1.5171,-1.5593,-1.6773,-1.7998,-1.9481,-2.129,-2.2062,-2.2388,-2.2187,-2.1591,-2.1424,-2.1743,-2.0622,-2.0318,-2.0926,-2.0189,-1.9732,-1.969,-1.969,-1.969,-1.969,-1.969,-1.969,1.9171,1.9848,2.1091,2.323,2.3984,2.4865,2.7462,2.8192,2.8472,2.8946,2.9476,2.9666,2.9009,2.8207,2.7592,2.745,2.6598,2.5832,2.5628,2.4984,2.4447,2.4193,2.354,2.3052,2.2831,2.2564,2.1438,1.9,1.7913,1.6712,1.5228,1.4132,1.3077,1.2154,1.173,1.0597,0.8738,0.7976,0.6924,0.5483,0.4842,0.4519,0.4519,0.5218,0.5927,0.6639,0.698,0.7279,0.7589,0.7589,0.6516,0.4867,0.4621,0.328,0.1366,0.01,-0.0609,-0.1239,-0.3089,-0.4696,-0.6204,-0.7777,-0.9864,-1.1737,-1.1723,-1.1464,-1.0956,-0.9789,-0.7901,-0.6078,-0.5467,-0.4787,-0.4366,-0.4957,-0.5449,-0.5972,-0.6434,-0.695,-0.7363,-0.7616,-0.8631,-1.0024,-1.1719,-1.3496,-1.4437,-1.3624,-1.3064,-1.3714,-1.641,-1.6508,-1.6842,-1.8288,-1.9947,-2.1142,-2.1662,-2.2419,-2.2769,-2.2523,-2.2396,-2.2154,-2.1674,-2.136,-2.098,-2.0601,-2.0227,-1.9945,-1.969,-1.969,-1.969,-1.969,-1.969,-1.969,2.0422,2.1278,2.2366,2.3889,2.505,2.6228,2.7755,2.8931,2.9798,3.004,3.0798,3.1273,3.074,2.9995,2.9042,2.7924,2.6828,2.5901,2.5265,2.3902,2.3093,2.3368,2.3741,2.3737,2.3256,2.3308,2.2122,1.9167,1.7634,1.618,1.4718,1.3459,1.2318,1.1266,1.0889,0.9785,0.7829,0.7287,0.644,0.5218,0.4732,0.4519,0.4519,0.4999,0.5928,0.7106,0.71,0.7291,0.7573,0.777,0.6758,0.5091,0.4841,0.3346,0.1256,-0.0098,-0.0987,-0.1787,-0.4093,-0.6047,-0.7954,-1.0027,-1.2176,-1.3982,-1.4124,-1.3877,-1.334,-1.224,-1.0449,-0.8725,-0.8041,-0.7341,-0.6922,-0.7422,-0.793,-0.8518,-0.9414,-0.9898,-1.0397,-1.1149,-1.1963,-1.3319,-1.5655,-1.6487,-1.7508,-1.936,-1.8434,-1.7548,-1.7555,-1.7808,-1.8518,-2.0029,-2.1737,-2.2653,-2.2416,-2.3135,-2.3465,-2.3177,-2.321,-2.2754,-2.1759,-2.1758,-2.1334,-2.0299,-2.0193,-1.9914,-1.9479,-1.9479,-1.9479,-1.9479,-1.9479,-1.9551,2.0532,2.1666,2.3111,2.3359,2.5496,2.7735,2.8407,3.0134,3.16,3.1636,3.2277,3.2696,3.2287,3.0975,2.9643,2.8543,2.682,2.5418,2.481,2.4141,2.3659,2.3659,2.4226,2.3918,2.2331,2.251,2.1843,1.972,1.759,1.6054,1.5292,1.3491,1.1631,0.9923,0.9479,0.8093,0.5592,0.5592,0.5218,0.4519,0.4519,0.4519,0.4519,0.4519,0.4897,0.5592,0.6308,0.6632,0.6676,0.7427,0.6312,0.4237,0.4243,0.2438,-0.0299,-0.1615,-0.2441,-0.321,-0.5647,-0.8414,-1.1167,-1.2893,-1.5364,-1.7417,-1.6179,-1.6402,-1.6481,-1.3729,-1.2663,-1.2037,-1.0736,-0.9963,-0.9677,-1.0089,-1.0608,-1.1205,-1.1953,-1.2897,-1.3864,-1.4594,-1.547,-1.6518,-1.7949,-1.8655,-1.9225,-1.987,-2.0495,-2.0359,-1.8955,-1.9542,-2.0656,-2.2045,-2.3009,-2.375,-2.4161,-2.4912,-2.5165,-2.4836,-2.4168,-2.3392,-2.2598,-2.1573,-2.0797,-2.0299,-1.9909,-1.9442,-1.893,-1.893,-1.893,-1.893,-1.893,-1.9192,2.1374,2.1911,2.2617,2.3655,2.4996,2.6451,2.7987,2.9511,3.0696,3.1073,3.1071,3.0869,3.0448,2.9954,2.9025,2.7211,2.6522,2.5682,2.417,2.2261,2.112,2.1322,2.1542,2.1113,1.9688,2.1783,2.2035,1.911,1.7871,1.6495,1.4688,1.3091,1.1448,0.9575,0.908,0.7812,0.5732,0.555,0.5164,0.4519,0.4015,0.3793,0.3738,0.3234,0.339,0.4039,0.4306,0.4294,0.4128,0.4595,0.3261,0.0995,0.1378,-0.0049,-0.2503,-0.3645,-0.5025,-0.6568,-0.7983,-1.0109,-1.2571,-1.4552,-1.6964,-1.9001,-1.8288,-1.8276,-1.8127,-1.6201,-1.4898,-1.3996,-1.3577,-1.308,-1.2872,-1.3702,-1.4024,-1.4463,-1.5613,-1.5741,-1.5917,-1.6712,-1.7068,-1.7399,-1.8058,-1.929,-2.0587,-2.1639,-2.1339,-2.0929,-2.0735,-2.1614,-2.2253,-2.2297,-2.3719,-2.4545,-2.4326,-2.5038,-2.5299,-2.4936,-2.3952,-2.3017,-2.2173,-2.0831,-1.9854,-1.9383,-1.8864,-1.8521,-1.8366,-1.8366,-1.8521,-1.8893,-1.8893,-1.9192,2.1791,2.2183,2.2736,2.3618,2.4671,2.5841,2.7248,2.8866,3.0089,3.0165,3.0225,2.9986,2.9247,2.9127,2.8347,2.5889,2.5676,2.5048,2.2895,2.0751,1.9473,1.988,1.9414,1.8718,1.792,1.9841,2.0181,1.7789,1.6835,1.5434,1.3157,1.1828,1.0246,0.8293,0.7969,0.6993,0.5337,0.5001,0.4442,0.3677,0.3178,0.2956,0.2956,0.2452,0.2334,0.2544,0.2815,0.2331,0.1423,0.1937,0.0633,-0.1619,-0.1489,-0.2834,-0.5071,-0.6184,-0.8035,-0.9989,-1.0148,-1.1947,-1.447,-1.6449,-1.8608,-2.0353,-1.9996,-1.9843,-1.953,-1.8014,-1.6966,-1.6241,-1.592,-1.5578,-1.5462,-1.6091,-1.6206,-1.6494,-1.7691,-1.7577,-1.7484,-1.8317,-1.8401,-1.8494,-1.9003,-2.0327,-2.1738,-2.2958,-2.2511,-2.2118,-2.2337,-2.2958,-2.337,-2.3296,-2.4431,-2.5094,-2.4781,-2.5233,-2.5313,-2.4936,-2.3842,-2.2728,-2.1653,-2.0313,-1.928,-1.8626,-1.8288,-1.8013,-1.7814,-1.8013,-1.8288,-1.8626,-1.8817,-1.9192,2.1782,2.2408,2.3241,2.3105,2.4384,2.5737,2.6245,2.8259,2.9786,2.8945,2.967,3.0,2.8684,2.8569,2.7727,2.4733,2.4513,2.3867,2.1286,1.9686,1.8953,1.9317,1.7868,1.686,1.6927,1.6843,1.6412,1.5606,1.464,1.3186,1.1111,0.9928,0.8291,0.6259,0.6352,0.5759,0.4497,0.3812,0.3056,0.2174,0.2174,0.2119,0.2063,0.2063,0.1613,0.0886,0.1595,0.0656,-0.1308,-0.0596,-0.1622,-0.3678,-0.4305,-0.5863,-0.7858,-0.9178,-1.1287,-1.3355,-1.2254,-1.3943,-1.6867,-1.8621,-2.0312,-2.1599,-2.1252,-2.1073,-2.0703,-1.9128,-1.8802,-1.8711,-1.7702,-1.7423,-1.743,-1.7286,-1.7277,-1.7545,-1.8377,-1.8531,-1.874,-1.9449,-1.9578,-1.9875,-2.0859,-2.1778,-2.2744,-2.3812,-2.3983,-2.3898,-2.3709,-2.3644,-2.399,-2.5006,-2.5167,-2.5298,-2.5563,-2.5546,-2.5298,-2.4908,-2.3805,-2.2517,-2.1118,-2.0082,-1.9096,-1.8131,-1.8092,-1.7814,-1.7312,-1.7814,-1.8092,-1.8092,-1.8664,-1.9192,2.1501,2.1461,2.1718,2.1583,2.2411,2.3673,2.5219,2.6544,2.7426,2.7352,2.7596,2.7511,2.6416,2.7402,2.7638,2.5277,2.5926,2.5682,2.2636,2.1038,1.9883,1.9113,1.753,1.6313,1.5687,1.536,1.4247,1.2222,1.2937,1.3177,1.2476,1.0031,0.8012,0.6583,0.6352,0.5495,0.3963,0.3045,0.242,0.2174,0.1618,0.1116,0.0556,0.0,-0.0944,-0.2154,-0.1983,-0.3115,-0.5107,-0.4931,-0.6101,-0.8061,-0.8035,-0.9096,-1.0714,-1.1331,-1.2958,-1.4961,-1.5561,-1.7018,-1.8762,-1.997,-2.1279,-2.2317,-2.1669,-2.1444,-2.1146,-2.0149,-1.9688,-1.9449,-1.9163,-1.9289,-1.9546,-1.9497,-1.9739,-2.0162,-2.0663,-2.0332,-2.0119,-2.0653,-2.0666,-2.1008,-2.2464,-2.3004,-2.3625,-2.4639,-2.4923,-2.4946,-2.4812,-2.4778,-2.487,-2.5163,-2.5373,-2.5511,-2.5509,-2.5356,-2.5072,-2.4557,-2.3199,-2.1952,-2.0857,-1.9662,-1.875,-1.8092,-1.8092,-1.7814,-1.7312,-1.7814,-1.8092,-1.8092,-1.8664,-1.9192,2.1547,2.1045,2.0858,2.0993,2.1581,2.2452,2.3412,2.3543,2.361,2.4159,2.4062,2.3963,2.4173,2.6099,2.7016,2.497,2.601,2.6032,2.3056,2.138,2.022,1.9396,1.711,1.5437,1.5246,1.4198,1.2942,1.1501,1.2009,1.1806,1.0554,0.8722,0.7007,0.5503,0.5325,0.4394,0.2695,0.1653,0.0999,0.0741,-0.0057,-0.0679,-0.1001,-0.1724,-0.2717,-0.3814,-0.4136,-0.5479,-0.7465,-0.7465,-0.8515,-1.0242,-1.068,-1.1544,-1.2695,-1.3457,-1.4935,-1.6715,-1.7585,-1.8691,-1.9875,-2.0574,-2.145,-2.213,-2.1698,-2.1425,-2.1148,-2.0501,-1.9984,-1.969,-1.969,-1.9984,-2.0299,-2.0299,-2.0665,-2.1118,-2.1521,-2.1253,-2.1164,-2.1744,-2.199,-2.2422,-2.3327,-2.3776,-2.4197,-2.4778,-2.5043,-2.5152,-2.5194,-2.524,-2.5274,-2.5274,-2.5409,-2.5499,-2.5496,-2.5306,-2.4929,-2.445,-2.3033,-2.1746,-2.0766,-1.9516,-1.8664,-1.8092,-1.8092,-1.7933,-1.7653,-1.8171,-1.8444,-1.8444,-1.92,-1.9702,2.1625,2.086,2.0336,2.0713,2.0921,2.0941,2.069,1.9418,1.855,1.9529,1.9569,1.9978,2.1857,2.4679,2.6204,2.4607,2.5529,2.5606,2.3174,2.1459,2.0241,1.9745,1.6675,1.469,1.4832,1.3171,1.1896,1.1476,1.0824,0.9567,0.7442,0.679,0.5582,0.348,0.3431,0.2635,0.096,-0.0062,-0.0851,-0.1474,-0.2291,-0.2653,-0.2742,-0.3329,-0.4033,-0.486,-0.5504,-0.6956,-0.8842,-0.8947,-0.9761,-1.1065,-1.2337,-1.3253,-1.3986,-1.5061,-1.6591,-1.8171,-1.8579,-1.936,-2.0299,-2.0702,-2.1116,-2.1521,-2.1395,-2.1117,-2.0829,-2.04,-2.0054,-1.9767,-1.9839,-2.0158,-2.0467,-2.0467,-2.0829,-2.1244,-2.1612,-2.1731,-2.196,-2.2695,-2.3282,-2.3732,-2.3774,-2.4192,-2.451,-2.4596,-2.4714,-2.4866,-2.5116,-2.5245,-2.5305,-2.5383,-2.5379,-2.5392,-2.5457,-2.5192,-2.4813,-2.4301,-2.2987,-2.1779,-2.0671,-1.9652,-1.8788,-1.821,-1.8288,-1.8288,-1.821,-1.8827,-1.9121,-1.9159,-2.0132,-2.0612,2.1004,2.0048,1.9533,1.9722,1.8046,1.6328,1.6205,1.366,1.1635,1.295,1.486,1.6935,1.9152,2.2991,2.5776,2.5694,2.5904,2.5634,2.4371,2.2795,2.1032,1.9189,1.6874,1.4792,1.328,1.1877,1.0013,0.7415,0.7131,0.717,0.7364,0.5656,0.3718,0.1657,0.0997,0.013,-0.1112,-0.1888,-0.2689,-0.3505,-0.3362,-0.4059,-0.5345,-0.5187,-0.5837,-0.7117,-0.7278,-0.8171,-0.9651,-1.0202,-1.0897,-1.1715,-1.254,-1.3552,-1.456,-1.4789,-1.6225,-1.8092,-1.821,-1.8902,-1.9945,-2.0699,-2.1055,-2.1023,-2.0634,-2.0467,-2.04,-2.0299,-2.0261,-2.0296,-2.0665,-2.1086,-2.1399,-2.1399,-2.1735,-2.2094,-2.218,-2.2364,-2.2721,-2.3374,-2.361,-2.3795,-2.4056,-2.4339,-2.4493,-2.453,-2.47,-2.4809,-2.485,-2.506,-2.5274,-2.5476,-2.5339,-2.5206,-2.5153,-2.4858,-2.4376,-2.3692,-2.2941,-2.1866,-2.0376,-2.0165,-1.9636,-1.8779,-1.9192,-1.9192,-1.8779,-1.9853,-2.0385,-2.0408,-2.1504,-2.2294,2.1502,2.0147,1.8974,1.8689,1.6725,1.4268,1.2026,0.8298,0.5526,0.6371,0.8633,1.1608,1.5402,2.0475,2.4053,2.4222,2.5037,2.5129,2.3445,2.2039,2.0591,1.9041,1.5981,1.3623,1.2852,1.0651,0.826,0.5743,0.4956,0.4486,0.4235,0.2257,0.0641,-0.0347,-0.1733,-0.2672,-0.3139,-0.4389,-0.5172,-0.5465,-0.5616,-0.6087,-0.6769,-0.7006,-0.7475,-0.8173,-0.8577,-0.9412,-1.0604,-1.1133,-1.2146,-1.3323,-1.3931,-1.4748,-1.566,-1.6341,-1.7453,-1.8698,-1.9317,-2.0059,-2.0813,-2.1228,-2.1023,-2.0565,-2.0124,-2.0296,-2.0632,-2.0366,-2.0499,-2.0731,-2.0926,-2.1306,-2.1582,-2.1582,-2.2051,-2.2554,-2.2738,-2.3007,-2.3305,-2.3631,-2.3837,-2.4016,-2.417,-2.4303,-2.4339,-2.4339,-2.4428,-2.451,-2.4623,-2.4766,-2.4904,-2.512,-2.5067,-2.4984,-2.4964,-2.4708,-2.434,-2.3777,-2.3024,-2.2187,-2.1205,-2.0863,-2.0333,-1.9636,-1.9879,-1.9879,-1.9636,-2.0613,-2.1239,-2.1463,-2.2826,-2.3588,2.202,2.0525,1.893,1.7947,1.5418,1.2035,0.7882,0.2941,-0.0562,0.0047,0.2438,0.5946,1.1094,1.7042,2.1374,2.1892,2.3139,2.356,2.2038,2.0657,1.9327,1.8156,1.4789,1.2234,1.1638,0.8909,0.6222,0.3947,0.2077,0.0941,0.068,-0.1251,-0.2469,-0.2684,-0.4324,-0.5318,-0.5467,-0.6777,-0.7426,-0.74,-0.7797,-0.796,-0.8088,-0.8798,-0.9066,-0.9124,-0.9891,-1.0714,-1.1506,-1.2155,-1.3215,-1.4587,-1.5279,-1.5957,-1.6714,-1.783,-1.8731,-1.9419,-2.0497,-2.1263,-2.1695,-2.1695,-2.1212,-2.0518,-2.0219,-2.069,-2.124,-2.1004,-2.1114,-2.1408,-2.1697,-2.1882,-2.1993,-2.2082,-2.2569,-2.3006,-2.3248,-2.3522,-2.3732,-2.3795,-2.4016,-2.419,-2.419,-2.419,-2.419,-2.419,-2.419,-2.4266,-2.4428,-2.4445,-2.4513,-2.4654,-2.4716,-2.4731,-2.4731,-2.4543,-2.4265,-2.3948,-2.3244,-2.2591,-2.2124,-2.1516,-2.0991,-2.0434,-2.0624,-2.0686,-2.0686,-2.1596,-2.2356,-2.2867,-2.4238,-2.4978,2.1744,2.0877,1.9857,1.7861,1.3037,0.7715,0.3687,-0.26,-0.7182,-0.5812,-0.2652,0.1422,0.6429,1.2453,1.7411,1.9548,1.9746,2.0048,2.1127,1.9361,1.718,1.5234,1.3738,1.1398,0.7842,0.5936,0.3632,0.0499,-0.3329,-0.4284,-0.1473,-0.3246,-0.4762,-0.5587,-0.6674,-0.7592,-0.8393,-0.8323,-0.8684,-0.9397,-0.8903,-0.9101,-0.9879,-1.0407,-1.0679,-1.0721,-1.1527,-1.1958,-1.2147,-1.3437,-1.411,-1.4353,-1.5734,-1.668,-1.7291,-1.7956,-1.8895,-1.9918,-2.0668,-2.1263,-2.1695,-2.1695,-2.1644,-2.1594,-2.1515,-2.1881,-2.2342,-2.2734,-2.2701,-2.2795,-2.3869,-2.3722,-2.3304,-2.3612,-2.3722,-2.3755,-2.3665,-2.3689,-2.3795,-2.4075,-2.417,-2.419,-2.419,-2.419,-2.419,-2.419,-2.419,-2.4209,-2.4228,-2.4228,-2.4228,-2.4266,-2.4428,-2.451,-2.451,-2.4339,-2.4075,-2.3738,-2.3653,-2.3153,-2.2152,-2.204,-2.1665,-2.0959,-2.1599,-2.1919,-2.1919,-2.3295,-2.4403,-2.5236,-2.5947,-2.6771,2.3083,2.2138,2.0753,1.8327,1.2966,0.68,0.1138,-0.4807,-0.9407,-1.0532,-0.6836,-0.2219,0.1675,0.7338,1.2225,1.4484,1.5747,1.6673,1.7367,1.5969,1.4386,1.2994,1.0574,0.7881,0.5041,0.288,0.0,-0.4066,-0.7012,-0.802,-0.6556,-0.7102,-0.7626,-0.7935,-0.8965,-0.9656,-0.9969,-1.0924,-1.1545,-1.1902,-1.1783,-1.2022,-1.26,-1.2567,-1.253,-1.253,-1.3186,-1.328,-1.3138,-1.4659,-1.5497,-1.6081,-1.7804,-1.861,-1.9089,-2.0533,-2.131,-2.1785,-2.2336,-2.2931,-2.346,-2.346,-2.3191,-2.2682,-2.1934,-2.2217,-2.2853,-2.3032,-2.3457,-2.3869,-2.436,-2.4286,-2.4198,-2.4758,-2.4857,-2.4969,-2.5361,-2.5455,-2.5497,-2.5638,-2.5658,-2.5658,-2.5658,-2.5658,-2.5474,-2.4997,-2.4924,-2.474,-2.4263,-2.419,-2.419,-2.419,-2.4284,-2.4303,-2.4303,-2.4247,-2.4334,-2.4709,-2.4541,-2.4134,-2.351,-2.3784,-2.3304,-2.2051,-2.2802,-2.3161,-2.3194,-2.4208,-2.5113,-2.5945,-2.6883,-2.7654,2.3996,2.2469,2.0172,1.683,1.1121,0.4604,-0.1861,-0.6858,-1.073,-1.2676,-0.9249,-0.4998,-0.1928,0.2971,0.7333,0.9573,1.1471,1.2899,1.3427,1.255,1.1476,1.0409,0.7483,0.4683,0.2474,-0.0464,-0.3786,-0.7443,-0.9527,-1.0606,-1.029,-1.0582,-1.0413,-0.9744,-1.1007,-1.1675,-1.1675,-1.304,-1.3731,-1.3731,-1.3623,-1.3797,-1.4112,-1.4035,-1.3979,-1.4059,-1.5014,-1.521,-1.5002,-1.6614,-1.7584,-1.8195,-1.9734,-2.0544,-2.0961,-2.258,-2.3235,-2.3472,-2.3792,-2.4358,-2.4866,-2.4448,-2.4148,-2.3699,-2.2592,-2.2956,-2.3711,-2.3711,-2.4378,-2.5101,-2.4864,-2.4966,-2.5285,-2.5727,-2.5853,-2.5989,-2.6483,-2.6612,-2.6612,-2.6612,-2.6612,-2.6612,-2.6612,-2.6612,-2.6429,-2.5841,-2.5568,-2.5201,-2.463,-2.4337,-2.419,-2.419,-2.419,-2.419,-2.419,-2.419,-2.452,-2.5348,-2.5199,-2.4996,-2.4908,-2.5086,-2.4654,-2.3432,-2.4046,-2.4381,-2.4381,-2.5246,-2.6175,-2.7093,-2.7996,-2.8748,2.4062,2.1334,1.7523,1.2538,0.6428,0.0087,-0.587,-0.9516,-1.1688,-1.1693,-0.9511,-0.672,-0.3984,-0.0295,0.3123,0.5501,0.7082,0.848,0.9846,0.9405,0.8417,0.7104,0.5048,0.2695,0.0089,-0.4426,-0.7779,-0.8968,-1.0867,-1.1747,-1.149,-1.3174,-1.3098,-1.087,-1.2631,-1.3665,-1.3665,-1.4375,-1.4678,-1.4678,-1.3949,-1.36,-1.3663,-1.4497,-1.487,-1.5013,-1.7042,-1.7985,-1.8086,-1.9703,-2.0402,-2.0514,-2.1277,-2.2049,-2.272,-2.3426,-2.4115,-2.4675,-2.4608,-2.5046,-2.5375,-2.4059,-2.4059,-2.4433,-2.3789,-2.4318,-2.5189,-2.5189,-2.5895,-2.6488,-2.5778,-2.6116,-2.6652,-2.6683,-2.6674,-2.665,-2.6607,-2.6612,-2.6612,-2.6612,-2.6612,-2.6612,-2.6612,-2.6612,-2.6612,-2.6612,-2.5915,-2.5421,-2.5384,-2.4667,-2.419,-2.419,-2.419,-2.419,-2.419,-2.419,-2.452,-2.5348,-2.5421,-2.5591,-2.6067,-2.5704,-2.5367,-2.5073,-2.5422,-2.5609,-2.5609,-2.6705,-2.7897,-2.9053,-2.9422,-3.0239,1.8279,1.6775,1.4116,0.9763,0.4371,-0.1021,-0.5589,-0.9096,-1.1386,-1.1216,-0.9507,-0.7448,-0.5478,-0.2919,-0.0257,0.2315,0.3531,0.4837,0.6793,0.6275,0.536,0.4397,0.0828,-0.2282,-0.396,-0.765,-1.0058,-1.0433,-1.2337,-1.3448,-1.3646,-1.4156,-1.3928,-1.2792,-1.4011,-1.4744,-1.4744,-1.56,-1.6033,-1.6016,-1.5798,-1.588,-1.6225,-1.6789,-1.6799,-1.6578,-1.8803,-1.9254,-1.8408,-1.9738,-2.0346,-2.0646,-2.187,-2.2226,-2.2241,-2.4247,-2.4568,-2.4069,-2.497,-2.5372,-2.552,-2.5622,-2.5166,-2.4642,-2.4896,-2.4823,-2.4831,-2.5524,-2.6576,-2.7402,-2.7165,-2.7672,-2.8288,-2.8263,-2.8293,-2.8279,-2.8213,-2.8242,-2.8242,-2.8242,-2.8242,-2.8242,-2.8242,-2.8242,-2.8044,-2.7493,-2.72,-2.6833,-2.6282,-2.6132,-2.5764,-2.511,-2.5153,-2.4968,-2.4246,-2.419,-2.4777,-2.6135,-2.6209,-2.6322,-2.655,-2.6952,-2.6626,-2.5456,-2.633,-2.6771,-2.6771,-2.7962,-2.9124,-3.0348,-3.0675,-3.1052,0.0,1.166,0.911,0.5415,0.1053,-0.3268,-0.6766,-0.9034,-1.0279,-0.9828,-0.8738,-0.749,-0.6216,-0.4803,-0.3159,-0.1118,0.0208,0.1606,0.3347,0.2923,0.1829,0.0,-0.2851,-0.5401,-0.7161,-0.9648,-1.1273,-1.1822,-1.3163,-1.4104,-1.4599,-1.4835,-1.495,-1.4816,-1.5367,-1.572,-1.572,-1.6645,-1.7148,-1.7129,-1.7023,-1.716,-1.756,-1.7823,-1.7793,-1.7707,-1.9621,-1.9938,0.0,-2.028,-2.1081,-2.1747,-2.2433,-2.2881,-2.3349,-2.471,-2.4684,-2.412,-2.4911,-2.5364,-2.5561,-2.5812,-2.5465,-2.5062,-2.544,-2.5161,-2.4981,-2.6327,-2.7226,-2.7875,-2.818,-2.8619,-2.9073,-2.9382,-2.9425,-2.9454,-2.9479,-2.9475,-2.9365,-2.9049,-2.8975,-2.9085,-2.9402,-2.9195,-2.8925,-2.8741,-2.8264,-2.7738,-2.7221,-2.7103,-2.6837,-2.6191,-2.6221,-2.6051,-2.541,-2.4912,-2.5328,-2.6943,-2.7053,-2.7228,-2.7605,-2.7951,-2.7649,-2.6666,-2.7243,-2.7547,-2.7547,-2.9047,-3.0384,-3.1547,-3.2078,-3.2302,0.0,0.5785,0.2898,-0.0177,-0.3311,-0.6299,-0.9037,0.0,0.0,0.0,-0.7418,-0.6938,-0.6282,-0.5866,-0.5325,-0.441,-0.2743,-0.1253,-0.0403,-0.0507,-0.1841,-0.5181,-0.5937,-0.7001,-0.9208,-1.0499,-1.1699,-1.2869,-1.3332,-1.3897,-1.4632,-1.5284,-1.5952,-1.6645,-1.6715,-1.6715,-1.6715,-1.7541,-1.7988,-1.8008,-1.7644,-1.76,-1.7843,-1.7924,-1.8132,-1.8452,-1.9703,-2.026,-2.0294,-2.1138,-2.2269,-2.3478,-2.2793,-2.374,-2.5359,-2.4791,-2.457,-2.4549,-2.4637,-2.5041,-2.5408,-2.4845,-2.5136,-2.5711,-2.5679,-2.5462,-2.5637,-2.7353,-2.7874,-2.8078,-2.8856,-2.913,-2.9382,-3.0117,-3.0269,-3.0332,-3.0282,-3.0246,-2.9989,-2.9232,-2.9085,-2.9305,-3.0063,-2.9622,-2.9402,-3.0099,-2.9095,-2.8239,-2.8221,-2.7783,-2.744,-2.7403,-2.738,-2.738,-2.7403,-2.6228,-2.6176,-2.7721,-2.7809,-2.8154,-2.8915,-2.859,-2.8412,-2.8458,-2.8235,-2.8131,-2.823,-3.016,-3.1683,-3.2816,-3.3587,-3.399,-0.4983,0.0,-0.2475,-0.4831,-0.6494,-0.7926,0.0,0.0,0.0,0.0,0.0,0.0,0.0,-0.5769,-0.5461,-0.4599,-0.4146,-0.3643,-0.2882,-0.297,-0.3765,-0.5233,-0.642,-0.7677,-0.8877,-1.1008,-1.2292,-1.2273,-1.3117,-1.4106,-1.5268,-1.5511,-1.6258,-1.7666,-1.7647,-1.7647,-1.7647,-1.7542,-1.7695,-1.8008,-1.8198,-1.8363,-1.8428,-1.9351,-1.9598,-1.938,-2.066,-2.094,-2.0623,-2.0786,-2.1668,-2.2765,-2.218,-2.2517,-2.346,-2.4297,-2.3967,-2.3294,-2.4852,-2.5129,-2.4867,-2.523,-2.6122,-2.704,-2.6925,-2.6436,-2.6262,-2.7712,-2.8397,-2.889,-2.9634,-3.0509,-3.1114,-3.1064,-3.1301,-3.1477,-3.1174,-3.0613,-3.0136,-2.9953,-2.9916,-2.9989,-3.0173,-3.054,-3.0687,-3.0246,-2.9913,-2.9547,-2.915,-2.9138,-2.8919,-2.8294,-2.8373,-2.8403,-2.8234,-2.7211,-2.6971,-2.7974,-2.788,-2.8004,-2.8529,-2.8464,-2.8559,-2.892,-2.9761,-3.0595,-3.1482,-3.2584,-3.3579,-3.444,-3.5312,-3.5716,-0.9673,-0.7882,-0.6209,-0.6998,-0.7466,-0.7673,0.0,0.0,0.0,0.0,0.0,0.0,0.0,0.0,-0.5835,-0.5249,-0.5085,-0.4884,-0.4466,-0.4759,-0.5512,-0.6802,-0.8004,-0.9249,-1.0662,-1.1916,-1.2715,-1.2966,-1.3654,-1.4535,-1.5569,-1.5897,-1.6652,-1.794,-1.7812,-1.7715,-1.7715,-1.75,-1.75,-1.7715,-1.8291,-1.868,-1.8757,-1.9818,-2.0049,-1.9731,-2.0403,-2.0539,-2.0263,-2.0263,-2.1224,-2.2594,-2.1959,-2.247,-2.3612,-2.3985,-2.3489,-2.2866,-2.422,-2.4637,-2.4593,-2.4997,-2.623,-2.7515,-2.736,-2.7469,-2.7818,-2.8766,-2.9278,-2.9743,-3.0609,-3.1347,-3.1846,-3.2097,-3.2367,-3.2343,-3.1565,-3.1054,-3.065,-3.0283,-3.021,-3.043,-3.1164,-3.1347,-3.1237,-3.0834,-3.0627,-3.0288,-2.9626,-2.9834,-2.9802,-2.927,-2.9284,-2.9406,-2.9599,-2.8989,-2.876,-2.9208,-2.94,-2.9551,-2.978,-2.9755,-2.9922,-3.0134,-3.0793,-3.1608,-3.2596,-3.3403,-3.4211,-3.5027,-3.5899,-3.6303,-1.0965,-0.9997,-0.8844,-0.8086,-0.7322,-0.6616,-0.5854,0.0,0.0,0.0,0.0,0.0,0.0,-0.5969,0.0,-0.6112,-0.6013,-0.5902,-0.5763,-0.6492,-0.7498,-0.879,-0.9892,-1.1247,-1.2661,-1.2833,-1.3176,-1.3957,-1.4365,-1.4881,-1.5569,-1.6209,-1.6991,-1.794,-1.7656,-1.7441,-1.7383,-1.7383,-1.7344,-1.7285,-1.8402,-1.8908,-1.897,-1.9936,-2.0207,-1.9936,-1.9836,-1.9811,-1.9811,-1.9811,-2.0858,-2.2505,-2.1904,-2.2844,-2.4388,-2.3819,-2.3216,-2.2774,-2.3255,-2.3846,-2.4417,-2.4595,-2.5905,-2.7457,-2.7634,-2.8502,-2.9582,-3.0176,-3.0289,-3.0469,-3.1526,-3.1915,-3.223,-3.3014,-3.3262,-3.298,-3.1847,-3.1494,-3.1201,-3.0503,-3.0393,-3.087,-3.2339,-3.2155,-3.1715,-3.1604,-3.1325,-3.0885,-3.0113,-3.0373,-3.0557,-3.035,-3.0335,-3.0522,-3.1035,-3.1009,-3.0974,-3.0974,-3.1223,-3.1384,-3.1384,-3.1531,-3.1568,-3.1568,-3.1825,-3.2302,-3.2999,-3.3917,-3.4724,-3.5394,-3.6266,-3.667,-1.1796,-1.1115,-1.031,-0.9392,-0.7725,-0.6352,-0.6506,0.0,0.0,0.0,0.0,0.0,0.0,-0.6017,-0.6139,-0.6369,-0.7644,-0.8197,-0.7396,-0.9407,-1.0482,-0.905,-1.1038,-1.2411,-1.2134,-1.3188,-1.386,-1.3652,-1.4237,-1.4881,-1.5569,-1.6209,-1.6991,-1.794,-1.7949,-1.7734,-1.7383,-1.7383,-1.7207,-1.6836,-1.9212,-1.9861,-1.9112,-2.0595,-2.1031,-2.0567,-2.0012,-1.9811,-1.9811,-1.9811,-2.0623,-2.1848,-2.1738,-2.2512,-2.3759,-2.364,-2.3238,-2.267,-2.2552,-2.2955,-2.3671,-2.4712,-2.5886,-2.7232,-2.8534,-2.9648,-3.0626,-3.1351,-3.1077,-3.0802,-3.1598,-3.24,-3.3014,-3.3166,-3.3465,-3.3469,-3.2606,-3.1861,-3.1347,-3.1237,-3.1201,-3.1494,-3.2449,-3.3073,-3.3183,-3.2522,-3.2378,-3.212,-3.1555,-3.1549,-3.1634,-3.177,-3.1788,-3.1808,-3.1921,-3.2371,-3.2627,-3.2627,-3.185,-3.1384,-3.1384,-3.2045,-3.2412,-3.2412,-3.377,-3.4513,-3.4623,-3.6193,-3.7,-3.7147,-3.7955,-3.8322,-1.2938,-1.185,-1.042,-0.8884,-0.6984,-0.5267,-0.4428,0.0,0.0,0.0,0.0,0.0,0.0,-0.6295,-0.6668,-0.7122,-0.8218,-0.886,-0.852,-1.0433,-1.1554,-1.0804,-1.2143,-1.3058,-1.3105,-1.4227,-1.4531,-1.344,-1.5203,-1.5997,-1.5435,-1.6666,-1.7579,-1.8008,-1.8008,-1.7812,-1.7383,-1.8041,-1.7941,-1.709,-1.891,-1.9499,-1.903,-2.0419,-2.074,-2.0188,-1.9911,-1.9811,-1.9811,-1.9811,-2.057,-2.171,-2.171,-2.2455,-2.355,-2.3221,-2.2847,-2.2452,-2.2347,-2.2667,-2.3205,-2.3782,-2.5212,-2.6814,-2.7517,-2.9281,-3.1075,-3.1426,-3.1285,-3.1247,-3.2287,-3.2215,-3.2184,-3.3247,-3.3003,-3.2412,-3.2045,-3.1641,-3.1384,-3.1384,-3.1751,-3.2302,-3.3109,-3.355,-3.355,-3.2742,-3.2723,-3.2562,-3.1883,-3.1885,-3.1969,-3.1948,-3.1927,-3.2051,-3.2344,-3.2612,-3.2982,-3.3389,-3.2967,-3.2706,-3.2706,-3.3036,-3.344,-3.389,-3.4623,-3.521,-3.5716,-3.7082,-3.772,-3.7748,-3.8728,-3.91,-1.3862,-1.2434,-1.0451,-0.8357,-0.6161,-0.411,-0.2683,0.0,0.0,0.0,0.0,0.0,0.0,-0.6777,-0.7418,-0.8251,-0.8916,-0.9397,-0.9705,-1.1273,-1.2407,-1.2374,-1.3054,-1.3667,-1.4055,-1.5061,-1.5174,-1.3909,-1.6207,-1.7146,-1.5884,-1.719,-1.8008,-1.8008,-1.8008,-1.7852,-1.7539,-1.868,-1.8709,-1.7551,-1.9047,-1.9508,-1.9086,-2.0336,-2.0464,-1.9811,-1.9811,-1.9811,-1.9811,-1.9965,-2.072,-2.171,-2.1852,-2.2534,-2.3353,-2.2776,-2.2391,-2.209,-2.2123,-2.2378,-2.2724,-2.309,-2.458,-2.6277,-2.6742,-2.8876,-3.1244,-3.1479,-3.1581,-3.1821,-3.2673,-3.2068,-3.1565,-3.2947,-3.2302,-3.1347,-3.1164,-3.1274,-3.1384,-3.1384,-3.2045,-3.2852,-3.366,-3.3807,-3.3587,-3.2963,-3.3031,-3.2956,-3.2349,-3.2381,-3.2446,-3.2261,-3.2275,-3.244,-3.2852,-3.2889,-3.3146,-3.377,-3.3807,-3.3807,-3.3807,-3.399,-3.4385,-3.5118,-3.5487,-3.603,-3.6804,-3.7813,-3.8278,-3.8315,-3.9185,-3.9462,-1.4097,-1.2802,-1.1107,-0.845,-0.5604,0.0,-0.2795,-0.2023,0.0,-0.3808,0.0,0.0,0.0,-0.7512,-0.8226,-0.9798,-1.0399,-1.0737,-1.0908,-1.3129,-1.4192,-1.2786,-1.3635,-1.4335,-1.4108,-1.5061,-1.5681,-1.5554,-1.6874,-1.7674,-1.7546,-1.7788,-1.8008,-1.8008,-1.8008,-1.7988,-1.7969,-1.8824,-1.8868,-1.7987,-2.0511,-2.0938,-1.9594,-2.0859,-2.084,-1.9811,-1.9811,-1.9811,-1.9862,-2.0446,-2.1113,-2.1758,-2.2392,-2.2659,-2.2735,-2.2439,-2.1892,-2.1428,-2.1568,-2.1685,-2.1936,-2.3374,-2.4447,-2.554,-2.7424,-2.9377,-3.1128,-3.1955,-3.2354,-3.2437,-3.2141,-3.2301,-3.2324,-3.1715,-3.1458,-3.1201,-3.0467,-3.087,-3.1384,-3.1384,-3.2045,-3.2852,-3.366,-3.3807,-3.377,-3.3733,-3.3723,-3.3723,-3.365,-3.3676,-3.3676,-3.365,-3.365,-3.3687,-3.3697,-3.3697,-3.3733,-3.3807,-3.3807,-3.3807,-3.3807,-3.4541,-3.5071,-3.5466,-3.6956,-3.7866,-3.8252,-3.9104,-3.9482,-3.9482,-3.958,-3.958,-1.4606,-1.3144,-1.1335,-0.8906,0.0,0.0,0.0,-0.1689,-0.1942,-0.3063,-0.4146,0.0,-0.7596,-0.871,-0.935,-0.941,-1.0845,-1.1894,-1.1324,-1.3249,-1.4467,-1.3811,-1.409,-1.4202,-1.4095,-1.5628,-1.6343,-1.5493,-1.7464,-1.834,-1.7424,-1.7764,-1.8008,-1.8008,-1.8529,-1.8777,-1.8777,-2.0204,-2.0728,-2.0403,-2.1026,-2.1009,-2.0474,-2.1181,-2.1066,-2.0338,-2.0338,-2.0398,-2.0446,-2.0696,-2.1403,-2.2392,-2.3009,-2.2782,-2.2104,-2.2233,-2.1771,-2.1242,-2.2018,-2.227,-2.2556,-2.413,-2.513,-2.604,-2.781,-2.9704,-3.1378,-3.225,-3.29,-3.3193,-3.252,-3.1759,-3.1164,-3.1347,-3.065,-2.9953,-3.0173,-3.0834,-3.1384,-3.1384,-3.2852,-3.4183,-3.4504,-3.5018,-3.5165,-3.4651,-3.4578,-3.4394,-3.3844,-3.3807,-3.3807,-3.3807,-3.4247,-3.4578,-3.4578,-3.5055,-3.5349,-3.5349,-3.4871,-3.4578,-3.4578,-3.5531,-3.6345,-3.6982,-3.7778,-3.8545,-3.9127,-3.9667,-4.0169,-4.0663,-4.0864,-4.1169,-1.4926,-1.3552,-1.1834,0.0,0.0,0.0,-0.3547,-0.2622,-0.2466,-0.3249,-0.4951,-0.6993,-0.9054,-0.9955,-1.0471,-1.0405,-1.1663,-1.2563,-1.2215,-1.3436,-1.4389,-1.4389,-1.4215,-1.4082,-1.4082,-1.6041,-1.6863,-1.5792,-1.7983,-1.8793,-1.771,-1.7877,-1.8008,-1.8008,-1.8844,-1.9309,-1.9309,-2.1037,-2.1877,-2.1877,-2.174,-2.1596,-2.1426,-2.1492,-2.1192,-2.0718,-2.0729,-2.0784,-2.0845,-2.1237,-2.2021,-2.3009,-2.3406,-2.2951,-2.2074,-2.264,-2.237,-2.1826,-2.2895,-2.3279,-2.3495,-2.4705,-2.5659,-2.6597,-2.8154,-2.9917,-3.1593,-3.2477,-3.3261,-3.3623,-3.2816,-3.1604,-3.0577,-3.0613,-2.9806,-2.9122,-2.9696,-3.065,-3.1384,-3.1384,-3.3146,-3.4697,-3.4954,-3.5495,-3.5789,-3.5459,-3.5422,-3.5202,-3.4651,-3.4578,-3.4578,-3.4578,-3.5092,-3.5422,-3.5422,-3.5973,-3.6303,-3.6303,-3.6049,-3.5809,-3.5551,-3.6621,-3.7553,-3.8197,-3.8704,-3.9364,-4.0283,-4.054,-4.1036,-4.1858,-4.2096,-4.2424,-1.5017,-1.3903,-1.2665,0.0,0.0,0.0,-0.7285,-0.5073,-0.3518,-0.4733,-0.718,-0.9653,-1.1397,-1.1359,-1.1582,-1.329,-1.2841,-1.276,-1.3899,-1.4082,-1.4082,-1.4082,-1.4082,-1.4082,-1.4082,-1.6041,-1.7088,-1.6711,-1.8284,-1.9102,-1.8582,-1.8242,-1.8008,-1.8008,-1.8844,-1.9309,-1.9309,-2.1037,-2.1877,-2.1939,-2.2702,-2.2849,-2.2297,-2.1744,-2.1192,-2.0693,-2.0757,-2.0795,-2.0944,-2.2189,-2.3054,-2.361,-2.361,-2.3221,-2.2817,-2.3746,-2.3706,-2.3275,-2.421,-2.4523,-2.4584,-2.4942,-2.5827,-2.7068,-2.8408,-3.0026,-3.1618,-3.2683,-3.3352,-3.3623,-3.279,-3.2008,-3.1017,-2.9402,-2.9012,-2.8975,-2.9012,-3.0283,-3.1384,-3.1384,-3.2706,-3.4064,-3.488,-3.5027,-3.5349,-3.6193,-3.6303,-3.6303,-3.6303,-3.6303,-3.6303,-3.6303,-3.6303,-3.6303,-3.6303,-3.6303,-3.6303,-3.6303,-3.733,-3.7578,-3.6758,-3.7821,-3.8584,-3.8898,-3.9719,-4.0672,-4.1816,-4.1816,-4.2277,-4.3124,-4.3124,-4.3124,-1.5108,-1.4281,0.0,-1.1699,0.0,0.0,0.0,-0.7601,0.0,0.0,-0.916,-1.0393,-1.1051,-1.1784,-1.2171,-1.1866,-1.2443,-1.287,-1.2634,-1.3252,-1.3854,-1.4055,-1.4082,-1.4253,-1.4746,-1.6077,-1.7024,-1.736,-1.8246,-1.8769,-1.8652,-1.8839,-1.8911,-1.8911,-2.0333,-2.1101,-2.1101,-2.2187,-2.2763,-2.2763,-2.3005,-2.2849,-2.2297,-2.2146,-2.1822,-2.1355,-2.1328,-2.1664,-2.2189,-2.3009,-2.3406,-2.361,-2.361,-2.3221,-2.2877,-2.4319,-2.4484,-2.4148,-2.6149,-2.6619,-2.6602,-2.7762,-2.8216,-2.8576,-3.0089,-3.0927,-3.1524,-3.2403,-3.2768,-3.2804,-3.2314,-3.1972,-3.1511,-3.0137,-2.9439,-2.9159,-2.9732,-3.065,-3.1568,-3.2118,-3.4027,-3.5642,-3.5862,-3.6853,-3.7514,-3.7184,-3.711,-3.6927,-3.6376,-3.6303,-3.6303,-3.6303,-3.6817,-3.711,-3.711,-3.7661,-3.8074,-3.8248,-3.9364,-3.9252,-3.7616,-3.9422,-4.0213,-3.9757,-4.1377,-4.2057,-4.1816,-4.2431,-4.3124,-4.3932,-4.3932,-4.4278,-1.6334,-1.527,0.0,-1.315,-1.2214,-1.1461,-1.1315,0.0,0.0,0.0,-1.0959,-1.1106,-1.1853,-1.2332,-1.2372,-1.1787,-1.2531,-1.3028,-1.2525,-1.2969,-1.3534,-1.3721,-1.3734,-1.4062,-1.4815,-1.5858,-1.6792,-1.7347,-1.8128,-1.8695,-1.8863,-1.9122,-1.9441,-1.9814,-2.1164,-2.1877,-2.1877,-2.2702,-2.3065,-2.3065,-2.3424,-2.3109,-2.2368,-2.2368,-2.2076,-2.1588,-2.1907,-2.2404,-2.3098,-2.348,-2.361,-2.361,-2.361,-2.3541,-2.3559,-2.5069,-2.5535,-2.564,-2.7593,-2.8117,-2.8083,-2.9008,-2.9245,-2.9362,-3.0653,-3.117,-3.1476,-3.2254,-3.2466,-3.2426,-3.2255,-3.208,-3.1771,-3.0906,-3.032,-3.0099,-3.0577,-3.1311,-3.2008,-3.2522,-3.4321,-3.5899,-3.6229,-3.7367,-3.8175,-3.7991,-3.7955,-3.7808,-3.7331,-3.7257,-3.7257,-3.7257,-3.7698,-3.7955,-3.7955,-3.884,-3.9452,-3.9602,-4.0839,-4.1041,-3.9835,-4.1223,-4.18,-4.1302,-4.248,-4.3008,-4.2777,-4.3316,-4.4008,-4.4816,-4.4855,-4.5163,-1.8092,0.0,0.0,-1.4775,-1.4094,0.0,-1.3523,-1.2067,-1.1254,-1.3226,-1.2583,-1.205,-1.3301,-1.2868,-1.2466,-1.2914,-1.306,-1.3106,-1.3239,-1.3252,-1.3173,-1.3213,-1.3292,-1.3646,-1.4602,-1.5647,-1.6478,-1.7081,-1.8062,-1.8883,-1.9264,-1.9441,-1.9879,-2.0719,-2.1565,-2.2002,-2.2002,-2.2763,-2.31,-2.311,-2.3852,-2.3593,-2.2458,-2.2511,-2.222,-2.1739,-2.2461,-2.3098,-2.361,-2.361,-2.361,-2.361,-2.361,-2.3952,-2.4575,-2.5918,-2.6756,-2.7415,-2.8743,-2.9194,-2.9194,-2.9194,-2.9416,-2.9799,-3.0491,-3.1009,-3.1417,-3.219,-3.2401,-3.2401,-3.2435,-3.2197,-3.191,-3.1571,-3.1444,-3.1421,-3.1494,-3.2082,-3.2632,-3.2706,-3.4027,-3.5385,-3.6156,-3.7037,-3.7845,-3.8579,-3.8762,-3.8799,-3.8726,-3.8762,-3.8799,-3.8799,-3.8799,-3.8836,-3.897,-3.9917,-4.0514,-4.0595,-4.192,-4.2716,-4.2736,-4.3059,-4.3162,-4.3085,-4.3239,-4.3662,-4.4316,-4.4393,-4.4816,-4.5586,-4.5719,-4.5796,-1.8575,-1.784,0.0,0.0,-1.4382,-1.3966,-1.4745,-1.4289,-1.3737,-1.3507,-1.342,-1.3478,-1.3759,-1.318,-1.2957,-1.3956,-1.3028,-1.2613,-1.3838,-1.3376,-1.2933,-1.3186,-1.3817,-1.4543,-1.5327,-1.6258,-1.7063,-1.7751,-1.865,-1.9214,-1.9309,-2.059,-2.1439,-2.1628,-2.2433,-2.2823,-2.2823,-2.3005,-2.3137,-2.3254,-2.3424,-2.3177,-2.2569,-2.3111,-2.3031,-2.2498,-2.3112,-2.345,-2.361,-2.361,-2.361,-2.361,-2.361,-2.3996,-2.4758,-2.6493,-2.7557,-2.8345,-3.0101,-3.0717,-3.0717,-3.0717,-3.0794,-3.087,-3.104,-3.1151,-3.1261,-3.1397,-3.1504,-3.1545,-3.1878,-3.1917,-3.1915,-3.22,-3.1836,-3.1568,-3.2228,-3.2485,-3.2816,-3.344,-3.4871,-3.6083,-3.6266,-3.7477,-3.8505,-3.8689,-3.9239,-3.9423,-3.8799,-3.9239,-3.9643,-3.9643,-3.9643,-4.0019,-4.0903,-4.1175,-4.1552,-4.2085,-4.3073,-4.3713,-4.3939,-4.3991,-4.3739,-4.3124,-4.4393,-4.4816,-4.4316,-4.497,-4.5432,-4.5586,-4.5624,-4.5624,-2.0778,0.0,0.0,-1.7113,0.0,-1.5303,-1.5731,-1.5457,-1.4884,-1.4459,-1.4188,-1.4076,-1.4076,-1.3526,-1.3294,-1.4179,-1.3623,-1.3353,-1.3859,-1.3563,-1.3262,-1.3431,-1.3885,-1.4692,-1.5956,-1.6528,-1.7283,-1.8529,-1.9044,-1.9683,-2.0526,-2.1439,-2.2063,-2.2457,-2.2884,-2.3305,-2.3662,-2.3662,-2.3759,-2.3797,-2.4177,-2.4068,-2.355,-2.3291,-2.314,-2.3143,-2.345,-2.361,-2.361,-2.361,-2.361,-2.361,-2.361,-2.4173,-2.519,-2.6798,-2.7962,-2.9041,-3.065,-3.119,-3.119,-3.119,-3.119,-3.119,-3.119,-3.119,-3.119,-3.119,-3.119,-3.1269,-3.1432,-3.166,-3.1844,-3.2092,-3.2215,-3.2393,-3.2802,-3.3049,-3.3403,-3.4211,-3.5422,-3.6413,-3.6817,-3.7881,-3.8982,-3.9753,-3.9863,-3.9753,-3.9313,-3.9643,-3.9753,-3.935,-3.968,-4.0142,-4.0755,-4.1773,-4.2561,-4.2898,-4.4055,-4.4786,-4.4932,-4.4932,-4.4739,-4.4316,-4.5163,-4.5355,-4.4932,-4.5355,-4.5586,-4.5586,-4.568,-4.5719,0.0,0.0,-1.9943,-1.9152,-1.787,0.0,-1.6856,-1.6291,-1.5796,-1.5796,-1.504,-1.4392,-1.4392,-1.3969,-1.3844,-1.4425,-1.4513,-1.4466,-1.4268,-1.4027,-1.3954,-1.3954,-1.4099,-1.4799,-1.6419,-1.6784,-1.7541,-1.9177,-1.942,-2.0204,-2.1815,-2.2002,-2.2396,-2.3065,-2.3065,-2.3484,-2.4279,-2.4279,-2.4332,-2.4385,-2.4912,-2.4945,-2.4373,-2.3362,-2.3143,-2.361,-2.361,-2.361,-2.361,-2.3729,-2.3789,-2.3789,-2.3909,-2.4623,-2.579,-2.7095,-2.8281,-2.9412,-3.0757,-3.119,-3.1224,-3.1326,-3.1292,-3.1224,-3.1326,-3.1292,-3.119,-3.119,-3.119,-3.119,-3.119,-3.1432,-3.1733,-3.1771,-3.2573,-3.3286,-3.3202,-3.3632,-3.4211,-3.4844,-3.5936,-3.6927,-3.7588,-3.8505,-3.9533,-4.0708,-4.0561,-4.0194,-3.9937,-4.001,-3.9863,-3.9203,-3.9717,-4.0226,-4.0578,-4.2352,-4.3453,-4.353,-4.4739,-4.5438,-4.5438,-4.5475,-4.5494,-4.5494,-4.5568,-4.5586,-4.5586,-4.5586,-4.5586,-4.5586,-4.5719,-4.5757,0.0,0.0,-2.1189,0.0,-1.9354,-1.833,0.0,0.0,-1.7302,-1.7302,-1.6177,-1.5235,-1.5235,-1.4963,-1.506,-1.6198,-1.5398,-1.5017,-1.6087,-1.5508,-1.5013,-1.5013,-1.572,-1.628,-1.6558,-1.7354,-1.8259,-1.9243,-2.0009,-2.0846,-2.1815,-2.258,-2.3005,-2.3065,-2.3065,-2.3484,-2.4279,-2.4279,-2.4394,-2.4483,-2.4053,-2.3821,-2.3729,-2.3553,-2.3493,-2.361,-2.361,-2.361,-2.364,-2.4238,-2.4462,-2.4492,-2.5106,-2.5781,-2.662,-2.7841,-2.8758,-2.9544,-3.0804,-3.119,-3.1292,-3.1935,-3.1698,-3.1326,-3.1935,-3.1698,-3.119,-3.119,-3.119,-3.119,-3.119,-3.123,-3.1389,-3.1733,-3.2722,-3.3547,-3.325,-3.4069,-3.4844,-3.4954,-3.6853,-3.8395,-3.8505,-3.979,-4.0634,-4.012,-4.1148,-4.1479,-4.0084,-4.0524,-4.0928,-4.0818,-4.0891,-4.1641,-4.328,-4.3729,-4.4083,-4.441,-4.4625,-4.4751,-4.4751,-4.5011,-4.518,-4.518,-4.5438,-4.5586,-4.5586,-4.5586,-4.5586,-4.5586,-4.5624,-4.5624,-2.4595,-2.4042,-2.3258,0.0,-2.1603,-2.0218,-1.985,-1.9156,-1.84,-1.7733,-1.7353,-1.6911,-1.6144,-1.5742,-1.5823,-1.6597,-1.5926,-1.5633,-1.6504,-1.579,-1.5367,-1.593,-1.6349,-1.6973,-1.7997,-1.8509,-1.9309,-2.0655,-2.1101,-2.169,-2.2519,-2.2884,-2.3065,-2.3065,-2.3543,-2.4163,-2.4908,-2.5356,-2.5364,-2.5081,-2.4104,-2.361,-2.361,-2.3999,-2.3969,-2.361,-2.361,-2.3819,-2.4208,-2.4462,-2.4791,-2.5196,-2.5495,-2.6004,-2.6778,-2.8015,-2.9134,-3.0183,-3.1407,-3.2119,-3.2476,-3.2814,-3.2408,-3.1935,-3.2679,-3.2408,-3.1799,-3.1799,-3.1799,-3.1879,-3.2196,-3.2273,-3.2455,-3.3352,-3.416,-3.4706,-3.4573,-3.5162,-3.5862,-3.6303,-3.7991,-3.9533,-3.9974,-4.0634,-4.1295,-4.1809,-4.1735,-4.1552,-4.1295,-4.1148,-4.1111,-4.1111,-4.1515,-4.2095,-4.2955,-4.3652,-4.4058,-4.4233,-4.4493,-4.4599,-4.4599,-4.4751,-4.4825,-4.4825,-4.5323,-4.5586,-4.5586,-4.5586,-4.5586,-4.5586,-4.5586,-4.5586,0.0,0.0,-2.5345,-2.5024,-2.3759,-2.2471,0.0,-2.1117,-2.0138,-1.8922,-1.8885,-1.8667,-1.7278,-1.6788,-1.6574,-1.668,-1.6346,-1.6301,-1.6886,-1.6158,-1.593,-1.6853,-1.7036,-1.7678,-1.9156,-1.938,-2.0136,-2.1753,-2.1877,-2.2249,-2.3065,-2.3065,-2.3065,-2.3065,-2.3872,-2.4624,-2.5412,-2.5969,-2.6079,-2.5585,-2.4238,-2.3699,-2.3879,-2.4388,-2.4448,-2.4118,-2.4118,-2.4208,-2.4418,-2.4926,-2.5315,-2.5644,-2.5974,-2.6393,-2.6999,-2.8271,-2.9406,-3.0433,-3.187,-3.2707,-3.3211,-3.3584,-3.3186,-3.2713,-3.3457,-3.3152,-3.2577,-3.2577,-3.2577,-3.2666,-3.3068,-3.326,-3.3661,-3.4624,-3.5393,-3.5937,-3.6064,-3.6383,-3.6817,-3.7624,-3.9093,-4.0341,-4.0744,-4.1295,-4.2066,-4.3057,-4.2176,-4.1552,-4.1956,-4.1479,-4.1111,-4.1111,-4.1809,-4.2396,-4.258,-4.3356,-4.3881,-4.3881,-4.4146,-4.4327,-4.4327,-4.4373,-4.4428,-4.4428,-4.5033,-4.5361,-4.5361,-4.5361,-4.5361,-4.5361,-4.5361,-4.54,0.0,-2.6991,0.0,-2.5866,-2.5502,-2.5286,-2.4653,-2.3963,-2.3108,-2.1822,-2.1068,-2.0204,-1.8839,-1.8129,-1.7472,-1.6782,-1.6589,-1.6904,-1.7784,-1.7148,-1.6853,-1.7803,-1.8213,-1.8633,-1.9267,-1.9532,-2.0325,-2.1768,-2.1877,-2.2249,-2.3065,-2.3065,-2.3065,-2.3065,-2.3872,-2.4624,-2.5412,-2.5567,-2.5627,-2.5585,-2.4238,-2.3939,-2.4522,-2.4552,-2.4956,-2.5495,-2.5495,-2.4807,-2.3789,-2.5704,-2.6123,-2.5734,-2.6991,-2.755,-2.769,-2.8978,-2.9503,-2.9824,-3.1732,-3.2438,-3.2673,-3.4028,-3.3931,-3.3491,-3.4201,-3.3931,-3.3355,-3.3355,-3.3355,-3.3355,-3.3397,-3.3774,-3.4248,-3.4694,-3.5789,-3.6866,-3.7314,-3.7404,-3.7661,-3.8469,-3.9937,-4.0818,-4.0084,-4.1846,-4.313,-4.247,-4.2286,-4.1992,-4.1258,-4.1148,-4.1111,-4.1111,-4.1809,-4.2616,-4.3351,-4.3495,-4.3532,-4.3532,-4.3566,-4.3529,-4.3529,-4.3849,-4.4028,-4.4028,-4.4428,-4.4676,-4.4676,-4.4676,-4.4676,-4.4676,-4.4676,-4.4825,0.0,0.0,0.0,-2.8158,-2.7527,-2.6739,-2.6039,-2.5041,-2.3862,-2.2563,-2.1747,-2.099,-2.0023,-1.8544,-1.7407,-1.7389,-1.6215,-1.5859,-1.7745,-1.6645,-1.6489,-1.8576,-1.8651,-1.9169,-2.0801,-2.0703,-2.1162,-2.2592,-2.2702,-2.2823,-2.3065,-2.3065,-2.3065,-2.3065,-2.4337,-2.5605,-2.6811,-2.6416,-2.6033,-2.5585,-2.4687,-2.4148,-2.3999,-2.4866,-2.5166,-2.5046,-2.6303,-2.6363,-2.5585,-2.6303,-2.6692,-2.6931,-2.738,-2.761,-2.77,-2.8565,-2.946,-3.0448,-3.1983,-3.311,-3.3961,-3.4891,-3.4709,-3.4235,-3.4979,-3.4709,-3.41,-3.41,-3.41,-3.4236,-3.4901,-3.5209,-3.5649,-3.6988,-3.7681,-3.8204,-3.8878,-3.8615,-3.8505,-3.9313,-3.9937,-4.0561,-4.1295,-4.2176,-4.28,-4.302,-4.2616,-4.2396,-4.2616,-4.2176,-4.2066,-4.258,-4.291,-4.3167,-4.3461,-4.3497,-4.3497,-4.3497,-4.3497,-4.3497,-4.3497,-4.3631,-4.366,-4.366,-4.3823,-4.4125,-4.4599,-4.4599,-4.4599,-4.4599,-4.4599,-4.494,-2.803,0.0,0.0,0.0,-2.8906,-2.8263,-2.7218,-2.6367,-2.543,-2.3948,-2.3111,-2.2366,-2.1407,-1.9643,-1.8272,-1.7965,-1.6472,-1.5918,-1.7552,-1.683,-1.6886,-1.9023,-1.9358,-2.0075,-2.1744,-2.1631,-2.1922,-2.3015,-2.3065,-2.3065,-2.3065,-2.3065,-2.3365,-2.3872,-2.5106,-2.639,-2.756,-2.6931,-2.6243,-2.5585,-2.491,-2.4507,-2.4298,-2.5196,-2.5615,-2.5704,-2.6991,-2.7081,-2.6303,-2.6752,-2.7051,-2.726,-2.752,-2.761,-2.77,-2.8338,-2.9282,-3.0495,-3.2038,-3.3339,-3.4447,-3.5316,-3.5284,-3.4979,-3.5453,-3.5284,-3.4878,-3.4878,-3.4878,-3.5018,-3.57,-3.6133,-3.6863,-3.8684,-3.8909,-3.8836,-3.9386,-3.9093,-3.9019,-4.0084,-4.0304,-4.0744,-4.2066,-4.2506,-4.2873,-4.3424,-4.28,-4.2506,-4.302,-4.2616,-4.2506,-4.302,-4.3314,-4.3497,-4.3497,-4.3497,-4.3497,-4.3497,-4.3497,-4.3497,-4.3497,-4.3497,-4.3497,-4.3497,-4.3497,-4.3726,-4.4242,-4.4242,-4.4391,-4.4653,-4.4354,-4.4711,0.0,0.0,0.0,-2.8816,-2.9594,-3.0013,-2.815,-2.8158,-2.8062,-2.6039,-2.5156,-2.4324,-2.3013,-2.161,-2.0169,-1.8542,-1.7554,-1.7116,-1.7363,-1.7676,-1.8228,-1.9222,-2.0437,-2.142,-2.192,-2.2242,-2.2652,-2.3085,-2.3125,-2.3065,-2.304,-2.31,-2.3761,-2.5301,-2.6065,-2.6834,-2.75,-2.6871,-2.6243,-2.5585,-2.4881,-2.4956,-2.5555,-2.5585,-2.6273,-2.755,-2.758,-2.6811,-2.5764,-2.7051,-2.72,-2.6692,-2.732,-2.761,-2.77,-2.8338,-2.8996,-2.987,-3.1887,-3.304,-3.3853,-3.5144,-3.5622,-3.5622,-3.5622,-3.5622,-3.5622,-3.5622,-3.5656,-3.5656,-3.5735,-3.6492,-3.7719,-3.9487,-3.9313,-3.8726,-3.8762,-3.8762,-3.9203,-4.0818,-4.1111,-4.1368,-4.2176,-4.2947,-4.3461,-4.3497,-4.28,-4.2323,-4.2323,-4.2323,-4.2323,-4.2323,-4.302,-4.3497,-4.3497,-4.3497,-4.3497,-4.3497,-4.3497,-4.3497,-4.3497,-4.3497,-4.3497,-4.3497,-4.3497,-4.3497,-4.3497,-4.3497,-4.3938,-4.4672,-4.3938,-4.4214,-2.7382,0.0,0.0,0.0,0.0,0.0,-2.9804,-2.9116,-2.8278,-2.72,-2.6087,-2.52,-2.4826,-2.3677,-2.2654,-2.2193,-1.9368,-1.751,-1.8107,-1.7645,-1.8157,-2.0751,-2.116,-2.1898,-2.3543,-2.3358,-2.3165,-2.3223,-2.3111,-2.289,-2.2548,-2.2578,-2.3067,-2.4061,-2.4708,-2.5413,-2.6153,-2.5974,-2.5555,-2.4851,-2.4672,-2.4448,-2.4178,-2.4687,-2.5345,-2.6183,-2.6662,-2.6931,-2.7051,-2.746,-2.752,-2.737,-2.755,-2.761,-2.764,-2.7799,-2.8577,-2.981,-3.1318,-3.2624,-3.3853,-3.5144,-3.5622,-3.5622,-3.5622,-3.5622,-3.5622,-3.5622,-3.6028,-3.6763,-3.8077,-3.8792,-3.9425,-4.0496,-3.9717,-3.9019,-4.0194,-3.9974,-3.9863,-4.0928,-4.1111,-4.1552,-4.291,-4.2873,-4.2837,-4.3387,-4.28,-4.2506,-4.3094,-4.2653,-4.2506,-4.3094,-4.3351,-4.3497,-4.3497,-4.3497,-4.3497,-4.3497,-4.3497,-4.3497,-4.3497,-4.3497,-4.3497,-4.3497,-4.3497,-4.3497,-4.3497,-4.4085,-4.4488,-4.4745,-4.5663,-4.6287,-2.7578,-2.8788,-2.9654,-3.0043,0.0,0.0,-2.9894,-2.9355,-2.874,-2.7777,-2.6733,-2.6,-2.595,-2.5177,-2.439,-2.4085,-2.1895,-2.0077,-1.9594,-1.9544,-2.0262,-2.2381,-2.3086,-2.3898,-2.5068,-2.4623,-2.4065,-2.3725,-2.3134,-2.2674,-2.2368,-2.2933,-2.3632,-2.4362,-2.5279,-2.5884,-2.6033,-2.6004,-2.5555,-2.4582,-2.4851,-2.4609,-2.4059,-2.464,-2.5183,-2.5644,-2.6004,-2.6393,-2.6752,-2.6752,-2.7081,-2.761,-2.761,-2.761,-2.761,-2.761,-2.8423,-2.9724,-3.11,-3.2466,-3.3811,-3.517,-3.5622,-3.569,-3.5994,-3.6096,-3.6163,-3.6502,-3.6907,-3.7706,-3.9511,-3.9871,-4.0055,-4.1306,-4.0634,-3.9974,-4.0928,-4.1001,-4.1038,-4.1515,-4.1625,-4.2029,-4.3277,-4.3094,-4.2947,-4.3424,-4.3094,-4.2947,-4.3424,-4.3094,-4.2983,-4.3424,-4.3497,-4.3497,-4.3497,-4.3497,-4.3497,-4.3497,-4.3497,-4.3497,-4.3497,-4.3497,-4.3497,-4.3497,-4.3497,-4.3894,-4.4724,-4.4741,-4.4892,-4.5259,-4.6874,-4.7425,-2.8071,-2.9032,-2.9594,-2.9594,-3.0522,0.0,-2.9295,-2.9325,-2.9325,-2.8068,-2.732,-2.6871,-2.6722,-2.6213,-2.5634,-2.5209,-2.4742,-2.3743,-2.155,-2.2253,-2.3321,-2.408,-2.5478,-2.6455,-2.6564,-2.6001,-2.5305,-2.4498,-2.3093,-2.2351,-2.2403,-2.3634,-2.4647,-2.5401,-2.6672,-2.7081,-2.6482,-2.6579,-2.5948,-2.4717,-2.5259,-2.5198,-2.4686,-2.5179,-2.5461,-2.5588,-2.5588,-2.5571,-2.5615,-2.5615,-2.6303,-2.74,-2.749,-2.752,-2.752,-2.763,-2.8454,-2.9695,-3.1118,-3.2429,-3.373,-3.5026,-3.5554,-3.5757,-3.6535,-3.6772,-3.6941,-3.7787,-3.8072,-3.8504,-4.0278,-4.0223,-4.0146,-4.1902,-4.1739,-4.1148,-4.1222,-4.1809,-4.2286,-4.2286,-4.2359,-4.2653,-4.3387,-4.3497,-4.3497,-4.3497,-4.3424,-4.3387,-4.3497,-4.3424,-4.3387,-4.3497,-4.3497,-4.3497,-4.3497,-4.3497,-4.3534,-4.3608,-4.3608,-4.3608,-4.3608,-4.3608,-4.3571,-4.3497,-4.364,-4.4646,-4.6551,-4.5568,-4.551,-4.6358,-4.7758,-4.8053,-2.761,-2.868,-2.9594,-2.9594,-3.0133,0.0,-3.0911,-3.0642,-3.0103,-2.9355,-2.9086,-2.8667,-2.759,-2.729,-2.738,-2.7765,-2.6817,-2.5294,-2.3165,-2.305,-2.3848,-2.5508,-2.6197,-2.6961,-2.7901,-2.7374,-2.6515,-2.5248,-2.3073,-2.1983,-2.2538,-2.2845,-2.3631,-2.4788,-2.5597,-2.5944,-2.5794,-2.6276,-2.6072,-2.5229,-2.5831,-2.5751,-2.5061,-2.5179,-2.5309,-2.5444,-2.5444,-2.5484,-2.5615,-2.5615,-2.5764,-2.6033,-2.6572,-2.6782,-2.6939,-2.7941,-2.8799,-2.9681,-3.1005,-3.2327,-3.3631,-3.4465,-3.5115,-3.5757,-3.6535,-3.6772,-3.7077,-3.8396,-3.9119,-3.964,-4.0607,-4.0961,-4.1281,-4.2374,-4.1865,-4.1295,-4.1919,-4.2176,-4.2286,-4.2286,-4.28,-4.3314,-4.3461,-4.3497,-4.3497,-4.3497,-4.2947,-4.2763,-4.3424,-4.291,-4.2763,-4.3424,-4.3497,-4.3497,-4.3497,-4.3497,-4.3791,-4.4415,-4.4488,-4.4488,-4.4488,-4.4488,-4.4158,-4.3497,-4.4453,-4.5611,-4.6902,-4.7371,-4.8018,-4.8814,-4.9114,-4.9189,-2.8521,-2.9262,-3.0043,-3.0043,-3.0522,0.0,0.0,-3.0761,-3.0223,-2.9295,-2.9086,-2.8786,-2.782,-2.761,-2.7799,-2.8487,-2.775,-2.6899,-2.6489,-2.5841,-2.5787,-2.7041,-2.7937,-2.8666,-2.9286,-2.871,-2.7439,-2.5153,-2.3484,-2.2763,-2.3091,-2.3491,-2.4296,-2.56,-2.6247,-2.6273,-2.5615,-2.6535,-2.6293,-2.4916,-2.6118,-2.616,-2.5221,-2.5486,-2.549,-2.5287,-2.5287,-2.5352,-2.54,-2.54,-2.54,-2.5493,-2.623,-2.6488,-2.6672,-2.7921,-2.8772,-2.9547,-3.0926,-3.2077,-3.3071,-3.4148,-3.4742,-3.5351,-3.6874,-3.7855,-3.8565,-3.9309,-3.9725,-4.0143,-4.1136,-4.1492,-4.1845,-4.2849,-4.2701,-4.2396,-4.28,-4.291,-4.291,-4.291,-4.3204,-4.3497,-4.3497,-4.3497,-4.3497,-4.3497,-4.3167,-4.302,-4.3424,-4.313,-4.3057,-4.3461,-4.3497,-4.3497,-4.3497,-4.3864,-4.4268,-4.4672,-4.5076,-4.5112,-4.4745,-4.4709,-4.441,-4.3758,-4.538,-4.6543,-4.7302,-4.9186,-5.0114,-5.0145,-5.0145,-5.0145,-2.9729,-3.0133,-3.0492,-3.0492,-3.0941,-3.121,0.0,0.0,0.0,-2.9175,-2.8966,-2.8727,-2.7919,-2.7889,-2.8128,-2.8697,-2.8338,-2.8368,-2.9594,-2.8867,-2.8369,-2.8872,-2.9726,-3.0408,-3.0705,-3.0004,-2.8297,-2.5243,-2.4491,-2.4191,-2.4067,-2.4577,-2.5453,-2.6752,-2.7171,-2.6871,-2.5794,-2.6811,-2.6461,-2.477,-2.6335,-2.6438,-2.5292,-2.5727,-2.5622,-2.511,-2.511,-2.5169,-2.5221,-2.5221,-2.5221,-2.5272,-2.6083,-2.6368,-2.6517,-2.7785,-2.8582,-2.9189,-3.0634,-3.1675,-3.251,-3.3829,-3.4675,-3.552,-3.7516,-3.9039,-4.0087,-4.0087,-4.0087,-4.0353,-4.1375,-4.1725,-4.2062,-4.3105,-4.3391,-4.3497,-4.3497,-4.3497,-4.3497,-4.3497,-4.3497,-4.3497,-4.3497,-4.3497,-4.3497,-4.3497,-4.3497,-4.3497,-4.3497,-4.3497,-4.3497,-4.3497,-4.3497,-4.3497,-4.3497,-4.4232,-4.4782,-4.4929,-4.57,-4.5847,-4.5186,-4.5073,-4.4831,-4.4378,-4.6382,-4.7593,-4.7936,-5.0602,-5.1584,-5.1016,-5.1196,-5.1271,-3.0402,-3.0462,-3.0492,-3.0492,-3.0552,-3.0761,-3.13,0.0,-3.0462,-3.0313,0.0,-2.9924,-2.8697,0.0,0.0,-2.9445,-2.9415,-2.9594,-3.0313,-3.0794,-3.1086,-3.1134,-3.064,-3.0803,-3.2044,-3.1083,-2.9247,-2.6542,-2.6369,-2.606,-2.5416,-2.5474,-2.6126,-2.744,-2.6961,-2.6632,-2.6482,-2.6566,-2.6385,-2.5982,-2.6749,-2.6573,-2.5547,-2.5612,-2.5347,-2.4868,-2.4868,-2.4977,-2.5221,-2.5221,-2.5221,-2.5246,-2.5958,-2.6236,-2.6381,-2.7655,-2.8188,-2.8438,-2.9772,-3.1151,-3.2449,-3.3254,-3.5351,-3.7686,-3.8599,-3.9445,-4.0087,-4.0087,-4.0087,-4.0254,-4.0827,-4.1385,-4.1979,-4.2655,-4.3142,-4.3497,-4.3497,-4.3497,-4.3497,-4.3497,-4.3497,-4.3497,-4.3497,-4.3497,-4.3497,-4.3497,-4.3497,-4.3497,-4.3497,-4.3497,-4.3497,-4.3497,-4.3497,-4.3497,-4.3497,-4.4232,-4.5002,-4.5736,-4.6544,-4.6948,-4.6838,-4.6456,-4.6059,-4.5601,-4.7631,-4.8853,-4.9202,-5.1029,-5.1854,-5.1792,-5.256,-5.2927,-3.1091,-3.139,-3.1569,-3.121,-3.139,-3.1659,-3.1482,-3.13,-3.1001,-3.0582,0.0,0.0,0.0,0.0,0.0,0.0,-2.9804,-2.9953,-3.0971,-3.0997,-3.1047,-3.1486,-3.1486,-3.1748,-3.2327,-3.1607,-3.043,-2.8946,-2.8171,-2.7452,-2.6753,-2.6366,-2.6624,-2.756,-2.734,-2.6811,-2.6033,-2.6719,-2.6411,-2.5152,-2.5747,-2.5717,-2.5146,-2.478,-2.4612,-2.4645,-2.5079,-2.5346,-2.5473,-2.587,-2.6071,-2.6068,-2.6399,-2.6348,-2.6292,-2.8006,-2.859,-2.8829,-3.0234,-3.1427,-3.2544,-3.4167,-3.6163,-3.8058,-3.8768,-3.9512,-4.0087,-4.0087,-4.0087,-4.0303,-4.1196,-4.1639,-4.2021,-4.2958,-4.3321,-4.3497,-4.3497,-4.3497,-4.3497,-4.3497,-4.3497,-4.3497,-4.3497,-4.3497,-4.3497,-4.3497,-4.3497,-4.3497,-4.3497,-4.3497,-4.3497,-4.3497,-4.3497,-4.3497,-4.3497,-4.4672,-4.5553,-4.5883,-4.6214,-4.6507,-4.6681,-4.6099,-4.5894,-4.6111,-4.7929,-4.9302,-5.0164,-5.1856,-5.2933,-5.3433,-5.378,-5.3933,-3.2018,-3.2287,-3.2437,-3.2138,-3.2168,-3.2168,-3.1869,-3.1601,-3.1332,-3.0881,-3.0791,0.0,0.0,0.0,-3.0193,-3.0462,0.0,-3.0432,-3.139,-3.128,-3.1239,-3.1715,-3.2353,-3.2602,-3.2426,-3.2364,-3.1908,-3.079,-2.99,-2.8951,-2.7845,-2.723,-2.7081,-2.761,-2.741,-2.6752,-2.5615,-2.6321,-2.5931,-2.4389,-2.4831,-2.4852,-2.4477,-2.4017,-2.408,-2.4557,-2.5067,-2.5541,-2.5947,-2.6488,-2.6691,-2.6725,-2.6928,-2.6789,-2.6676,-2.814,-2.8897,-2.9344,-3.064,-3.191,-3.3368,-3.5625,-3.7271,-3.8494,-3.931,-3.991,-4.0303,-4.0104,-4.0087,-4.0368,-4.1508,-4.181,-4.2103,-4.325,-4.3497,-4.3497,-4.3497,-4.3497,-4.3497,-4.3497,-4.3497,-4.3497,-4.3497,-4.3497,-4.3497,-4.3497,-4.3497,-4.3497,-4.3497,-4.3497,-4.3497,-4.3497,-4.3497,-4.3497,-4.3497,-4.4966,-4.5993,-4.6214,-4.6102,-4.6128,-4.6424,-4.633,-4.6474,-4.6984,-4.8586,-4.9827,-5.0702,-5.2125,-5.328,-5.4164,-5.4626,-5.4818,-3.3275,-3.2976,-3.2647,-3.3275,-3.2497,-3.1661,-3.2347,-3.1988,-3.1452,-3.1452,-3.1452,-3.1243,-3.0612,-3.1031,-3.127,-3.0612,-3.1061,0.0,0.0,-3.2074,-3.254,-3.2563,-3.3171,-3.324,-3.2479,-3.3656,-3.3637,-3.1539,-3.1459,-3.0656,-2.859,-2.7929,-2.761,-2.761,-2.6961,-2.6303,-2.5615,-2.4986,-2.4606,-2.4389,-2.443,-2.422,-2.3753,-2.372,-2.4015,-2.4523,-2.4557,-2.5338,-2.6657,-2.6691,-2.6691,-2.6759,-2.7503,-2.7739,-2.7739,-2.7806,-2.8596,-2.9693,-3.0422,-3.2477,-3.5119,-3.745,-3.8757,-3.9594,-4.0537,-4.0839,-4.078,-4.0254,-4.0087,-4.0368,-4.1508,-4.181,-4.2103,-4.325,-4.3497,-4.3497,-4.3497,-4.3497,-4.3497,-4.3497,-4.3497,-4.3497,-4.3497,-4.3497,-4.3497,-4.3497,-4.3497,-4.3497,-4.3497,-4.3497,-4.3497,-4.3497,-4.3497,-4.3497,-4.3497,-4.4966,-4.625,-4.7021,-4.6641,-4.6424,-4.6488,-4.7905,-4.8715,-4.88,-5.0043,-5.0664,-5.0702,-5.1548,-5.2395,-5.328,-5.4895,-5.5665,-3.3425,-3.3664,-3.3754,-3.3544,-3.3484,-3.3305,-3.2647,-3.2347,-3.2048,-3.1571,-3.1482,-3.1392,-3.121,-3.139,-3.145,-3.121,-3.1332,-3.1482,0.0,-3.2104,-3.2602,-3.2602,-3.3182,-3.3659,-3.3806,-3.3867,-3.3545,-3.2789,-3.1557,-3.0352,-2.9152,-2.8125,-2.761,-2.761,-2.74,-2.6931,-2.6273,-2.5615,-2.5017,-2.4502,-2.3667,-2.3522,-2.3955,-2.3506,-2.3753,-2.4557,-2.5507,-2.5947,-2.6048,-2.7029,-2.7435,-2.7469,-2.7671,-2.8414,-2.9367,-2.9589,-2.9972,-3.0525,-3.2091,-3.3565,-3.5084,-3.6923,-3.8408,-3.9646,-4.0461,-4.1086,-4.134,-4.078,-4.0625,-4.0685,-4.107,-4.1903,-4.2661,-4.2917,-4.4054,-4.4782,-4.3718,-4.3901,-4.4158,-4.3608,-4.3497,-4.3497,-4.3497,-4.3497,-4.3497,-4.3497,-4.3497,-4.3497,-4.3497,-4.3497,-4.3497,-4.3497,-4.3497,-4.3597,-4.3786,-4.5072,-4.642,-4.7766,-4.7177,-4.693,-4.7174,-4.8237,-4.8968,-4.9238,-5.0201,-5.0971,-5.151,-5.2356,-5.2773,-5.2862,-5.4522,-5.5287,-3.4143,-3.4352,-3.4442,-3.4262,-3.4173,-3.3963,-3.3335,-3.2856,-3.2467,-3.2258,-3.2048,-3.1958,-3.2198,-3.2048,-3.1869,-3.1869,-3.1689,-3.1482,0.0,-3.2104,-3.2711,-3.2949,-3.3547,-3.412,-3.4592,-3.4386,-3.3996,-3.3448,-3.2067,-3.0765,-2.9782,-2.8764,-2.8125,-2.7959,-2.791,-2.7478,-2.6602,-2.6183,-2.5644,-2.4956,-2.4351,-2.4348,-2.4856,-2.4632,-2.4939,-2.571,-2.6691,-2.6996,-2.6894,-2.7841,-2.8247,-2.8247,-2.8518,-2.9304,-3.0338,-3.0629,-3.1079,-3.18,-3.3184,-3.4171,-3.5137,-3.6717,-3.8115,-3.9442,-4.0535,-4.1243,-4.1588,-4.1314,-4.1415,-4.1646,-4.1578,-4.2676,-4.3704,-4.3462,-4.4675,-4.5626,-4.4562,-4.4525,-4.4562,-4.4011,-4.3681,-4.3497,-4.3497,-4.3497,-4.3497,-4.3497,-4.3497,-4.3497,-4.3497,-4.3497,-4.3497,-4.3497,-4.3497,-4.3885,-4.4823,-4.5619,-4.6685,-4.8145,-4.7602,-4.7454,-4.799,-4.87,-4.9618,-5.0741,-5.0702,-5.1201,-5.2132,-5.2401,-5.2318,-5.1977,-5.366,-5.4334]}]]